Time,TemperatureF,DewpointF,PressureIn,WindDirection,WindDirectionDegrees,WindSpeedMPH,WindSpeedGustMPH,Humidity,HourlyPrecipIn,Conditions,Clouds,dailyrainin,SolarRadiationWatts/m^2,SoftwareType,DateUTC
2013-02-19 00:00:00,36.2,31.5,30.18,North,0,0.0,0.0,83,0.00,,,0.00,0,MyOwnSoftware,2013-02-19 00:00:00,
2013-02-19 00:01:00,36.2,31.5,30.18,SW,225,0.0,1.0,83,0.00,,,0.00,0,MyOwnSoftware,2013-02-19 00:01:00,
2013-02-19 00:02:00,36.2,31.5,30.18,North,0,0.0,0.0,83,0.00,,,0.00,0,MyOwnSoftware,2013-02-19 00:02:00,
2013-02-19 00:03:00,36.2,31.5,30.18,SW,225,1.0,1.0,83,0.00,,,0.00,0,MyOwnSoftware,2013-02-19 00:03:00,
2013-02-19 00:04:00,36.2,31.5,30.18,SW,225,1.0,2.0,83,0.00,,,0.00,0,MyOwnSoftware,2013-02-19 00:04:00,
2013-02-19 00:05:00,36.2,31.5,30.18,SW,225,1.0,2.0,83,0.00,,,0.00,0,MyOwnSoftware,2013-02-19 00:05:00,
2013-02-19 00:06:00,36.2,32.0,30.18,SW,230,0.0,-999.0,83,-99.99,,,0.00,0,weatherlink.com 1.10,2013-02-19 00:06:00,
2013-02-19 00:09:00,36.2,31.2,30.18,SW,225,0.0,1.0,82,0.00,,,0.00,0,MyOwnSoftware,2013-02-19 00:09:00,
2013-02-19 00:10:00,36.2,31.2,30.18,North,0,0.0,0.0,82,0.00,,,0.00,0,MyOwnSoftware,2013-02-19 00:10:00,
2013-02-19 00:11:00,36.2,31.2,30.18,North,0,0.0,0.0,82,0.00,,,0.00,0,MyOwnSoftware,2013-02-19 00:11:00,
2013-02-19 00:12:00,36.2,31.2,30.18,North,0,0.0,0.0,82,0.00,,,0.00,0,MyOwnSoftware,2013-02-19 00:12:00,
2013-02-19 00:13:00,36.2,31.2,30.18,SW,225,0.0,1.0,82,0.00,,,0.00,0,MyOwnSoftware,2013-02-19 00:13:00,
2013-02-19 00:14:00,36.2,31.2,30.18,SW,225,1.0,3.0,82,0.00,,,0.00,0,MyOwnSoftware,2013-02-19 00:14:00,
2013-02-19 00:15:00,36.2,31.5,30.18,North,0,0.0,0.0,83,0.00,,,0.00,0,MyOwnSoftware,2013-02-19 00:15:00,
2013-02-19 00:16:00,36.2,31.2,30.17,WSW,248,0.0,1.0,82,0.00,,,0.00,0,MyOwnSoftware,2013-02-19 00:16:00,
2013-02-19 00:17:00,36.2,31.2,30.17,WSW,248,0.0,1.0,82,0.00,,,0.00,0,MyOwnSoftware,2013-02-19 00:17:00,
2013-02-19 00:18:00,36.2,31.2,30.17,North,0,0.0,0.0,82,0.00,,,0.00,0,MyOwnSoftware,2013-02-19 00:18:00,
2013-02-19 00:19:00,36.2,31.2,30.17,WSW,248,0.0,1.0,82,0.00,,,0.00,0,MyOwnSoftware,2013-02-19 00:19:00,
2013-02-19 00:20:00,36.2,31.2,30.17,WSW,248,0.0,1.0,82,0.00,,,0.00,0,MyOwnSoftware,2013-02-19 00:20:00,
2013-02-19 00:21:00,36.2,31.0,30.17,WSW,248,0.0,-999.0,82,-99.99,,,0.00,0,weatherlink.com 1.10,2013-02-19 00:21:00,
2013-02-19 00:22:00,36.2,31.2,30.17,North,0,0.0,0.0,82,0.00,,,0.00,0,MyOwnSoftware,2013-02-19 00:22:00,
2013-02-19 00:23:00,36.2,31.2,30.17,North,0,0.0,0.0,82,0.00,,,0.00,0,MyOwnSoftware,2013-02-19 00:23:00,
2013-02-19 00:24:00,36.2,31.2,30.17,North,0,0.0,0.0,82,0.00,,,0.00,0,MyOwnSoftware,2013-02-19 00:24:00,
2013-02-19 00:25:00,36.0,31.0,30.17,North,0,0.0,0.0,82,0.00,,,0.00,0,MyOwnSoftware,2013-02-19 00:25:00,
2013-02-19 00:29:00,36.0,31.0,30.17,North,0,0.0,0.0,82,0.00,,,0.00,0,MyOwnSoftware,2013-02-19 00:29:00,
2013-02-19 00:30:00,36.0,31.0,30.17,North,0,0.0,0.0,82,0.00,,,0.00,0,MyOwnSoftware,2013-02-19 00:30:00,
2013-02-19 00:31:00,36.0,31.0,30.17,North,0,0.0,0.0,82,0.00,,,0.00,0,MyOwnSoftware,2013-02-19 00:31:00,
2013-02-19 00:32:00,36.0,31.0,30.17,North,0,0.0,0.0,82,0.00,,,0.00,0,MyOwnSoftware,2013-02-19 00:32:00,
2013-02-19 00:33:00,35.9,31.0,30.17,WSW,248,0.0,1.0,82,0.00,,,0.00,0,MyOwnSoftware,2013-02-19 00:33:00,
2013-02-19 00:34:00,35.9,31.0,30.17,North,0,0.0,0.0,82,0.00,,,0.00,0,MyOwnSoftware,2013-02-19 00:34:00,
2013-02-19 00:35:00,36.0,31.0,30.17,North,0,0.0,0.0,82,0.00,,,0.00,0,MyOwnSoftware,2013-02-19 00:35:00,
2013-02-19 00:39:00,35.8,30.6,30.17,WSW,248,0.0,1.0,81,0.00,,,0.00,0,MyOwnSoftware,2013-02-19 00:39:00,
2013-02-19 00:40:00,35.8,30.6,30.17,North,0,0.0,0.0,81,0.00,,,0.00,0,MyOwnSoftware,2013-02-19 00:40:00,
2013-02-19 00:41:00,35.8,30.9,30.17,WSW,248,0.0,1.0,82,0.00,,,0.00,0,MyOwnSoftware,2013-02-19 00:41:00,
2013-02-19 00:42:00,35.8,30.9,30.17,North,0,0.0,0.0,82,0.00,,,0.00,0,MyOwnSoftware,2013-02-19 00:42:00,
2013-02-19 00:43:00,35.6,30.7,30.17,North,0,0.0,0.0,82,0.00,,,0.00,0,MyOwnSoftware,2013-02-19 00:43:00,
2013-02-19 00:44:00,35.6,30.7,30.17,North,0,0.0,0.0,82,0.00,,,0.00,0,MyOwnSoftware,2013-02-19 00:44:00,
2013-02-19 00:45:00,35.9,31.0,30.17,North,0,0.0,0.0,82,0.00,,,0.00,0,MyOwnSoftware,2013-02-19 00:45:00,
2013-02-19 00:49:00,35.6,30.7,30.18,North,0,0.0,0.0,82,0.00,,,0.00,0,MyOwnSoftware,2013-02-19 00:49:00,
2013-02-19 00:50:00,35.6,30.7,30.18,North,0,0.0,0.0,82,0.00,,,0.00,0,MyOwnSoftware,2013-02-19 00:50:00,
2013-02-19 00:51:00,35.6,31.0,30.18,WSW,247,0.0,-999.0,82,-99.99,,,0.00,0,weatherlink.com 1.10,2013-02-19 00:51:00,
2013-02-19 00:52:00,35.5,30.6,30.18,North,0,0.0,0.0,82,0.00,,,0.00,0,MyOwnSoftware,2013-02-19 00:52:00,
2013-02-19 00:53:00,35.5,30.6,30.18,North,0,0.0,0.0,82,0.00,,,0.00,0,MyOwnSoftware,2013-02-19 00:53:00,
2013-02-19 00:54:00,35.5,30.6,30.18,North,0,0.0,0.0,82,0.00,,,0.00,0,MyOwnSoftware,2013-02-19 00:54:00,
2013-02-19 00:55:00,35.5,30.6,30.18,North,0,0.0,0.0,82,0.00,,,0.00,0,MyOwnSoftware,2013-02-19 00:55:00,
2013-02-19 00:56:00,35.5,30.6,30.18,North,0,0.0,0.0,82,0.00,,,0.00,0,MyOwnSoftware,2013-02-19 00:56:00,
2013-02-19 00:57:00,35.5,30.6,30.18,WSW,248,0.0,1.0,82,0.00,,,0.00,0,MyOwnSoftware,2013-02-19 00:57:00,
2013-02-19 00:58:00,35.5,30.6,30.18,North,0,0.0,0.0,82,0.00,,,0.00,0,MyOwnSoftware,2013-02-19 00:58:00,
2013-02-19 00:59:00,35.5,30.6,30.18,North,0,0.0,0.0,82,0.00,,,0.00,0,MyOwnSoftware,2013-02-19 00:59:00,
2013-02-19 01:00:00,35.5,30.6,30.18,North,0,0.0,0.0,82,0.00,,,0.00,0,MyOwnSoftware,2013-02-19 01:00:00,
2013-02-19 01:01:00,35.5,30.6,30.18,WSW,248,1.0,2.0,82,0.00,,,0.00,0,MyOwnSoftware,2013-02-19 01:01:00,
2013-02-19 01:02:00,35.5,30.9,30.18,WSW,248,0.0,1.0,83,0.00,,,0.00,0,MyOwnSoftware,2013-02-19 01:02:00,
2013-02-19 01:03:00,35.5,30.6,30.18,WSW,248,0.0,1.0,82,0.00,,,0.00,0,MyOwnSoftware,2013-02-19 01:03:00,
2013-02-19 01:04:00,35.5,30.6,30.18,North,0,0.0,0.0,82,0.00,,,0.00,0,MyOwnSoftware,2013-02-19 01:04:00,
2013-02-19 01:05:00,35.3,30.4,30.18,WSW,248,0.0,1.0,82,0.00,,,0.00,0,MyOwnSoftware,2013-02-19 01:05:00,
2013-02-19 01:06:00,35.3,30.0,30.18,WSW,246,0.0,-999.0,82,-99.99,,,0.00,0,weatherlink.com 1.10,2013-02-19 01:06:00,
2013-02-19 01:09:00,35.3,30.4,30.18,WSW,248,0.0,1.0,82,0.00,,,0.00,0,MyOwnSoftware,2013-02-19 01:09:00,
2013-02-19 01:10:00,35.3,30.4,30.18,WSW,248,0.0,2.0,82,0.00,,,0.00,0,MyOwnSoftware,2013-02-19 01:10:00,
2013-02-19 01:11:00,35.3,30.4,30.18,WSW,248,1.0,2.0,82,0.00,,,0.00,0,MyOwnSoftware,2013-02-19 01:11:00,
2013-02-19 01:12:00,35.3,30.7,30.18,WSW,248,1.0,2.0,83,0.00,,,0.00,0,MyOwnSoftware,2013-02-19 01:12:00,
2013-02-19 01:13:00,35.3,30.7,30.18,WSW,248,1.0,1.0,83,0.00,,,0.00,0,MyOwnSoftware,2013-02-19 01:13:00,
2013-02-19 01:14:00,35.3,30.7,30.18,WSW,248,1.0,2.0,83,0.00,,,0.00,0,MyOwnSoftware,2013-02-19 01:14:00,
2013-02-19 01:15:00,35.3,30.4,30.18,North,0,0.0,0.0,82,0.00,,,0.00,0,MyOwnSoftware,2013-02-19 01:15:00,
2013-02-19 01:16:00,35.3,30.7,30.18,North,0,0.0,0.0,83,0.00,,,0.00,0,MyOwnSoftware,2013-02-19 01:16:00,
2013-02-19 01:17:00,35.2,30.6,30.18,North,0,0.0,0.0,83,0.00,,,0.00,0,MyOwnSoftware,2013-02-19 01:17:00,
2013-02-19 01:18:00,35.2,30.6,30.18,North,0,0.0,0.0,83,0.00,,,0.00,0,MyOwnSoftware,2013-02-19 01:18:00,
2013-02-19 01:19:00,35.2,30.3,30.18,North,0,0.0,0.0,82,0.00,,,0.00,0,MyOwnSoftware,2013-02-19 01:19:00,
2013-02-19 01:20:00,35.2,30.6,30.18,North,0,0.0,0.0,83,0.00,,,0.00,0,MyOwnSoftware,2013-02-19 01:20:00,
2013-02-19 01:21:00,35.2,31.0,30.18,WSW,246,0.0,-999.0,83,-99.99,,,0.00,0,weatherlink.com 1.10,2013-02-19 01:21:00,
2013-02-19 01:22:00,35.2,30.6,30.18,North,0,0.0,0.0,83,0.00,,,0.00,0,MyOwnSoftware,2013-02-19 01:22:00,
2013-02-19 01:23:00,35.2,30.6,30.18,North,0,0.0,0.0,83,0.00,,,0.00,0,MyOwnSoftware,2013-02-19 01:23:00,
2013-02-19 01:24:00,35.0,30.4,30.18,North,0,0.0,0.0,83,0.00,,,0.00,0,MyOwnSoftware,2013-02-19 01:24:00,
2013-02-19 01:25:00,35.0,30.4,30.18,North,0,0.0,0.0,83,0.00,,,0.00,0,MyOwnSoftware,2013-02-19 01:25:00,
2013-02-19 01:26:00,35.0,30.4,30.18,North,0,0.0,0.0,83,0.00,,,0.00,0,MyOwnSoftware,2013-02-19 01:26:00,
2013-02-19 01:27:00,35.0,30.4,30.18,North,0,0.0,0.0,83,0.00,,,0.00,0,MyOwnSoftware,2013-02-19 01:27:00,
2013-02-19 01:28:00,35.0,30.4,30.18,North,0,0.0,0.0,83,0.00,,,0.00,0,MyOwnSoftware,2013-02-19 01:28:00,
2013-02-19 01:29:00,35.0,30.4,30.18,WSW,248,1.0,1.0,83,0.00,,,0.00,0,MyOwnSoftware,2013-02-19 01:29:00,
2013-02-19 01:30:00,35.0,30.4,30.18,WSW,248,0.0,1.0,83,0.00,,,0.00,0,MyOwnSoftware,2013-02-19 01:30:00,
2013-02-19 01:31:00,35.0,30.4,30.18,North,0,0.0,0.0,83,0.00,,,0.00,0,MyOwnSoftware,2013-02-19 01:31:00,
2013-02-19 01:32:00,35.0,30.4,30.18,WSW,248,1.0,2.0,83,0.00,,,0.00,0,MyOwnSoftware,2013-02-19 01:32:00,
2013-02-19 01:33:00,35.0,30.4,30.18,WSW,248,0.0,1.0,83,0.00,,,0.00,0,MyOwnSoftware,2013-02-19 01:33:00,
2013-02-19 01:34:00,35.0,30.4,30.18,WSW,248,0.0,1.0,83,0.00,,,0.00,0,MyOwnSoftware,2013-02-19 01:34:00,
2013-02-19 01:35:00,35.0,30.4,30.18,WSW,248,1.0,2.0,83,0.00,,,0.00,0,MyOwnSoftware,2013-02-19 01:35:00,
2013-02-19 01:36:00,35.0,30.0,30.18,WSW,248,1.0,-999.0,83,-99.99,,,0.00,0,weatherlink.com 1.10,2013-02-19 01:36:00,
2013-02-19 01:37:00,35.0,30.4,30.18,WSW,248,1.0,2.0,83,0.00,,,0.00,0,MyOwnSoftware,2013-02-19 01:37:00,
2013-02-19 01:38:00,35.0,30.4,30.18,SSW,202,1.0,3.0,83,0.00,,,0.00,0,MyOwnSoftware,2013-02-19 01:38:00,
2013-02-19 01:39:00,35.0,30.4,30.18,SSW,202,2.0,5.0,83,0.00,,,0.00,0,MyOwnSoftware,2013-02-19 01:39:00,
2013-02-19 01:40:00,35.0,30.4,30.18,SW,225,2.0,2.0,83,0.00,,,0.00,0,MyOwnSoftware,2013-02-19 01:40:00,
2013-02-19 01:41:00,35.0,30.4,30.18,WSW,248,2.0,3.0,83,0.00,,,0.00,0,MyOwnSoftware,2013-02-19 01:41:00,
2013-02-19 01:42:00,35.0,30.4,30.18,SW,225,2.0,6.0,83,0.00,,,0.00,0,MyOwnSoftware,2013-02-19 01:42:00,
2013-02-19 01:43:00,35.0,30.4,30.18,SSW,202,3.0,5.0,83,0.00,,,0.00,0,MyOwnSoftware,2013-02-19 01:43:00,
2013-02-19 01:44:00,35.0,30.4,30.18,SW,225,2.0,5.0,83,0.00,,,0.00,0,MyOwnSoftware,2013-02-19 01:44:00,
2013-02-19 01:45:00,35.0,30.4,30.18,SW,225,2.0,3.0,83,0.00,,,0.00,0,MyOwnSoftware,2013-02-19 01:45:00,
2013-02-19 01:46:00,35.0,30.4,30.18,SSW,202,2.0,3.0,83,0.00,,,0.00,0,MyOwnSoftware,2013-02-19 01:46:00,
2013-02-19 01:47:00,35.0,30.1,30.18,WSW,248,2.0,3.0,82,0.00,,,0.00,0,MyOwnSoftware,2013-02-19 01:47:00,
2013-02-19 01:48:00,35.0,30.1,30.18,SW,225,1.0,2.0,82,0.00,,,0.00,0,MyOwnSoftware,2013-02-19 01:48:00,
2013-02-19 01:49:00,35.2,30.3,30.18,WSW,248,1.0,2.0,82,0.00,,,0.00,0,MyOwnSoftware,2013-02-19 01:49:00,
2013-02-19 01:50:00,35.2,30.3,30.18,SW,225,2.0,3.0,82,0.00,,,0.00,0,MyOwnSoftware,2013-02-19 01:50:00,
2013-02-19 01:51:00,35.2,30.0,30.18,West,267,1.0,-999.0,82,-99.99,,,0.00,0,weatherlink.com 1.10,2013-02-19 01:51:00,
2013-02-19 01:52:00,35.2,30.3,30.18,West,270,1.0,2.0,82,0.00,,,0.00,0,MyOwnSoftware,2013-02-19 01:52:00,
2013-02-19 01:53:00,35.2,30.3,30.18,West,270,1.0,2.0,82,0.00,,,0.00,0,MyOwnSoftware,2013-02-19 01:53:00,
2013-02-19 01:54:00,35.2,30.3,30.18,West,270,0.0,1.0,82,0.00,,,0.00,0,MyOwnSoftware,2013-02-19 01:54:00,
2013-02-19 01:55:00,35.2,30.3,30.18,West,270,0.0,1.0,82,0.00,,,0.00,0,MyOwnSoftware,2013-02-19 01:55:00,
2013-02-19 01:56:00,35.2,30.3,30.18,North,0,0.0,0.0,82,0.00,,,0.00,0,MyOwnSoftware,2013-02-19 01:56:00,
2013-02-19 01:57:00,35.2,30.3,30.18,North,0,0.0,0.0,82,0.00,,,0.00,0,MyOwnSoftware,2013-02-19 01:57:00,
2013-02-19 01:58:00,35.2,30.3,30.18,West,270,1.0,2.0,82,0.00,,,0.00,0,MyOwnSoftware,2013-02-19 01:58:00,
2013-02-19 01:59:00,35.2,30.3,30.18,WSW,248,2.0,3.0,82,0.00,,,0.00,0,MyOwnSoftware,2013-02-19 01:59:00,
2013-02-19 02:00:00,35.2,30.3,30.18,WSW,248,0.0,1.0,82,0.00,,,0.00,0,MyOwnSoftware,2013-02-19 02:00:00,
2013-02-19 02:01:00,35.2,30.3,30.18,WSW,248,0.0,1.0,82,0.00,,,0.00,0,MyOwnSoftware,2013-02-19 02:01:00,
2013-02-19 02:02:00,35.2,30.3,30.18,North,0,0.0,0.0,82,0.00,,,0.00,0,MyOwnSoftware,2013-02-19 02:02:00,
2013-02-19 02:03:00,35.2,30.3,30.18,WSW,248,0.0,2.0,82,0.00,,,0.00,0,MyOwnSoftware,2013-02-19 02:03:00,
2013-02-19 02:04:00,35.0,30.1,30.18,WSW,248,0.0,1.0,82,0.00,,,0.00,0,MyOwnSoftware,2013-02-19 02:04:00,
2013-02-19 02:05:00,35.0,30.1,30.18,North,0,0.0,0.0,82,0.00,,,0.00,0,MyOwnSoftware,2013-02-19 02:05:00,
2013-02-19 02:06:00,35.0,30.0,30.18,WSW,241,0.0,-999.0,82,-99.99,,,0.00,0,weatherlink.com 1.10,2013-02-19 02:06:00,
2013-02-19 02:07:00,35.0,30.1,30.18,WSW,248,0.0,1.0,82,0.00,,,0.00,0,MyOwnSoftware,2013-02-19 02:07:00,
2013-02-19 02:08:00,35.0,30.1,30.18,North,0,0.0,0.0,82,0.00,,,0.00,0,MyOwnSoftware,2013-02-19 02:08:00,
2013-02-19 02:09:00,35.0,30.1,30.18,WSW,248,0.0,1.0,82,0.00,,,0.00,0,MyOwnSoftware,2013-02-19 02:09:00,
2013-02-19 02:10:00,35.0,30.1,30.18,WSW,248,1.0,1.0,82,0.00,,,0.00,0,MyOwnSoftware,2013-02-19 02:10:00,
2013-02-19 02:11:00,35.0,30.1,30.18,WSW,248,1.0,2.0,82,0.00,,,0.00,0,MyOwnSoftware,2013-02-19 02:11:00,
2013-02-19 02:12:00,35.0,30.1,30.18,North,0,0.0,0.0,82,0.00,,,0.00,0,MyOwnSoftware,2013-02-19 02:12:00,
2013-02-19 02:13:00,34.9,30.0,30.18,WSW,248,0.0,1.0,82,0.00,,,0.00,0,MyOwnSoftware,2013-02-19 02:13:00,
2013-02-19 02:14:00,34.9,30.0,30.18,WSW,248,0.0,1.0,82,0.00,,,0.00,0,MyOwnSoftware,2013-02-19 02:14:00,
2013-02-19 02:15:00,34.9,30.0,30.18,North,0,0.0,0.0,82,0.00,,,0.00,0,MyOwnSoftware,2013-02-19 02:15:00,
2013-02-19 02:16:00,34.9,30.0,30.18,WSW,248,0.0,1.0,82,0.00,,,0.00,0,MyOwnSoftware,2013-02-19 02:16:00,
2013-02-19 02:17:00,34.9,30.0,30.18,WSW,248,0.0,1.0,82,0.00,,,0.00,0,MyOwnSoftware,2013-02-19 02:17:00,
2013-02-19 02:18:00,34.9,30.0,30.18,WSW,248,1.0,2.0,82,0.00,,,0.00,0,MyOwnSoftware,2013-02-19 02:18:00,
2013-02-19 02:19:00,34.9,30.0,30.18,WSW,248,0.0,1.0,82,0.00,,,0.00,0,MyOwnSoftware,2013-02-19 02:19:00,
2013-02-19 02:20:00,34.9,30.0,30.18,WSW,248,1.0,3.0,82,0.00,,,0.00,0,MyOwnSoftware,2013-02-19 02:20:00,
2013-02-19 02:21:00,34.9,30.0,30.18,WSW,240,0.0,-999.0,82,-99.99,,,0.00,0,weatherlink.com 1.10,2013-02-19 02:21:00,
2013-02-19 02:22:00,34.9,30.0,30.18,WSW,248,1.0,2.0,82,0.00,,,0.00,0,MyOwnSoftware,2013-02-19 02:22:00,
2013-02-19 02:23:00,34.9,30.0,30.18,WSW,248,1.0,3.0,82,0.00,,,0.00,0,MyOwnSoftware,2013-02-19 02:23:00,
2013-02-19 02:24:00,34.9,30.0,30.18,WSW,248,1.0,2.0,82,0.00,,,0.00,0,MyOwnSoftware,2013-02-19 02:24:00,
2013-02-19 02:25:00,34.7,29.8,30.18,WSW,248,0.0,1.0,82,0.00,,,0.00,0,MyOwnSoftware,2013-02-19 02:25:00,
2013-02-19 02:26:00,34.7,29.8,30.18,WSW,248,1.0,2.0,82,0.00,,,0.00,0,MyOwnSoftware,2013-02-19 02:26:00,
2013-02-19 02:27:00,34.7,29.8,30.18,North,0,0.0,0.0,82,0.00,,,0.00,0,MyOwnSoftware,2013-02-19 02:27:00,
2013-02-19 02:28:00,34.7,29.8,30.18,North,0,0.0,0.0,82,0.00,,,0.00,0,MyOwnSoftware,2013-02-19 02:28:00,
2013-02-19 02:29:00,34.7,29.8,30.18,North,0,0.0,0.0,82,0.00,,,0.00,0,MyOwnSoftware,2013-02-19 02:29:00,
2013-02-19 02:30:00,34.7,29.8,30.18,North,0,0.0,0.0,82,0.00,,,0.00,0,MyOwnSoftware,2013-02-19 02:30:00,
2013-02-19 02:31:00,34.7,29.8,30.18,North,0,0.0,0.0,82,0.00,,,0.00,0,MyOwnSoftware,2013-02-19 02:31:00,
2013-02-19 02:32:00,34.7,29.8,30.18,North,0,0.0,0.0,82,0.00,,,0.00,0,MyOwnSoftware,2013-02-19 02:32:00,
2013-02-19 02:33:00,34.7,29.8,30.18,North,0,0.0,0.0,82,0.00,,,0.00,0,MyOwnSoftware,2013-02-19 02:33:00,
2013-02-19 02:34:00,34.7,29.8,30.18,North,0,0.0,0.0,82,0.00,,,0.00,0,MyOwnSoftware,2013-02-19 02:34:00,
2013-02-19 02:35:00,34.6,29.7,30.18,North,0,0.0,0.0,82,0.00,,,0.00,0,MyOwnSoftware,2013-02-19 02:35:00,
2013-02-19 02:36:00,34.6,30.0,30.18,WSW,239,0.0,-999.0,82,-99.99,,,0.00,0,weatherlink.com 1.10,2013-02-19 02:36:00,
2013-02-19 02:37:00,34.6,29.7,30.18,North,0,0.0,0.0,82,0.00,,,0.00,0,MyOwnSoftware,2013-02-19 02:37:00,
2013-02-19 02:38:00,34.6,29.7,30.18,North,0,0.0,0.0,82,0.00,,,0.00,0,MyOwnSoftware,2013-02-19 02:38:00,
2013-02-19 02:39:00,34.6,29.7,30.18,North,0,0.0,0.0,82,0.00,,,0.00,0,MyOwnSoftware,2013-02-19 02:39:00,
2013-02-19 02:40:00,34.6,29.7,30.18,North,0,0.0,0.0,82,0.00,,,0.00,0,MyOwnSoftware,2013-02-19 02:40:00,
2013-02-19 02:41:00,34.6,29.7,30.18,North,0,0.0,0.0,82,0.00,,,0.00,0,MyOwnSoftware,2013-02-19 02:41:00,
2013-02-19 02:42:00,34.4,29.5,30.18,North,0,0.0,0.0,82,0.00,,,0.00,0,MyOwnSoftware,2013-02-19 02:42:00,
2013-02-19 02:43:00,34.4,29.8,30.18,North,0,0.0,0.0,83,0.00,,,0.00,0,MyOwnSoftware,2013-02-19 02:43:00,
2013-02-19 02:44:00,34.4,29.8,30.18,North,0,0.0,0.0,83,0.00,,,0.00,0,MyOwnSoftware,2013-02-19 02:44:00,
2013-02-19 02:45:00,34.4,29.8,30.18,North,0,0.0,0.0,83,0.00,,,0.00,0,MyOwnSoftware,2013-02-19 02:45:00,
2013-02-19 02:46:00,34.4,29.8,30.18,North,0,0.0,0.0,83,0.00,,,0.00,0,MyOwnSoftware,2013-02-19 02:46:00,
2013-02-19 02:47:00,34.4,29.8,30.18,North,0,0.0,0.0,83,0.00,,,0.00,0,MyOwnSoftware,2013-02-19 02:47:00,
2013-02-19 02:48:00,34.4,29.8,30.18,North,0,0.0,0.0,83,0.00,,,0.00,0,MyOwnSoftware,2013-02-19 02:48:00,
2013-02-19 02:49:00,34.4,29.8,30.18,North,0,0.0,0.0,83,0.00,,,0.00,0,MyOwnSoftware,2013-02-19 02:49:00,
2013-02-19 02:50:00,34.4,29.8,30.18,North,0,0.0,0.0,83,0.00,,,0.00,0,MyOwnSoftware,2013-02-19 02:50:00,
2013-02-19 02:51:00,34.4,30.0,30.18,WSW,239,0.0,-999.0,83,-99.99,,,0.00,0,weatherlink.com 1.10,2013-02-19 02:51:00,
2013-02-19 02:52:00,34.4,29.8,30.18,North,0,0.0,0.0,83,0.00,,,0.00,0,MyOwnSoftware,2013-02-19 02:52:00,
2013-02-19 02:53:00,34.4,29.8,30.18,WSW,248,0.0,1.0,83,0.00,,,0.00,0,MyOwnSoftware,2013-02-19 02:53:00,
2013-02-19 02:54:00,34.4,30.1,30.18,WSW,248,0.0,1.0,84,0.00,,,0.00,0,MyOwnSoftware,2013-02-19 02:54:00,
2013-02-19 02:55:00,34.4,30.1,30.18,North,0,0.0,0.0,84,0.00,,,0.00,0,MyOwnSoftware,2013-02-19 02:55:00,
2013-02-19 02:56:00,34.4,30.1,30.18,WSW,248,1.0,1.0,84,0.00,,,0.00,0,MyOwnSoftware,2013-02-19 02:56:00,
2013-02-19 02:57:00,34.4,30.1,30.18,WSW,248,1.0,2.0,84,0.00,,,0.00,0,MyOwnSoftware,2013-02-19 02:57:00,
2013-02-19 02:58:00,34.4,30.1,30.18,WSW,248,1.0,2.0,84,0.00,,,0.00,0,MyOwnSoftware,2013-02-19 02:58:00,
2013-02-19 02:59:00,34.4,30.1,30.18,WSW,248,1.0,2.0,84,0.00,,,0.00,0,MyOwnSoftware,2013-02-19 02:59:00,
2013-02-19 03:00:00,34.4,30.1,30.18,North,0,0.0,0.0,84,0.00,,,0.00,0,MyOwnSoftware,2013-02-19 03:00:00,
2013-02-19 03:01:00,34.4,30.1,30.18,North,0,0.0,0.0,84,0.00,,,0.00,0,MyOwnSoftware,2013-02-19 03:01:00,
2013-02-19 03:02:00,34.4,30.1,30.18,WSW,248,0.0,1.0,84,0.00,,,0.00,0,MyOwnSoftware,2013-02-19 03:02:00,
2013-02-19 03:03:00,34.3,30.0,30.18,WSW,248,0.0,1.0,84,0.00,,,0.00,0,MyOwnSoftware,2013-02-19 03:03:00,
2013-02-19 03:04:00,34.3,30.0,30.18,WSW,248,0.0,1.0,84,0.00,,,0.00,0,MyOwnSoftware,2013-02-19 03:04:00,
2013-02-19 03:05:00,34.3,30.0,30.18,WSW,248,2.0,2.0,84,0.00,,,0.00,0,MyOwnSoftware,2013-02-19 03:05:00,
2013-02-19 03:06:00,34.3,30.0,30.18,WSW,237,0.0,-999.0,84,-99.99,,,0.00,0,weatherlink.com 1.10,2013-02-19 03:06:00,
2013-02-19 03:07:00,34.3,30.0,30.18,North,0,0.0,0.0,84,0.00,,,0.00,0,MyOwnSoftware,2013-02-19 03:07:00,
2013-02-19 03:08:00,34.3,30.0,30.18,North,0,0.0,0.0,84,0.00,,,0.00,0,MyOwnSoftware,2013-02-19 03:08:00,
2013-02-19 03:09:00,34.3,30.0,30.18,WSW,248,0.0,1.0,84,0.00,,,0.00,0,MyOwnSoftware,2013-02-19 03:09:00,
2013-02-19 03:10:00,34.1,29.8,30.18,WSW,248,0.0,1.0,84,0.00,,,0.00,0,MyOwnSoftware,2013-02-19 03:10:00,
2013-02-19 03:11:00,34.1,29.8,30.18,WSW,248,0.0,1.0,84,0.00,,,0.00,0,MyOwnSoftware,2013-02-19 03:11:00,
2013-02-19 03:12:00,34.1,29.8,30.18,WSW,248,0.0,1.0,84,0.00,,,0.00,0,MyOwnSoftware,2013-02-19 03:12:00,
2013-02-19 03:13:00,34.1,29.8,30.18,WSW,248,0.0,1.0,84,0.00,,,0.00,0,MyOwnSoftware,2013-02-19 03:13:00,
2013-02-19 03:14:00,34.1,29.8,30.18,North,0,0.0,0.0,84,0.00,,,0.00,0,MyOwnSoftware,2013-02-19 03:14:00,
2013-02-19 03:15:00,34.1,29.8,30.18,North,0,0.0,0.0,84,0.00,,,0.00,0,MyOwnSoftware,2013-02-19 03:15:00,
2013-02-19 03:16:00,34.1,29.8,30.18,North,0,0.0,0.0,84,0.00,,,0.00,0,MyOwnSoftware,2013-02-19 03:16:00,
2013-02-19 03:17:00,34.1,29.8,30.18,North,0,0.0,0.0,84,0.00,,,0.00,0,MyOwnSoftware,2013-02-19 03:17:00,
2013-02-19 03:18:00,34.0,29.7,30.18,North,0,0.0,0.0,84,0.00,,,0.00,0,MyOwnSoftware,2013-02-19 03:18:00,
2013-02-19 03:19:00,34.0,29.7,30.18,North,0,0.0,0.0,84,0.00,,,0.00,0,MyOwnSoftware,2013-02-19 03:19:00,
2013-02-19 03:20:00,34.0,29.7,30.18,North,0,0.0,0.0,84,0.00,,,0.00,0,MyOwnSoftware,2013-02-19 03:20:00,
2013-02-19 03:21:00,34.0,30.0,30.18,WSW,237,0.0,-999.0,84,-99.99,,,0.00,0,weatherlink.com 1.10,2013-02-19 03:21:00,
2013-02-19 03:22:00,34.0,29.7,30.18,WSW,248,0.0,2.0,84,0.00,,,0.00,0,MyOwnSoftware,2013-02-19 03:22:00,
2013-02-19 03:23:00,33.8,29.8,30.18,WSW,248,1.0,1.0,85,0.00,,,0.00,0,MyOwnSoftware,2013-02-19 03:23:00,
2013-02-19 03:24:00,33.8,29.5,30.18,WSW,248,0.0,1.0,84,0.00,,,0.00,0,MyOwnSoftware,2013-02-19 03:24:00,
2013-02-19 03:25:00,33.8,29.8,30.18,WSW,248,0.0,1.0,85,0.00,,,0.00,0,MyOwnSoftware,2013-02-19 03:25:00,
2013-02-19 03:26:00,33.8,29.8,30.18,WSW,248,0.0,1.0,85,0.00,,,0.00,0,MyOwnSoftware,2013-02-19 03:26:00,
2013-02-19 03:27:00,33.8,29.8,30.18,WSW,248,1.0,2.0,85,0.00,,,0.00,0,MyOwnSoftware,2013-02-19 03:27:00,
2013-02-19 03:28:00,33.8,29.8,30.18,WSW,248,0.0,1.0,85,0.00,,,0.00,0,MyOwnSoftware,2013-02-19 03:28:00,
2013-02-19 03:29:00,33.7,29.7,30.18,WSW,248,1.0,2.0,85,0.00,,,0.00,0,MyOwnSoftware,2013-02-19 03:29:00,
2013-02-19 03:30:00,33.7,29.7,30.18,WSW,248,0.0,1.0,85,0.00,,,0.00,0,MyOwnSoftware,2013-02-19 03:30:00,
2013-02-19 03:31:00,33.7,29.7,30.18,West,270,0.0,1.0,85,0.00,,,0.00,0,MyOwnSoftware,2013-02-19 03:31:00,
2013-02-19 03:32:00,33.7,29.7,30.18,West,270,0.0,1.0,85,0.00,,,0.00,0,MyOwnSoftware,2013-02-19 03:32:00,
2013-02-19 03:33:00,33.7,29.7,30.18,West,270,0.0,1.0,85,0.00,,,0.00,0,MyOwnSoftware,2013-02-19 03:33:00,
2013-02-19 03:34:00,33.7,29.7,30.18,West,270,0.0,1.0,85,0.00,,,0.00,0,MyOwnSoftware,2013-02-19 03:34:00,
2013-02-19 03:35:00,33.7,29.7,30.18,West,270,0.0,1.0,85,0.00,,,0.00,0,MyOwnSoftware,2013-02-19 03:35:00,
2013-02-19 03:36:00,33.7,30.0,30.18,SW,229,0.0,-999.0,85,-99.99,,,0.00,0,weatherlink.com 1.10,2013-02-19 03:36:00,
2013-02-19 03:37:00,33.7,29.7,30.18,North,0,0.0,0.0,85,0.00,,,0.00,0,MyOwnSoftware,2013-02-19 03:37:00,
2013-02-19 03:38:00,33.7,29.7,30.18,SW,225,0.0,1.0,85,0.00,,,0.00,0,MyOwnSoftware,2013-02-19 03:38:00,
2013-02-19 03:39:00,33.7,29.7,30.18,SW,225,1.0,2.0,85,0.00,,,0.00,0,MyOwnSoftware,2013-02-19 03:39:00,
2013-02-19 03:40:00,33.7,29.7,30.18,SW,225,0.0,1.0,85,0.00,,,0.00,0,MyOwnSoftware,2013-02-19 03:40:00,
2013-02-19 03:41:00,33.5,29.5,30.18,SW,225,0.0,1.0,85,0.00,,,0.00,0,MyOwnSoftware,2013-02-19 03:41:00,
2013-02-19 03:42:00,33.5,29.5,30.18,SW,225,0.0,1.0,85,0.00,,,0.00,0,MyOwnSoftware,2013-02-19 03:42:00,
2013-02-19 03:43:00,33.5,29.5,30.18,SW,225,2.0,2.0,85,0.00,,,0.00,0,MyOwnSoftware,2013-02-19 03:43:00,
2013-02-19 03:44:00,33.5,29.8,30.18,SW,225,1.0,2.0,86,0.00,,,0.00,0,MyOwnSoftware,2013-02-19 03:44:00,
2013-02-19 03:45:00,33.5,29.8,30.18,SW,225,0.0,1.0,86,0.00,,,0.00,0,MyOwnSoftware,2013-02-19 03:45:00,
2013-02-19 03:46:00,33.5,29.8,30.18,North,0,0.0,0.0,86,0.00,,,0.00,0,MyOwnSoftware,2013-02-19 03:46:00,
2013-02-19 03:47:00,33.5,29.8,30.18,North,0,0.0,0.0,86,0.00,,,0.00,0,MyOwnSoftware,2013-02-19 03:47:00,
2013-02-19 03:48:00,33.5,29.8,30.18,North,0,0.0,0.0,86,0.00,,,0.00,0,MyOwnSoftware,2013-02-19 03:48:00,
2013-02-19 03:49:00,33.5,29.8,30.18,North,0,0.0,0.0,86,0.00,,,0.00,0,MyOwnSoftware,2013-02-19 03:49:00,
2013-02-19 03:50:00,33.5,29.8,30.18,SW,225,0.0,1.0,86,0.00,,,0.00,0,MyOwnSoftware,2013-02-19 03:50:00,
2013-02-19 03:51:00,33.5,30.0,30.18,SW,224,0.0,-999.0,86,-99.99,,,0.00,0,weatherlink.com 1.10,2013-02-19 03:51:00,
2013-02-19 03:52:00,33.5,29.8,30.18,North,0,0.0,0.0,86,0.00,,,0.00,0,MyOwnSoftware,2013-02-19 03:52:00,
2013-02-19 03:53:00,33.5,29.8,30.18,SW,225,0.0,1.0,86,0.00,,,0.00,0,MyOwnSoftware,2013-02-19 03:53:00,
2013-02-19 03:54:00,33.5,29.8,30.18,SW,225,0.0,1.0,86,0.00,,,0.00,0,MyOwnSoftware,2013-02-19 03:54:00,
2013-02-19 03:55:00,33.5,29.8,30.18,SW,225,0.0,1.0,86,0.00,,,0.00,0,MyOwnSoftware,2013-02-19 03:55:00,
2013-02-19 03:56:00,33.5,29.8,30.18,North,0,0.0,0.0,86,0.00,,,0.00,0,MyOwnSoftware,2013-02-19 03:56:00,
2013-02-19 03:57:00,33.5,29.8,30.18,North,0,0.0,0.0,86,0.00,,,0.00,0,MyOwnSoftware,2013-02-19 03:57:00,
2013-02-19 03:58:00,33.5,29.8,30.18,North,0,0.0,0.0,86,0.00,,,0.00,0,MyOwnSoftware,2013-02-19 03:58:00,
2013-02-19 03:59:00,33.5,29.8,30.18,North,0,0.0,0.0,86,0.00,,,0.00,0,MyOwnSoftware,2013-02-19 03:59:00,
2013-02-19 04:00:00,33.5,29.8,30.18,North,0,0.0,0.0,86,0.00,,,0.00,0,MyOwnSoftware,2013-02-19 04:00:00,
2013-02-19 04:01:00,33.5,29.8,30.18,North,0,0.0,0.0,86,0.00,,,0.00,0,MyOwnSoftware,2013-02-19 04:01:00,
2013-02-19 04:02:00,33.4,29.7,30.18,North,0,0.0,0.0,86,0.00,,,0.00,0,MyOwnSoftware,2013-02-19 04:02:00,
2013-02-19 04:03:00,33.4,29.7,30.18,North,0,0.0,0.0,86,0.00,,,0.00,0,MyOwnSoftware,2013-02-19 04:03:00,
2013-02-19 04:04:00,33.4,29.7,30.18,North,0,0.0,0.0,86,0.00,,,0.00,0,MyOwnSoftware,2013-02-19 04:04:00,
2013-02-19 04:05:00,33.4,29.7,30.18,North,0,0.0,0.0,86,0.00,,,0.00,0,MyOwnSoftware,2013-02-19 04:05:00,
2013-02-19 04:06:00,33.4,30.0,30.18,SW,224,0.0,-999.0,86,-99.99,,,0.00,0,weatherlink.com 1.10,2013-02-19 04:06:00,
2013-02-19 04:07:00,33.4,29.7,30.18,North,0,0.0,0.0,86,0.00,,,0.00,0,MyOwnSoftware,2013-02-19 04:07:00,
2013-02-19 04:08:00,33.2,29.5,30.18,North,0,0.0,0.0,86,0.00,,,0.00,0,MyOwnSoftware,2013-02-19 04:08:00,
2013-02-19 04:09:00,33.2,29.5,30.18,North,0,0.0,0.0,86,0.00,,,0.00,0,MyOwnSoftware,2013-02-19 04:09:00,
2013-02-19 04:10:00,33.2,29.5,30.18,North,0,0.0,0.0,86,0.00,,,0.00,0,MyOwnSoftware,2013-02-19 04:10:00,
2013-02-19 04:11:00,33.2,29.5,30.18,North,0,0.0,0.0,86,0.00,,,0.00,0,MyOwnSoftware,2013-02-19 04:11:00,
2013-02-19 04:12:00,33.2,29.5,30.18,North,0,0.0,0.0,86,0.00,,,0.00,0,MyOwnSoftware,2013-02-19 04:12:00,
2013-02-19 04:13:00,33.2,29.8,30.18,North,0,0.0,0.0,87,0.00,,,0.00,0,MyOwnSoftware,2013-02-19 04:13:00,
2013-02-19 04:14:00,33.2,29.8,30.18,North,0,0.0,0.0,87,0.00,,,0.00,0,MyOwnSoftware,2013-02-19 04:14:00,
2013-02-19 04:15:00,33.2,29.8,30.18,North,0,0.0,0.0,87,0.00,,,0.00,0,MyOwnSoftware,2013-02-19 04:15:00,
2013-02-19 04:16:00,33.2,29.8,30.18,North,0,0.0,0.0,87,0.00,,,0.00,0,MyOwnSoftware,2013-02-19 04:16:00,
2013-02-19 04:17:00,33.2,29.8,30.18,North,0,0.0,0.0,87,0.00,,,0.00,0,MyOwnSoftware,2013-02-19 04:17:00,
2013-02-19 04:18:00,33.2,29.8,30.18,North,0,0.0,0.0,87,0.00,,,0.00,0,MyOwnSoftware,2013-02-19 04:18:00,
2013-02-19 04:19:00,33.2,29.8,30.18,North,0,0.0,0.0,87,0.00,,,0.00,0,MyOwnSoftware,2013-02-19 04:19:00,
2013-02-19 04:20:00,33.2,29.8,30.18,North,0,0.0,0.0,87,0.00,,,0.00,0,MyOwnSoftware,2013-02-19 04:20:00,
2013-02-19 04:21:00,33.2,29.8,30.18,North,0,0.0,0.0,87,0.00,,,0.00,0,MyOwnSoftware,2013-02-19 04:21:00,
2013-02-19 04:22:00,33.2,29.8,30.18,North,0,0.0,0.0,87,0.00,,,0.00,0,MyOwnSoftware,2013-02-19 04:22:00,
2013-02-19 04:23:00,33.1,29.7,30.18,North,0,0.0,0.0,87,0.00,,,0.00,0,MyOwnSoftware,2013-02-19 04:23:00,
2013-02-19 04:24:00,33.1,29.7,30.18,North,0,0.0,0.0,87,0.00,,,0.00,0,MyOwnSoftware,2013-02-19 04:24:00,
2013-02-19 04:25:00,33.1,29.7,30.18,North,0,0.0,0.0,87,0.00,,,0.00,0,MyOwnSoftware,2013-02-19 04:25:00,
2013-02-19 04:26:00,33.1,29.9,30.18,North,0,0.0,0.0,88,0.00,,,0.00,0,MyOwnSoftware,2013-02-19 04:26:00,
2013-02-19 04:27:00,33.1,29.9,30.18,North,0,0.0,0.0,88,0.00,,,0.00,0,MyOwnSoftware,2013-02-19 04:27:00,
2013-02-19 04:28:00,33.1,29.9,30.18,North,0,0.0,0.0,88,0.00,,,0.00,0,MyOwnSoftware,2013-02-19 04:28:00,
2013-02-19 04:29:00,33.1,29.9,30.18,North,0,0.0,0.0,88,0.00,,,0.00,0,MyOwnSoftware,2013-02-19 04:29:00,
2013-02-19 04:30:00,33.1,29.9,30.18,North,0,0.0,0.0,88,0.00,,,0.00,0,MyOwnSoftware,2013-02-19 04:30:00,
2013-02-19 04:31:00,33.1,29.9,30.18,North,0,0.0,0.0,88,0.00,,,0.00,0,MyOwnSoftware,2013-02-19 04:31:00,
2013-02-19 04:32:00,33.1,29.9,30.18,North,0,0.0,0.0,88,0.00,,,0.00,0,MyOwnSoftware,2013-02-19 04:32:00,
2013-02-19 04:33:00,33.1,29.9,30.18,North,0,0.0,0.0,88,0.00,,,0.00,0,MyOwnSoftware,2013-02-19 04:33:00,
2013-02-19 04:34:00,33.1,29.9,30.18,North,0,0.0,0.0,88,0.00,,,0.00,0,MyOwnSoftware,2013-02-19 04:34:00,
2013-02-19 04:35:00,33.1,29.9,30.18,North,0,0.0,0.0,88,0.00,,,0.00,0,MyOwnSoftware,2013-02-19 04:35:00,
2013-02-19 04:36:00,33.1,30.0,30.18,SW,224,0.0,-999.0,88,-99.99,,,0.00,0,weatherlink.com 1.10,2013-02-19 04:36:00,
2013-02-19 04:37:00,33.1,29.9,30.18,North,0,0.0,0.0,88,0.00,,,0.00,0,MyOwnSoftware,2013-02-19 04:37:00,
2013-02-19 04:38:00,33.1,29.9,30.18,North,0,0.0,0.0,88,0.00,,,0.00,0,MyOwnSoftware,2013-02-19 04:38:00,
2013-02-19 04:39:00,33.1,29.9,30.18,North,0,0.0,0.0,88,0.00,,,0.00,0,MyOwnSoftware,2013-02-19 04:39:00,
2013-02-19 04:40:00,32.9,29.7,30.18,North,0,0.0,0.0,88,0.00,,,0.00,0,MyOwnSoftware,2013-02-19 04:40:00,
2013-02-19 04:41:00,32.9,30.0,30.18,SW,225,0.0,1.0,89,0.00,,,0.00,0,MyOwnSoftware,2013-02-19 04:41:00,
2013-02-19 04:42:00,32.9,30.0,30.18,North,0,0.0,0.0,89,0.00,,,0.00,0,MyOwnSoftware,2013-02-19 04:42:00,
2013-02-19 04:43:00,32.9,30.0,30.18,North,0,0.0,0.0,89,0.00,,,0.00,0,MyOwnSoftware,2013-02-19 04:43:00,
2013-02-19 04:44:00,32.9,30.0,30.18,North,0,0.0,0.0,89,0.00,,,0.00,0,MyOwnSoftware,2013-02-19 04:44:00,
2013-02-19 04:45:00,32.9,30.0,30.18,North,0,0.0,0.0,89,0.00,,,0.00,0,MyOwnSoftware,2013-02-19 04:45:00,
2013-02-19 04:46:00,32.9,30.0,30.18,North,0,0.0,0.0,89,0.00,,,0.00,0,MyOwnSoftware,2013-02-19 04:46:00,
2013-02-19 04:47:00,32.9,30.0,30.18,North,0,0.0,0.0,89,0.00,,,0.00,0,MyOwnSoftware,2013-02-19 04:47:00,
2013-02-19 04:48:00,32.9,30.0,30.18,North,0,0.0,0.0,89,0.00,,,0.00,0,MyOwnSoftware,2013-02-19 04:48:00,
2013-02-19 04:49:00,32.9,30.0,30.18,SW,225,0.0,1.0,89,0.00,,,0.00,0,MyOwnSoftware,2013-02-19 04:49:00,
2013-02-19 04:50:00,32.9,30.0,30.18,North,0,0.0,0.0,89,0.00,,,0.00,0,MyOwnSoftware,2013-02-19 04:50:00,
2013-02-19 04:51:00,32.9,30.0,30.18,SW,224,0.0,-999.0,89,-99.99,,,0.00,0,weatherlink.com 1.10,2013-02-19 04:51:00,
2013-02-19 04:52:00,32.9,30.0,30.18,North,0,0.0,0.0,89,0.00,,,0.00,0,MyOwnSoftware,2013-02-19 04:52:00,
2013-02-19 04:53:00,32.8,29.9,30.18,North,0,0.0,0.0,89,0.00,,,0.00,0,MyOwnSoftware,2013-02-19 04:53:00,
2013-02-19 04:54:00,32.8,30.2,30.18,North,0,0.0,0.0,90,0.00,,,0.00,0,MyOwnSoftware,2013-02-19 04:54:00,
2013-02-19 04:55:00,32.8,30.2,30.18,North,0,0.0,0.0,90,0.00,,,0.00,0,MyOwnSoftware,2013-02-19 04:55:00,
2013-02-19 04:56:00,32.8,30.2,30.18,North,0,0.0,0.0,90,0.00,,,0.00,0,MyOwnSoftware,2013-02-19 04:56:00,
2013-02-19 04:57:00,32.8,30.2,30.18,SW,225,1.0,2.0,90,0.00,,,0.00,0,MyOwnSoftware,2013-02-19 04:57:00,
2013-02-19 04:58:00,32.8,30.2,30.18,SW,225,0.0,1.0,90,0.00,,,0.00,0,MyOwnSoftware,2013-02-19 04:58:00,
2013-02-19 04:59:00,32.8,30.2,30.18,SW,225,0.0,1.0,90,0.00,,,0.00,0,MyOwnSoftware,2013-02-19 04:59:00,
2013-02-19 05:00:00,32.8,30.2,30.18,North,0,0.0,0.0,90,0.00,,,0.00,0,MyOwnSoftware,2013-02-19 05:00:00,
2013-02-19 05:01:00,32.8,30.2,30.18,North,0,0.0,0.0,90,0.00,,,0.00,0,MyOwnSoftware,2013-02-19 05:01:00,
2013-02-19 05:02:00,32.8,30.2,30.18,North,0,0.0,0.0,90,0.00,,,0.00,0,MyOwnSoftware,2013-02-19 05:02:00,
2013-02-19 05:03:00,32.8,30.5,30.18,North,0,0.0,0.0,91,0.00,,,0.00,0,MyOwnSoftware,2013-02-19 05:03:00,
2013-02-19 05:04:00,32.8,30.5,30.18,North,0,0.0,0.0,91,0.00,,,0.00,0,MyOwnSoftware,2013-02-19 05:04:00,
2013-02-19 05:05:00,32.8,30.5,30.18,SW,225,0.0,1.0,91,0.00,,,0.00,0,MyOwnSoftware,2013-02-19 05:05:00,
2013-02-19 05:06:00,32.8,31.0,30.18,SW,224,0.0,-999.0,91,-99.99,,,0.00,0,weatherlink.com 1.10,2013-02-19 05:06:00,
2013-02-19 05:07:00,32.8,30.5,30.18,SW,225,0.0,1.0,91,0.00,,,0.00,0,MyOwnSoftware,2013-02-19 05:07:00,
2013-02-19 05:08:00,32.8,30.5,30.18,North,0,0.0,0.0,91,0.00,,,0.00,0,MyOwnSoftware,2013-02-19 05:08:00,
2013-02-19 05:09:00,32.8,30.5,30.18,North,0,0.0,0.0,91,0.00,,,0.00,0,MyOwnSoftware,2013-02-19 05:09:00,
2013-02-19 05:10:00,32.9,30.6,30.18,North,0,0.0,0.0,91,0.00,,,0.00,0,MyOwnSoftware,2013-02-19 05:10:00,
2013-02-19 05:11:00,32.9,30.6,30.18,SW,225,0.0,1.0,91,0.00,,,0.00,0,MyOwnSoftware,2013-02-19 05:11:00,
2013-02-19 05:12:00,32.9,30.6,30.18,SW,225,0.0,1.0,91,0.00,,,0.00,0,MyOwnSoftware,2013-02-19 05:12:00,
2013-02-19 05:13:00,32.9,30.6,30.18,SW,225,0.0,1.0,91,0.00,,,0.00,0,MyOwnSoftware,2013-02-19 05:13:00,
2013-02-19 05:14:00,32.9,30.6,30.18,North,0,0.0,0.0,91,0.00,,,0.00,0,MyOwnSoftware,2013-02-19 05:14:00,
2013-02-19 05:15:00,32.9,30.6,30.18,SW,225,0.0,1.0,91,0.00,,,0.00,0,MyOwnSoftware,2013-02-19 05:15:00,
2013-02-19 05:16:00,32.9,30.6,30.18,North,0,0.0,0.0,91,0.00,,,0.00,0,MyOwnSoftware,2013-02-19 05:16:00,
2013-02-19 05:17:00,32.9,30.6,30.18,North,0,0.0,0.0,91,0.00,,,0.00,0,MyOwnSoftware,2013-02-19 05:17:00,
2013-02-19 05:18:00,32.9,30.6,30.18,SW,225,0.0,1.0,91,0.00,,,0.00,0,MyOwnSoftware,2013-02-19 05:18:00,
2013-02-19 05:19:00,32.9,30.6,30.18,SW,225,1.0,2.0,91,0.00,,,0.00,0,MyOwnSoftware,2013-02-19 05:19:00,
2013-02-19 05:20:00,32.9,30.6,30.18,SW,225,1.0,1.0,91,0.00,,,0.00,0,MyOwnSoftware,2013-02-19 05:20:00,
2013-02-19 05:21:00,33.1,31.0,30.18,SW,229,1.0,-999.0,91,-99.99,,,0.00,0,weatherlink.com 1.10,2013-02-19 05:21:00,
2013-02-19 05:22:00,33.1,30.8,30.18,SW,225,1.0,2.0,91,0.00,,,0.00,0,MyOwnSoftware,2013-02-19 05:22:00,
2013-02-19 05:23:00,33.1,30.8,30.18,SW,225,1.0,2.0,91,0.00,,,0.00,0,MyOwnSoftware,2013-02-19 05:23:00,
2013-02-19 05:24:00,33.1,30.8,30.18,SW,225,0.0,2.0,91,0.00,,,0.00,0,MyOwnSoftware,2013-02-19 05:24:00,
2013-02-19 05:25:00,33.1,30.8,30.18,SW,225,0.0,1.0,91,0.00,,,0.00,0,MyOwnSoftware,2013-02-19 05:25:00,
2013-02-19 05:26:00,33.1,30.8,30.18,North,0,0.0,0.0,91,0.00,,,0.00,0,MyOwnSoftware,2013-02-19 05:26:00,
2013-02-19 05:27:00,33.1,30.8,30.18,SW,225,0.0,2.0,91,0.00,,,0.00,0,MyOwnSoftware,2013-02-19 05:27:00,
2013-02-19 05:28:00,33.1,30.8,30.18,SW,225,1.0,2.0,91,0.00,,,0.00,0,MyOwnSoftware,2013-02-19 05:28:00,
2013-02-19 05:29:00,33.1,30.8,30.18,SW,225,1.0,2.0,91,0.00,,,0.00,0,MyOwnSoftware,2013-02-19 05:29:00,
2013-02-19 05:30:00,33.1,30.8,30.18,SW,225,0.0,2.0,91,0.00,,,0.00,0,MyOwnSoftware,2013-02-19 05:30:00,
2013-02-19 05:31:00,33.1,30.8,30.18,SW,225,0.0,1.0,91,0.00,,,0.00,0,MyOwnSoftware,2013-02-19 05:31:00,
2013-02-19 05:32:00,33.1,30.8,30.18,SW,225,1.0,2.0,91,0.00,,,0.00,0,MyOwnSoftware,2013-02-19 05:32:00,
2013-02-19 05:33:00,33.1,30.8,30.18,SW,225,1.0,2.0,91,0.00,,,0.00,0,MyOwnSoftware,2013-02-19 05:33:00,
2013-02-19 05:34:00,32.9,30.6,30.18,SW,225,1.0,2.0,91,0.00,,,0.00,0,MyOwnSoftware,2013-02-19 05:34:00,
2013-02-19 05:35:00,32.9,30.6,30.18,SW,225,0.0,1.0,91,0.00,,,0.00,0,MyOwnSoftware,2013-02-19 05:35:00,
2013-02-19 05:36:00,32.9,31.0,30.18,SW,229,0.0,-999.0,91,-99.99,,,0.00,0,weatherlink.com 1.10,2013-02-19 05:36:00,
2013-02-19 05:37:00,32.9,30.6,30.18,North,0,0.0,0.0,91,0.00,,,0.00,0,MyOwnSoftware,2013-02-19 05:37:00,
2013-02-19 05:38:00,32.9,30.6,30.18,North,0,0.0,0.0,91,0.00,,,0.00,0,MyOwnSoftware,2013-02-19 05:38:00,
2013-02-19 05:39:00,32.9,30.6,30.18,North,0,0.0,0.0,91,0.00,,,0.00,0,MyOwnSoftware,2013-02-19 05:39:00,
2013-02-19 05:40:00,32.9,30.6,30.18,North,0,0.0,0.0,91,0.00,,,0.00,0,MyOwnSoftware,2013-02-19 05:40:00,
2013-02-19 05:41:00,32.9,30.6,30.18,North,0,0.0,0.0,91,0.00,,,0.00,0,MyOwnSoftware,2013-02-19 05:41:00,
2013-02-19 05:42:00,32.9,30.6,30.18,North,0,0.0,0.0,91,0.00,,,0.00,0,MyOwnSoftware,2013-02-19 05:42:00,
2013-02-19 05:43:00,32.8,30.5,30.18,North,0,0.0,0.0,91,0.00,,,0.00,0,MyOwnSoftware,2013-02-19 05:43:00,
2013-02-19 05:44:00,32.8,30.5,30.18,North,0,0.0,0.0,91,0.00,,,0.00,0,MyOwnSoftware,2013-02-19 05:44:00,
2013-02-19 05:45:00,32.8,30.5,30.18,North,0,0.0,0.0,91,0.00,,,0.00,0,MyOwnSoftware,2013-02-19 05:45:00,
2013-02-19 05:46:00,32.8,30.5,30.18,North,0,0.0,0.0,91,0.00,,,0.00,0,MyOwnSoftware,2013-02-19 05:46:00,
2013-02-19 05:47:00,32.7,30.4,30.18,North,0,0.0,0.0,91,0.00,,,0.00,0,MyOwnSoftware,2013-02-19 05:47:00,
2013-02-19 05:48:00,32.7,30.4,30.18,North,0,0.0,0.0,91,0.00,,,0.00,0,MyOwnSoftware,2013-02-19 05:48:00,
2013-02-19 05:49:00,32.7,30.4,30.18,SW,225,0.0,1.0,91,0.00,,,0.00,0,MyOwnSoftware,2013-02-19 05:49:00,
2013-02-19 05:50:00,32.7,30.4,30.18,North,0,0.0,0.0,91,0.00,,,0.00,0,MyOwnSoftware,2013-02-19 05:50:00,
2013-02-19 05:51:00,32.7,30.0,30.18,SW,229,0.0,-999.0,91,-99.99,,,0.00,0,weatherlink.com 1.10,2013-02-19 05:51:00,
2013-02-19 05:52:00,32.7,30.4,30.18,North,0,0.0,0.0,91,0.00,,,0.00,0,MyOwnSoftware,2013-02-19 05:52:00,
2013-02-19 05:53:00,32.7,30.4,30.18,North,0,0.0,0.0,91,0.00,,,0.00,0,MyOwnSoftware,2013-02-19 05:53:00,
2013-02-19 05:54:00,32.5,30.2,30.18,SW,225,0.0,1.0,91,0.00,,,0.00,0,MyOwnSoftware,2013-02-19 05:54:00,
2013-02-19 05:55:00,32.5,30.2,30.18,SW,225,1.0,3.0,91,0.00,,,0.00,0,MyOwnSoftware,2013-02-19 05:55:00,
2013-02-19 05:56:00,32.5,30.2,30.18,SW,225,1.0,2.0,91,0.00,,,0.00,0,MyOwnSoftware,2013-02-19 05:56:00,
2013-02-19 05:57:00,32.5,30.2,30.18,SW,225,0.0,1.0,91,0.00,,,0.00,0,MyOwnSoftware,2013-02-19 05:57:00,
2013-02-19 05:58:00,32.5,30.2,30.18,SW,225,1.0,2.0,91,0.00,,,0.00,0,MyOwnSoftware,2013-02-19 05:58:00,
2013-02-19 05:59:00,32.5,30.2,30.18,SW,225,0.0,1.0,91,0.00,,,0.00,0,MyOwnSoftware,2013-02-19 05:59:00,
2013-02-19 06:00:00,32.5,30.2,30.18,SW,225,1.0,1.0,91,0.00,,,0.00,0,MyOwnSoftware,2013-02-19 06:00:00,
2013-02-19 06:01:00,32.5,30.4,30.18,SW,225,0.0,1.0,92,0.00,,,0.00,0,MyOwnSoftware,2013-02-19 06:01:00,
2013-02-19 06:02:00,32.5,30.4,30.18,North,0,0.0,0.0,92,0.00,,,0.00,0,MyOwnSoftware,2013-02-19 06:02:00,
2013-02-19 06:03:00,32.5,30.4,30.18,SW,225,0.0,1.0,92,0.00,,,0.00,0,MyOwnSoftware,2013-02-19 06:03:00,
2013-02-19 06:04:00,32.5,30.4,30.18,North,0,0.0,0.0,92,0.00,,,0.00,0,MyOwnSoftware,2013-02-19 06:04:00,
2013-02-19 06:05:00,32.5,30.4,30.18,North,0,0.0,0.0,92,0.00,,,0.00,0,MyOwnSoftware,2013-02-19 06:05:00,
2013-02-19 06:06:00,32.5,31.0,30.18,SW,226,0.0,-999.0,92,-99.99,,,0.00,0,weatherlink.com 1.10,2013-02-19 06:06:00,
2013-02-19 06:07:00,32.5,30.4,30.18,North,0,0.0,0.0,92,0.00,,,0.00,0,MyOwnSoftware,2013-02-19 06:07:00,
2013-02-19 06:08:00,32.5,30.4,30.18,North,0,0.0,0.0,92,0.00,,,0.00,0,MyOwnSoftware,2013-02-19 06:08:00,
2013-02-19 06:09:00,32.5,30.4,30.18,North,0,0.0,0.0,92,0.00,,,0.00,0,MyOwnSoftware,2013-02-19 06:09:00,
2013-02-19 06:10:00,32.5,30.4,30.18,SW,225,0.0,1.0,92,0.00,,,0.00,0,MyOwnSoftware,2013-02-19 06:10:00,
2013-02-19 06:11:00,32.4,30.3,30.18,SW,225,0.0,1.0,92,0.00,,,0.00,0,MyOwnSoftware,2013-02-19 06:11:00,
2013-02-19 06:12:00,32.4,30.3,30.18,SW,225,0.0,1.0,92,0.00,,,0.00,0,MyOwnSoftware,2013-02-19 06:12:00,
2013-02-19 06:13:00,32.4,30.3,30.18,North,0,0.0,0.0,92,0.00,,,0.00,0,MyOwnSoftware,2013-02-19 06:13:00,
2013-02-19 06:14:00,32.4,30.3,30.18,North,0,0.0,0.0,92,0.00,,,0.00,0,MyOwnSoftware,2013-02-19 06:14:00,
2013-02-19 06:15:00,32.4,30.3,30.18,North,0,0.0,0.0,92,0.00,,,0.00,0,MyOwnSoftware,2013-02-19 06:15:00,
2013-02-19 06:16:00,32.4,30.3,30.18,SW,225,0.0,1.0,92,0.00,,,0.00,0,MyOwnSoftware,2013-02-19 06:16:00,
2013-02-19 06:17:00,32.4,30.3,30.18,SW,225,0.0,1.0,92,0.00,,,0.00,0,MyOwnSoftware,2013-02-19 06:17:00,
2013-02-19 06:18:00,32.4,30.3,30.18,North,0,0.0,0.0,92,0.00,,,0.00,0,MyOwnSoftware,2013-02-19 06:18:00,
2013-02-19 06:19:00,32.4,30.3,30.18,North,0,0.0,0.0,92,0.00,,,0.00,0,MyOwnSoftware,2013-02-19 06:19:00,
2013-02-19 06:20:00,32.4,30.3,30.18,North,0,0.0,0.0,92,0.00,,,0.00,0,MyOwnSoftware,2013-02-19 06:20:00,
2013-02-19 06:21:00,32.4,30.0,30.18,SW,226,0.0,-999.0,92,-99.99,,,0.00,0,weatherlink.com 1.10,2013-02-19 06:21:00,
2013-02-19 06:22:00,32.4,30.3,30.18,North,0,0.0,0.0,92,0.00,,,0.00,0,MyOwnSoftware,2013-02-19 06:22:00,
2013-02-19 06:23:00,32.4,30.3,30.18,North,0,0.0,0.0,92,0.00,,,0.00,0,MyOwnSoftware,2013-02-19 06:23:00,
2013-02-19 06:24:00,32.2,30.1,30.18,North,0,0.0,0.0,92,0.00,,,0.00,0,MyOwnSoftware,2013-02-19 06:24:00,
2013-02-19 06:25:00,32.2,30.1,30.18,North,0,0.0,0.0,92,0.00,,,0.00,0,MyOwnSoftware,2013-02-19 06:25:00,
2013-02-19 06:26:00,32.2,30.1,30.18,North,0,0.0,0.0,92,0.00,,,0.00,0,MyOwnSoftware,2013-02-19 06:26:00,
2013-02-19 06:27:00,32.2,30.1,30.18,North,0,0.0,0.0,92,0.00,,,0.00,0,MyOwnSoftware,2013-02-19 06:27:00,
2013-02-19 06:28:00,32.2,30.1,30.18,SW,225,0.0,1.0,92,0.00,,,0.00,0,MyOwnSoftware,2013-02-19 06:28:00,
2013-02-19 06:29:00,32.2,30.1,30.18,SW,225,0.0,1.0,92,0.00,,,0.00,0,MyOwnSoftware,2013-02-19 06:29:00,
2013-02-19 06:30:00,32.2,30.1,30.18,North,0,0.0,0.0,92,0.00,,,0.00,0,MyOwnSoftware,2013-02-19 06:30:00,
2013-02-19 06:31:00,32.2,30.1,30.18,North,0,0.0,0.0,92,0.00,,,0.00,0,MyOwnSoftware,2013-02-19 06:31:00,
2013-02-19 06:32:00,32.2,30.1,30.18,North,0,0.0,0.0,92,0.00,,,0.00,0,MyOwnSoftware,2013-02-19 06:32:00,
2013-02-19 06:33:00,32.2,30.1,30.18,North,0,0.0,0.0,92,0.00,,,0.00,0,MyOwnSoftware,2013-02-19 06:33:00,
2013-02-19 06:34:00,32.2,30.1,30.18,North,0,0.0,0.0,92,0.00,,,0.00,0,MyOwnSoftware,2013-02-19 06:34:00,
2013-02-19 06:35:00,32.2,30.1,30.18,SW,225,0.0,1.0,92,0.00,,,0.00,0,MyOwnSoftware,2013-02-19 06:35:00,
2013-02-19 06:36:00,32.1,30.0,30.18,SW,226,0.0,-999.0,92,-99.99,,,0.00,0,weatherlink.com 1.10,2013-02-19 06:36:00,
2013-02-19 06:37:00,32.1,30.0,30.18,North,0,0.0,0.0,92,0.00,,,0.00,0,MyOwnSoftware,2013-02-19 06:37:00,
2013-02-19 06:38:00,32.1,30.0,30.18,North,0,0.0,0.0,92,0.00,,,0.00,0,MyOwnSoftware,2013-02-19 06:38:00,
2013-02-19 06:39:00,32.1,30.0,30.18,SW,225,0.0,1.0,92,0.00,,,0.00,0,MyOwnSoftware,2013-02-19 06:39:00,
2013-02-19 06:40:00,32.1,30.0,30.18,North,0,0.0,0.0,92,0.00,,,0.00,0,MyOwnSoftware,2013-02-19 06:40:00,
2013-02-19 06:41:00,32.1,30.0,30.18,North,0,0.0,0.0,92,0.00,,,0.00,0,MyOwnSoftware,2013-02-19 06:41:00,
2013-02-19 06:42:00,32.1,30.0,30.18,SW,225,1.0,2.0,92,0.00,,,0.00,0,MyOwnSoftware,2013-02-19 06:42:00,
2013-02-19 06:43:00,32.1,30.0,30.18,SW,225,2.0,3.0,92,0.00,,,0.00,0,MyOwnSoftware,2013-02-19 06:43:00,
2013-02-19 06:44:00,32.1,30.0,30.18,SW,225,2.0,3.0,92,0.00,,,0.00,0,MyOwnSoftware,2013-02-19 06:44:00,
2013-02-19 06:45:00,32.1,30.0,30.19,SSW,202,2.0,3.0,92,0.00,,,0.00,0,MyOwnSoftware,2013-02-19 06:45:00,
2013-02-19 06:49:00,32.1,30.0,30.19,SW,225,2.0,3.0,92,0.00,,,0.00,0,MyOwnSoftware,2013-02-19 06:49:00,
2013-02-19 06:50:00,32.1,30.0,30.19,SW,225,1.0,1.0,92,0.00,,,0.00,0,MyOwnSoftware,2013-02-19 06:50:00,
2013-02-19 06:51:00,32.1,30.0,30.19,SW,226,1.0,-999.0,92,-99.99,,,0.00,0,weatherlink.com 1.10,2013-02-19 06:51:00,
2013-02-19 06:52:00,32.1,30.0,30.19,SW,225,1.0,2.0,92,0.00,,,0.00,0,MyOwnSoftware,2013-02-19 06:52:00,
2013-02-19 06:53:00,32.1,30.0,30.19,SW,225,2.0,2.0,92,0.00,,,0.00,0,MyOwnSoftware,2013-02-19 06:53:00,
2013-02-19 06:54:00,32.1,30.0,30.19,SW,225,1.0,2.0,92,0.00,,,0.00,0,MyOwnSoftware,2013-02-19 06:54:00,
2013-02-19 06:55:00,32.2,30.1,30.19,SW,225,1.0,2.0,92,0.00,,,0.00,0,MyOwnSoftware,2013-02-19 06:55:00,
2013-02-19 06:56:00,32.2,30.1,30.19,SW,225,1.0,2.0,92,0.00,,,0.00,0,MyOwnSoftware,2013-02-19 06:56:00,
2013-02-19 06:57:00,32.2,30.1,30.19,SW,225,1.0,3.0,92,0.00,,,0.00,0,MyOwnSoftware,2013-02-19 06:57:00,
2013-02-19 06:58:00,32.2,30.1,30.19,SW,225,1.0,3.0,92,0.00,,,0.00,0,MyOwnSoftware,2013-02-19 06:58:00,
2013-02-19 06:59:00,32.2,30.1,30.19,SW,225,2.0,3.0,92,0.00,,,0.00,0,MyOwnSoftware,2013-02-19 06:59:00,
2013-02-19 07:00:00,32.2,30.1,30.19,SW,225,1.0,1.0,92,0.00,,,0.00,0,MyOwnSoftware,2013-02-19 07:00:00,
2013-02-19 07:01:00,32.2,30.1,30.19,SW,225,1.0,2.0,92,0.00,,,0.00,0,MyOwnSoftware,2013-02-19 07:01:00,
2013-02-19 07:02:00,32.2,30.1,30.19,SW,225,1.0,2.0,92,0.00,,,0.00,0,MyOwnSoftware,2013-02-19 07:02:00,
2013-02-19 07:03:00,32.2,30.1,30.19,SW,225,1.0,2.0,92,0.00,,,0.00,0,MyOwnSoftware,2013-02-19 07:03:00,
2013-02-19 07:04:00,32.2,30.1,30.19,SW,225,0.0,1.0,92,0.00,,,0.00,0,MyOwnSoftware,2013-02-19 07:04:00,
2013-02-19 07:05:00,32.2,30.1,30.19,North,0,0.0,0.0,92,0.00,,,0.00,0,MyOwnSoftware,2013-02-19 07:05:00,
2013-02-19 07:06:00,32.2,30.0,30.19,SW,217,0.0,-999.0,92,-99.99,,,0.00,0,weatherlink.com 1.10,2013-02-19 07:06:00,
2013-02-19 07:09:00,32.2,30.1,30.19,SW,225,0.0,1.0,92,0.00,,,0.00,0,MyOwnSoftware,2013-02-19 07:09:00,
2013-02-19 07:10:00,32.2,30.1,30.19,North,0,0.0,0.0,92,0.00,,,0.00,0,MyOwnSoftware,2013-02-19 07:10:00,
2013-02-19 07:11:00,32.2,30.1,30.19,North,0,0.0,0.0,92,0.00,,,0.00,0,MyOwnSoftware,2013-02-19 07:11:00,
2013-02-19 07:12:00,32.2,30.1,30.19,North,0,0.0,0.0,92,0.00,,,0.00,0,MyOwnSoftware,2013-02-19 07:12:00,
2013-02-19 07:13:00,32.2,30.1,30.19,North,0,0.0,0.0,92,0.00,,,0.00,0,MyOwnSoftware,2013-02-19 07:13:00,
2013-02-19 07:14:00,32.2,30.1,30.19,North,0,0.0,0.0,92,0.00,,,0.00,0,MyOwnSoftware,2013-02-19 07:14:00,
2013-02-19 07:15:00,32.2,30.1,30.19,North,0,0.0,0.0,92,0.00,,,0.00,0,MyOwnSoftware,2013-02-19 07:15:00,
2013-02-19 07:16:00,32.2,30.1,30.19,North,0,0.0,0.0,92,0.00,,,0.00,0,MyOwnSoftware,2013-02-19 07:16:00,
2013-02-19 07:17:00,32.2,30.1,30.19,North,0,0.0,0.0,92,0.00,,,0.00,0,MyOwnSoftware,2013-02-19 07:17:00,
2013-02-19 07:18:00,32.2,30.1,30.19,North,0,0.0,0.0,92,0.00,,,0.00,0,MyOwnSoftware,2013-02-19 07:18:00,
2013-02-19 07:19:00,32.2,30.4,30.19,North,0,0.0,0.0,93,0.00,,,0.00,0,MyOwnSoftware,2013-02-19 07:19:00,
2013-02-19 07:20:00,32.2,30.4,30.19,SW,225,0.0,1.0,93,0.00,,,0.00,0,MyOwnSoftware,2013-02-19 07:20:00,
2013-02-19 07:21:00,32.2,30.0,30.19,SW,217,0.0,-999.0,93,-99.99,,,0.00,0,weatherlink.com 1.10,2013-02-19 07:21:00,
2013-02-19 07:22:00,32.2,30.4,30.19,North,0,0.0,0.0,93,0.00,,,0.00,0,MyOwnSoftware,2013-02-19 07:22:00,
2013-02-19 07:23:00,32.2,30.4,30.19,North,0,0.0,0.0,93,0.00,,,0.00,0,MyOwnSoftware,2013-02-19 07:23:00,
2013-02-19 07:24:00,32.2,30.4,30.19,North,0,0.0,0.0,93,0.00,,,0.00,0,MyOwnSoftware,2013-02-19 07:24:00,
2013-02-19 07:25:00,32.2,30.4,30.19,SW,225,0.0,1.0,93,0.00,,,0.00,5,MyOwnSoftware,2013-02-19 07:25:00,
2013-02-19 07:29:00,32.2,30.4,30.19,North,0,0.0,0.0,93,0.00,,,0.00,5,MyOwnSoftware,2013-02-19 07:29:00,
2013-02-19 07:30:00,32.2,30.7,30.19,North,0,0.0,0.0,94,0.00,,,0.00,5,MyOwnSoftware,2013-02-19 07:30:00,
2013-02-19 07:31:00,32.2,30.7,30.19,SW,225,0.0,1.0,94,0.00,,,0.00,5,MyOwnSoftware,2013-02-19 07:31:00,
2013-02-19 07:32:00,32.2,30.7,30.19,North,0,0.0,0.0,94,0.00,,,0.00,5,MyOwnSoftware,2013-02-19 07:32:00,
2013-02-19 07:33:00,32.2,30.7,30.19,North,0,0.0,0.0,94,0.00,,,0.00,6,MyOwnSoftware,2013-02-19 07:33:00,
2013-02-19 07:34:00,32.2,30.7,30.19,North,0,0.0,0.0,94,0.00,,,0.00,7,MyOwnSoftware,2013-02-19 07:34:00,
2013-02-19 07:35:00,32.2,30.4,30.19,North,0,0.0,0.0,93,0.00,,,0.00,5,MyOwnSoftware,2013-02-19 07:35:00,
2013-02-19 07:39:00,32.2,30.4,30.19,SW,225,0.0,1.0,93,0.00,,,0.00,9,MyOwnSoftware,2013-02-19 07:39:00,
2013-02-19 07:40:00,32.2,30.4,30.19,North,0,0.0,0.0,93,0.00,,,0.00,9,MyOwnSoftware,2013-02-19 07:40:00,
2013-02-19 07:41:00,32.2,30.4,30.19,North,0,0.0,0.0,93,0.00,,,0.00,9,MyOwnSoftware,2013-02-19 07:41:00,
2013-02-19 07:42:00,32.2,30.4,30.19,North,0,0.0,0.0,93,0.00,,,0.00,11,MyOwnSoftware,2013-02-19 07:42:00,
2013-02-19 07:43:00,32.2,30.4,30.19,North,0,0.0,0.0,93,0.00,,,0.00,11,MyOwnSoftware,2013-02-19 07:43:00,
2013-02-19 07:44:00,32.2,30.4,30.19,North,0,0.0,0.0,93,0.00,,,0.00,11,MyOwnSoftware,2013-02-19 07:44:00,
2013-02-19 07:45:00,32.2,30.4,30.19,North,0,0.0,0.0,93,0.00,,,0.00,7,MyOwnSoftware,2013-02-19 07:45:00,
2013-02-19 07:49:00,32.2,30.4,30.19,SW,225,1.0,2.0,93,0.00,,,0.00,12,MyOwnSoftware,2013-02-19 07:49:00,
2013-02-19 07:50:00,32.2,30.4,30.19,SW,225,0.0,1.0,93,0.00,,,0.00,16,MyOwnSoftware,2013-02-19 07:50:00,
2013-02-19 07:51:00,32.2,30.0,30.19,SW,217,0.0,-999.0,93,-99.99,,,0.00,16,weatherlink.com 1.10,2013-02-19 07:51:00,
2013-02-19 07:52:00,32.2,30.4,30.19,SW,225,0.0,1.0,93,0.00,,,0.00,16,MyOwnSoftware,2013-02-19 07:52:00,
2013-02-19 07:53:00,32.2,30.4,30.19,SW,225,0.0,1.0,93,0.00,,,0.00,16,MyOwnSoftware,2013-02-19 07:53:00,
2013-02-19 07:54:00,32.2,30.4,30.19,SW,225,0.0,1.0,93,0.00,,,0.00,18,MyOwnSoftware,2013-02-19 07:54:00,
2013-02-19 07:55:00,32.2,30.4,30.19,SW,225,0.0,1.0,93,0.00,,,0.00,18,MyOwnSoftware,2013-02-19 07:55:00,
2013-02-19 07:56:00,32.4,30.9,30.19,North,0,0.0,0.0,94,0.00,,,0.00,18,MyOwnSoftware,2013-02-19 07:56:00,
2013-02-19 07:57:00,32.4,30.6,30.19,SW,225,0.0,1.0,93,0.00,,,0.00,18,MyOwnSoftware,2013-02-19 07:57:00,
2013-02-19 07:58:00,32.4,30.6,30.19,SW,225,1.0,2.0,93,0.00,,,0.00,19,MyOwnSoftware,2013-02-19 07:58:00,
2013-02-19 07:59:00,32.4,30.6,30.19,North,0,0.0,0.0,93,0.00,,,0.00,19,MyOwnSoftware,2013-02-19 07:59:00,
2013-02-19 08:00:00,32.4,30.6,30.19,North,0,0.0,0.0,93,0.00,,,0.00,19,MyOwnSoftware,2013-02-19 08:00:00,
2013-02-19 08:01:00,32.4,30.6,30.19,North,0,0.0,0.0,93,0.00,,,0.00,19,MyOwnSoftware,2013-02-19 08:01:00,
2013-02-19 08:02:00,32.4,30.6,30.19,North,0,0.0,0.0,93,0.00,,,0.00,19,MyOwnSoftware,2013-02-19 08:02:00,
2013-02-19 08:03:00,32.5,30.7,30.19,North,0,0.0,0.0,93,0.00,,,0.00,21,MyOwnSoftware,2013-02-19 08:03:00,
2013-02-19 08:04:00,32.5,30.7,30.19,SW,225,0.0,1.0,93,0.00,,,0.00,21,MyOwnSoftware,2013-02-19 08:04:00,
2013-02-19 08:05:00,32.5,30.7,30.19,North,0,0.0,0.0,93,0.00,,,0.00,21,MyOwnSoftware,2013-02-19 08:05:00,
2013-02-19 08:06:00,32.7,31.0,30.19,SW,217,0.0,-999.0,93,-99.99,,,0.00,23,weatherlink.com 1.10,2013-02-19 08:06:00,
2013-02-19 08:09:00,32.8,31.3,30.19,SW,225,0.0,1.0,94,0.00,,,0.00,23,MyOwnSoftware,2013-02-19 08:09:00,
2013-02-19 08:10:00,32.9,31.4,30.19,SW,225,0.0,1.0,94,0.00,,,0.00,23,MyOwnSoftware,2013-02-19 08:10:00,
2013-02-19 08:11:00,32.9,31.1,30.19,SW,225,0.0,1.0,93,0.00,,,0.00,26,MyOwnSoftware,2013-02-19 08:11:00,
2013-02-19 08:12:00,33.1,31.3,30.19,North,0,0.0,0.0,93,0.00,,,0.00,26,MyOwnSoftware,2013-02-19 08:12:00,
2013-02-19 08:13:00,33.2,31.4,30.19,North,0,0.0,0.0,93,0.00,,,0.00,26,MyOwnSoftware,2013-02-19 08:13:00,
2013-02-19 08:14:00,33.4,31.6,30.19,North,0,0.0,0.0,93,0.00,,,0.00,26,MyOwnSoftware,2013-02-19 08:14:00,
2013-02-19 08:15:00,32.7,30.9,30.19,North,0,0.0,0.0,93,0.00,,,0.00,21,MyOwnSoftware,2013-02-19 08:15:00,
2013-02-19 08:16:00,33.5,31.7,30.20,North,0,0.0,0.0,93,0.00,,,0.00,28,MyOwnSoftware,2013-02-19 08:16:00,
2013-02-19 08:17:00,33.7,31.9,30.20,SW,225,0.0,1.0,93,0.00,,,0.00,28,MyOwnSoftware,2013-02-19 08:17:00,
2013-02-19 08:18:00,33.8,32.0,30.20,SW,225,0.0,1.0,93,0.00,,,0.00,28,MyOwnSoftware,2013-02-19 08:18:00,
2013-02-19 08:19:00,34.0,32.2,30.20,SW,225,0.0,1.0,93,0.00,,,0.00,32,MyOwnSoftware,2013-02-19 08:19:00,
2013-02-19 08:20:00,34.1,32.3,30.20,SW,225,0.0,1.0,93,0.00,,,0.00,32,MyOwnSoftware,2013-02-19 08:20:00,
2013-02-19 08:21:00,34.4,32.0,30.20,SW,219,0.0,-999.0,92,-99.99,,,0.00,32,weatherlink.com 1.10,2013-02-19 08:21:00,
2013-02-19 08:22:00,34.4,32.0,30.20,SW,225,0.0,2.0,91,0.00,,,0.00,32,MyOwnSoftware,2013-02-19 08:22:00,
2013-02-19 08:23:00,34.6,32.2,30.20,SW,225,0.0,2.0,91,0.00,,,0.00,34,MyOwnSoftware,2013-02-19 08:23:00,
2013-02-19 08:24:00,34.7,32.3,30.20,SW,225,1.0,2.0,91,0.00,,,0.00,35,MyOwnSoftware,2013-02-19 08:24:00,
2013-02-19 08:25:00,34.9,32.5,30.20,SW,225,0.0,1.0,91,0.00,,,0.00,35,MyOwnSoftware,2013-02-19 08:25:00,
2013-02-19 08:29:00,35.3,32.4,30.20,SW,225,1.0,1.0,89,0.00,,,0.00,40,MyOwnSoftware,2013-02-19 08:29:00,
2013-02-19 08:30:00,35.5,32.6,30.20,SW,225,1.0,1.0,89,0.00,,,0.00,40,MyOwnSoftware,2013-02-19 08:30:00,
2013-02-19 08:31:00,35.5,32.3,30.20,SW,225,0.0,1.0,88,0.00,,,0.00,40,MyOwnSoftware,2013-02-19 08:31:00,
2013-02-19 08:32:00,35.6,32.4,30.20,North,0,0.0,0.0,88,0.00,,,0.00,33,MyOwnSoftware,2013-02-19 08:32:00,
2013-02-19 08:33:00,35.6,32.1,30.20,SW,225,1.0,3.0,87,0.00,,,0.00,33,MyOwnSoftware,2013-02-19 08:33:00,
2013-02-19 08:34:00,35.6,32.1,30.20,SW,225,0.0,1.0,87,0.00,,,0.00,33,MyOwnSoftware,2013-02-19 08:34:00,
2013-02-19 08:35:00,35.0,32.4,30.20,North,0,0.0,0.0,90,0.00,,,0.00,35,MyOwnSoftware,2013-02-19 08:35:00,
2013-02-19 08:39:00,35.9,32.1,30.20,North,0,0.0,0.0,86,0.00,,,0.00,55,MyOwnSoftware,2013-02-19 08:39:00,
2013-02-19 08:40:00,35.9,32.1,30.20,North,0,0.0,0.0,86,0.00,,,0.00,60,MyOwnSoftware,2013-02-19 08:40:00,
2013-02-19 08:41:00,36.0,32.2,30.20,North,0,0.0,0.0,86,0.00,,,0.00,62,MyOwnSoftware,2013-02-19 08:41:00,
2013-02-19 08:42:00,36.0,32.2,30.20,North,0,0.0,0.0,86,0.00,,,0.00,62,MyOwnSoftware,2013-02-19 08:42:00,
2013-02-19 08:43:00,36.2,32.4,30.20,North,0,0.0,0.0,86,0.00,,,0.00,64,MyOwnSoftware,2013-02-19 08:43:00,
2013-02-19 08:44:00,36.3,32.5,30.20,North,0,0.0,0.0,86,0.00,,,0.00,67,MyOwnSoftware,2013-02-19 08:44:00,
2013-02-19 08:45:00,35.8,32.3,30.20,SW,225,0.0,1.0,87,0.00,,,0.00,55,MyOwnSoftware,2013-02-19 08:45:00,
2013-02-19 08:49:00,36.9,32.8,30.20,North,0,0.0,0.0,85,0.00,,,0.00,74,MyOwnSoftware,2013-02-19 08:49:00,
2013-02-19 08:50:00,37.0,32.9,30.20,North,0,0.0,0.0,85,0.00,,,0.00,76,MyOwnSoftware,2013-02-19 08:50:00,
2013-02-19 08:51:00,37.2,33.1,30.20,North,0,0.0,0.0,85,0.00,,,0.00,76,MyOwnSoftware,2013-02-19 08:51:00,
2013-02-19 08:52:00,37.3,33.0,30.20,SW,219,0.0,-999.0,85,-99.99,,,0.00,79,weatherlink.com 1.10,2013-02-19 08:52:00,
2013-02-19 08:53:00,37.6,33.5,30.20,North,0,0.0,0.0,85,0.00,,,0.00,80,MyOwnSoftware,2013-02-19 08:53:00,
2013-02-19 08:54:00,37.8,33.4,30.20,North,0,0.0,0.0,84,0.00,,,0.00,83,MyOwnSoftware,2013-02-19 08:54:00,
2013-02-19 08:55:00,37.9,33.5,30.20,North,0,0.0,0.0,84,0.00,,,0.00,84,MyOwnSoftware,2013-02-19 08:55:00,
2013-02-19 08:56:00,38.0,33.6,30.20,North,0,0.0,0.0,84,0.00,,,0.00,84,MyOwnSoftware,2013-02-19 08:56:00,
2013-02-19 08:57:00,38.3,33.6,30.20,SW,225,0.0,1.0,83,0.00,,,0.00,86,MyOwnSoftware,2013-02-19 08:57:00,
2013-02-19 08:58:00,38.5,33.8,30.20,North,0,0.0,0.0,83,0.00,,,0.00,89,MyOwnSoftware,2013-02-19 08:58:00,
2013-02-19 08:59:00,38.6,33.6,30.20,North,0,0.0,0.0,82,0.00,,,0.00,91,MyOwnSoftware,2013-02-19 08:59:00,
2013-02-19 09:00:00,38.8,33.8,30.20,North,0,0.0,0.0,82,0.00,,,0.00,91,MyOwnSoftware,2013-02-19 09:00:00,
2013-02-19 09:01:00,38.9,33.9,30.20,North,0,0.0,0.0,82,0.00,,,0.00,93,MyOwnSoftware,2013-02-19 09:01:00,
2013-02-19 09:02:00,39.1,33.8,30.20,North,0,0.0,0.0,81,0.00,,,0.00,95,MyOwnSoftware,2013-02-19 09:02:00,
2013-02-19 09:03:00,39.3,34.0,30.20,North,0,0.0,0.0,81,0.00,,,0.00,98,MyOwnSoftware,2013-02-19 09:03:00,
2013-02-19 09:04:00,39.5,34.2,30.20,North,0,0.0,0.0,81,0.00,,,0.00,100,MyOwnSoftware,2013-02-19 09:04:00,
2013-02-19 09:05:00,39.6,33.9,30.20,North,0,0.0,0.0,80,0.00,,,0.00,102,MyOwnSoftware,2013-02-19 09:05:00,
2013-02-19 09:07:00,39.9,34.0,30.20,SW,219,0.0,-999.0,79,-99.99,,,0.00,106,weatherlink.com 1.10,2013-02-19 09:07:00,
2013-02-19 09:09:00,40.3,34.0,30.20,North,0,0.0,0.0,78,0.00,,,0.00,109,MyOwnSoftware,2013-02-19 09:09:00,
2013-02-19 09:10:00,40.5,33.9,30.20,North,0,0.0,0.0,77,0.00,,,0.00,111,MyOwnSoftware,2013-02-19 09:10:00,
2013-02-19 09:11:00,40.6,34.0,30.20,North,0,0.0,0.0,77,0.00,,,0.00,113,MyOwnSoftware,2013-02-19 09:11:00,
2013-02-19 09:12:00,40.8,33.8,30.20,North,0,0.0,0.0,76,0.00,,,0.00,114,MyOwnSoftware,2013-02-19 09:12:00,
2013-02-19 09:13:00,40.9,33.9,30.20,North,0,0.0,0.0,76,0.00,,,0.00,116,MyOwnSoftware,2013-02-19 09:13:00,
2013-02-19 09:14:00,40.9,33.9,30.20,North,0,0.0,0.0,76,0.00,,,0.00,118,MyOwnSoftware,2013-02-19 09:14:00,
2013-02-19 09:15:00,39.8,34.1,30.20,North,0,0.0,0.0,80,0.00,,,0.00,104,MyOwnSoftware,2013-02-19 09:15:00,
2013-02-19 09:16:00,41.2,33.9,30.20,SW,225,0.0,1.0,75,0.00,,,0.00,121,MyOwnSoftware,2013-02-19 09:16:00,
2013-02-19 09:17:00,41.3,33.6,30.20,SW,225,0.0,1.0,74,0.00,,,0.00,123,MyOwnSoftware,2013-02-19 09:17:00,
2013-02-19 09:18:00,41.5,33.8,30.20,North,0,0.0,0.0,74,0.00,,,0.00,126,MyOwnSoftware,2013-02-19 09:18:00,
2013-02-19 09:19:00,41.5,33.8,30.20,North,0,0.0,0.0,74,0.00,,,0.00,128,MyOwnSoftware,2013-02-19 09:19:00,
2013-02-19 09:20:00,41.6,33.6,30.20,North,0,0.0,0.0,73,0.00,,,0.00,130,MyOwnSoftware,2013-02-19 09:20:00,
2013-02-19 09:21:00,41.8,33.8,30.20,North,0,0.0,0.0,73,0.00,,,0.00,132,MyOwnSoftware,2013-02-19 09:21:00,
2013-02-19 09:22:00,41.8,33.0,30.20,SW,219,0.0,-999.0,72,-99.99,,,0.00,135,weatherlink.com 1.10,2013-02-19 09:22:00,
2013-02-19 09:23:00,41.9,33.5,30.20,North,0,0.0,0.0,72,0.00,,,0.00,136,MyOwnSoftware,2013-02-19 09:23:00,
2013-02-19 09:24:00,42.1,33.7,30.20,North,0,0.0,0.0,72,0.00,,,0.00,137,MyOwnSoftware,2013-02-19 09:24:00,
2013-02-19 09:25:00,42.1,33.7,30.20,North,0,0.0,0.0,72,0.00,,,0.00,137,MyOwnSoftware,2013-02-19 09:25:00,
2013-02-19 09:29:00,42.5,33.4,30.20,North,0,0.0,0.0,70,0.00,,,0.00,148,MyOwnSoftware,2013-02-19 09:29:00,
2013-02-19 09:30:00,42.5,32.7,30.20,North,0,0.0,0.0,68,0.00,,,0.00,150,MyOwnSoftware,2013-02-19 09:30:00,
2013-02-19 09:31:00,42.6,32.8,30.20,North,0,0.0,0.0,68,0.00,,,0.00,151,MyOwnSoftware,2013-02-19 09:31:00,
2013-02-19 09:32:00,42.8,32.6,30.20,North,0,0.0,0.0,67,0.00,,,0.00,153,MyOwnSoftware,2013-02-19 09:32:00,
2013-02-19 09:33:00,42.9,32.7,30.20,North,0,0.0,0.0,67,0.00,,,0.00,156,MyOwnSoftware,2013-02-19 09:33:00,
2013-02-19 09:34:00,43.1,32.9,30.20,North,0,0.0,0.0,67,0.00,,,0.00,158,MyOwnSoftware,2013-02-19 09:34:00,
2013-02-19 09:35:00,42.2,33.5,30.20,North,0,0.0,0.0,71,0.00,,,0.00,141,MyOwnSoftware,2013-02-19 09:35:00,
2013-02-19 09:39:00,43.6,33.4,30.20,North,0,0.0,0.0,67,0.00,,,0.00,167,MyOwnSoftware,2013-02-19 09:39:00,
2013-02-19 09:40:00,43.6,33.0,30.20,North,0,0.0,0.0,66,0.00,,,0.00,169,MyOwnSoftware,2013-02-19 09:40:00,
2013-02-19 09:41:00,43.8,33.2,30.20,North,0,0.0,0.0,66,0.00,,,0.00,171,MyOwnSoftware,2013-02-19 09:41:00,
2013-02-19 09:42:00,43.8,32.8,30.20,North,0,0.0,0.0,65,0.00,,,0.00,172,MyOwnSoftware,2013-02-19 09:42:00,
2013-02-19 09:43:00,43.8,32.8,30.20,North,0,0.0,0.0,65,0.00,,,0.00,175,MyOwnSoftware,2013-02-19 09:43:00,
2013-02-19 09:44:00,43.9,32.9,30.20,North,0,0.0,0.0,65,0.00,,,0.00,178,MyOwnSoftware,2013-02-19 09:44:00,
2013-02-19 09:45:00,43.3,33.1,30.20,North,0,0.0,0.0,67,0.00,,,0.00,160,MyOwnSoftware,2013-02-19 09:45:00,
2013-02-19 09:49:00,44.1,33.1,30.20,North,0,0.0,0.0,65,0.00,,,0.00,185,MyOwnSoftware,2013-02-19 09:49:00,
2013-02-19 09:50:00,44.2,32.8,30.20,North,0,0.0,0.0,64,0.00,,,0.00,187,MyOwnSoftware,2013-02-19 09:50:00,
2013-02-19 09:51:00,44.2,32.8,30.20,North,0,0.0,0.0,64,0.00,,,0.00,188,MyOwnSoftware,2013-02-19 09:51:00,
2013-02-19 09:52:00,44.2,33.0,30.20,SW,219,0.0,-999.0,65,-99.99,,,0.00,192,weatherlink.com 1.10,2013-02-19 09:52:00,
2013-02-19 09:53:00,44.3,33.3,30.20,North,0,0.0,0.0,65,0.00,,,0.00,193,MyOwnSoftware,2013-02-19 09:53:00,
2013-02-19 09:54:00,44.3,32.9,30.20,North,0,0.0,0.0,64,0.00,,,0.00,195,MyOwnSoftware,2013-02-19 09:54:00,
2013-02-19 09:55:00,44.3,32.5,30.20,North,0,0.0,0.0,63,0.00,,,0.00,195,MyOwnSoftware,2013-02-19 09:55:00,
2013-02-19 09:56:00,44.5,32.7,30.20,North,0,0.0,0.0,63,0.00,,,0.00,197,MyOwnSoftware,2013-02-19 09:56:00,
2013-02-19 09:57:00,44.6,32.4,30.20,North,0,0.0,0.0,62,0.00,,,0.00,199,MyOwnSoftware,2013-02-19 09:57:00,
2013-02-19 09:58:00,44.6,32.0,30.20,North,0,0.0,0.0,61,0.00,,,0.00,202,MyOwnSoftware,2013-02-19 09:58:00,
2013-02-19 09:59:00,44.6,31.6,30.20,North,0,0.0,0.0,60,0.00,,,0.00,202,MyOwnSoftware,2013-02-19 09:59:00,
2013-02-19 10:00:00,44.6,31.6,30.20,SW,225,0.0,1.0,60,0.00,,,0.00,204,MyOwnSoftware,2013-02-19 10:00:00,
2013-02-19 10:01:00,44.5,31.5,30.20,SW,225,1.0,2.0,60,0.00,,,0.00,206,MyOwnSoftware,2013-02-19 10:01:00,
2013-02-19 10:02:00,44.1,31.9,30.20,SW,225,0.0,2.0,62,0.00,,,0.00,208,MyOwnSoftware,2013-02-19 10:02:00,
2013-02-19 10:03:00,43.9,31.7,30.20,SW,225,1.0,2.0,62,0.00,,,0.00,209,MyOwnSoftware,2013-02-19 10:03:00,
2013-02-19 10:04:00,43.5,31.8,30.20,SW,225,0.0,1.0,63,0.00,,,0.00,211,MyOwnSoftware,2013-02-19 10:04:00,
2013-02-19 10:05:00,43.1,31.8,30.20,SW,225,0.0,1.0,64,0.00,,,0.00,213,MyOwnSoftware,2013-02-19 10:05:00,
2013-02-19 10:07:00,42.3,32.0,30.20,SW,232,2.0,-999.0,66,-99.99,,,0.00,216,weatherlink.com 1.10,2013-02-19 10:07:00,
2013-02-19 10:09:00,41.8,31.7,30.20,SW,225,0.0,1.0,67,0.00,,,0.00,222,MyOwnSoftware,2013-02-19 10:09:00,
2013-02-19 10:10:00,41.5,31.7,30.20,WSW,248,2.0,2.0,68,0.00,,,0.00,222,MyOwnSoftware,2013-02-19 10:10:00,
2013-02-19 10:11:00,41.2,31.5,30.20,WSW,248,1.0,2.0,68,0.00,,,0.00,222,MyOwnSoftware,2013-02-19 10:11:00,
2013-02-19 10:12:00,40.9,31.9,30.20,West,270,2.0,3.0,70,0.00,,,0.00,223,MyOwnSoftware,2013-02-19 10:12:00,
2013-02-19 10:13:00,40.6,31.6,30.20,West,270,2.0,2.0,70,0.00,,,0.00,226,MyOwnSoftware,2013-02-19 10:13:00,
2013-02-19 10:14:00,40.5,31.8,30.20,West,270,2.0,3.0,71,0.00,,,0.00,227,MyOwnSoftware,2013-02-19 10:14:00,
2013-02-19 10:15:00,42.8,31.9,30.20,SW,225,1.0,2.0,65,0.00,,,0.00,215,MyOwnSoftware,2013-02-19 10:15:00,
2013-02-19 10:16:00,40.2,31.6,30.20,WNW,292,1.0,2.0,71,0.00,,,0.00,229,MyOwnSoftware,2013-02-19 10:16:00,
2013-02-19 10:17:00,40.1,31.8,30.20,WNW,292,2.0,2.0,72,0.00,,,0.00,230,MyOwnSoftware,2013-02-19 10:17:00,
2013-02-19 10:18:00,39.9,31.6,30.20,WNW,292,2.0,3.0,72,0.00,,,0.00,231,MyOwnSoftware,2013-02-19 10:18:00,
2013-02-19 10:19:00,39.9,32.0,30.20,WNW,292,1.0,2.0,73,0.00,,,0.00,234,MyOwnSoftware,2013-02-19 10:19:00,
2013-02-19 10:20:00,39.8,32.2,30.20,WNW,292,1.0,2.0,74,0.00,,,0.00,234,MyOwnSoftware,2013-02-19 10:20:00,
2013-02-19 10:21:00,39.8,32.2,30.20,WNW,292,1.0,2.0,74,0.00,,,0.00,236,MyOwnSoftware,2013-02-19 10:21:00,
2013-02-19 10:22:00,39.8,32.0,30.20,WNW,302,2.0,-999.0,75,-99.99,,,0.00,238,weatherlink.com 1.10,2013-02-19 10:22:00,
2013-02-19 10:23:00,39.6,32.3,30.20,WNW,292,1.0,2.0,75,0.00,,,0.00,239,MyOwnSoftware,2013-02-19 10:23:00,
2013-02-19 10:24:00,39.6,32.3,30.20,WNW,292,0.0,2.0,75,0.00,,,0.00,241,MyOwnSoftware,2013-02-19 10:24:00,
2013-02-19 10:25:00,39.5,32.2,30.20,NW,315,2.0,3.0,75,0.00,,,0.00,243,MyOwnSoftware,2013-02-19 10:25:00,
2013-02-19 10:29:00,39.1,32.5,30.20,NW,315,1.0,2.0,77,0.00,,,0.00,246,MyOwnSoftware,2013-02-19 10:29:00,
2013-02-19 10:30:00,39.1,32.2,30.20,NNW,338,2.0,3.0,76,0.00,,,0.00,248,MyOwnSoftware,2013-02-19 10:30:00,
2013-02-19 10:31:00,39.1,32.2,30.20,NNW,338,2.0,5.0,76,0.00,,,0.00,250,MyOwnSoftware,2013-02-19 10:31:00,
2013-02-19 10:32:00,39.1,31.9,30.20,North,0,2.0,3.0,75,0.00,,,0.00,252,MyOwnSoftware,2013-02-19 10:32:00,
2013-02-19 10:33:00,39.1,31.9,30.20,North,0,2.0,3.0,75,0.00,,,0.00,254,MyOwnSoftware,2013-02-19 10:33:00,
2013-02-19 10:34:00,39.1,32.2,30.20,North,0,1.0,2.0,76,0.00,,,0.00,255,MyOwnSoftware,2013-02-19 10:34:00,
2013-02-19 10:35:00,39.3,32.4,30.20,NW,315,2.0,3.0,76,0.00,,,0.00,243,MyOwnSoftware,2013-02-19 10:35:00,
2013-02-19 10:39:00,39.1,32.2,30.20,North,0,1.0,2.0,76,0.00,,,0.00,260,MyOwnSoftware,2013-02-19 10:39:00,
2013-02-19 10:40:00,39.2,32.3,30.20,North,0,3.0,3.0,76,0.00,,,0.00,260,MyOwnSoftware,2013-02-19 10:40:00,
2013-02-19 10:41:00,39.2,32.0,30.20,North,0,1.0,3.0,75,0.00,,,0.00,262,MyOwnSoftware,2013-02-19 10:41:00,
2013-02-19 10:42:00,39.2,32.0,30.20,North,0,1.0,2.0,75,0.00,,,0.00,264,MyOwnSoftware,2013-02-19 10:42:00,
2013-02-19 10:43:00,39.2,32.3,30.20,NNE,22,1.0,3.0,76,0.00,,,0.00,265,MyOwnSoftware,2013-02-19 10:43:00,
2013-02-19 10:44:00,39.2,32.0,30.20,NNE,22,2.0,2.0,75,0.00,,,0.00,267,MyOwnSoftware,2013-02-19 10:44:00,
2013-02-19 10:45:00,39.1,31.9,30.20,North,0,2.0,2.0,75,0.00,,,0.00,257,MyOwnSoftware,2013-02-19 10:45:00,
2013-02-19 10:49:00,39.2,32.3,30.20,North,0,3.0,5.0,76,0.00,,,0.00,271,MyOwnSoftware,2013-02-19 10:49:00,
2013-02-19 10:50:00,39.2,32.6,30.20,North,0,2.0,5.0,77,0.00,,,0.00,271,MyOwnSoftware,2013-02-19 10:50:00,
2013-02-19 10:51:00,39.2,32.6,30.20,North,0,2.0,2.0,77,0.00,,,0.00,273,MyOwnSoftware,2013-02-19 10:51:00,
2013-02-19 10:52:00,39.1,32.0,30.20,NNE,24,1.0,-999.0,77,-99.99,,,0.00,274,weatherlink.com 1.10,2013-02-19 10:52:00,
2013-02-19 10:53:00,39.1,32.5,30.20,NNE,22,2.0,3.0,77,0.00,,,0.00,275,MyOwnSoftware,2013-02-19 10:53:00,
2013-02-19 10:54:00,39.1,32.5,30.20,NNE,22,2.0,3.0,77,0.00,,,0.00,278,MyOwnSoftware,2013-02-19 10:54:00,
2013-02-19 10:55:00,38.9,32.3,30.20,NNE,22,2.0,3.0,77,0.00,,,0.00,280,MyOwnSoftware,2013-02-19 10:55:00,
2013-02-19 10:56:00,38.9,32.3,30.20,NNE,22,2.0,3.0,77,0.00,,,0.00,278,MyOwnSoftware,2013-02-19 10:56:00,
2013-02-19 10:57:00,38.9,32.6,30.20,NNE,22,1.0,3.0,78,0.00,,,0.00,280,MyOwnSoftware,2013-02-19 10:57:00,
2013-02-19 10:58:00,38.8,32.5,30.20,NNE,22,2.0,3.0,78,0.00,,,0.00,282,MyOwnSoftware,2013-02-19 10:58:00,
2013-02-19 10:59:00,38.8,32.5,30.20,NNE,22,2.0,3.0,78,0.00,,,0.00,283,MyOwnSoftware,2013-02-19 10:59:00,
2013-02-19 11:00:00,38.8,32.9,30.20,NNE,22,2.0,3.0,79,0.00,,,0.00,283,MyOwnSoftware,2013-02-19 11:00:00,
2013-02-19 11:01:00,38.8,32.9,30.20,NNE,22,2.0,5.0,79,0.00,,,0.00,283,MyOwnSoftware,2013-02-19 11:01:00,
2013-02-19 11:02:00,38.8,33.2,30.20,North,0,3.0,5.0,80,0.00,,,0.00,285,MyOwnSoftware,2013-02-19 11:02:00,
2013-02-19 11:03:00,38.8,33.2,30.20,North,0,1.0,3.0,80,0.00,,,0.00,285,MyOwnSoftware,2013-02-19 11:03:00,
2013-02-19 11:04:00,38.8,33.5,30.20,North,0,1.0,3.0,81,0.00,,,0.00,285,MyOwnSoftware,2013-02-19 11:04:00,
2013-02-19 11:05:00,38.8,33.5,30.20,North,0,1.0,2.0,81,0.00,,,0.00,287,MyOwnSoftware,2013-02-19 11:05:00,
2013-02-19 11:07:00,38.9,35.0,30.20,North,10,1.0,-999.0,84,-99.99,,,0.00,289,weatherlink.com 1.10,2013-02-19 11:07:00,
2013-02-19 11:09:00,38.9,34.5,30.20,North,0,1.0,2.0,84,0.00,,,0.00,289,MyOwnSoftware,2013-02-19 11:09:00,
2013-02-19 11:10:00,38.9,34.5,30.20,North,0,1.0,2.0,84,0.00,,,0.00,290,MyOwnSoftware,2013-02-19 11:10:00,
2013-02-19 11:11:00,38.9,34.5,30.20,North,0,1.0,2.0,84,0.00,,,0.00,290,MyOwnSoftware,2013-02-19 11:11:00,
2013-02-19 11:12:00,39.1,34.7,30.20,North,0,0.0,2.0,84,0.00,,,0.00,292,MyOwnSoftware,2013-02-19 11:12:00,
2013-02-19 11:13:00,39.1,34.7,30.20,North,0,1.0,3.0,84,0.00,,,0.00,294,MyOwnSoftware,2013-02-19 11:13:00,
2013-02-19 11:14:00,39.1,34.7,30.20,North,0,1.0,2.0,84,0.00,,,0.00,296,MyOwnSoftware,2013-02-19 11:14:00,
2013-02-19 11:15:00,38.9,33.9,30.20,North,0,2.0,3.0,82,0.00,,,0.00,287,MyOwnSoftware,2013-02-19 11:15:00,
2013-02-19 11:16:00,39.2,34.8,30.21,North,0,1.0,2.0,84,0.00,,,0.00,297,MyOwnSoftware,2013-02-19 11:16:00,
2013-02-19 11:17:00,39.2,34.8,30.21,North,0,1.0,2.0,84,0.00,,,0.00,297,MyOwnSoftware,2013-02-19 11:17:00,
2013-02-19 11:18:00,39.2,34.8,30.21,North,0,1.0,2.0,84,0.00,,,0.00,297,MyOwnSoftware,2013-02-19 11:18:00,
2013-02-19 11:19:00,39.3,34.9,30.21,North,0,2.0,3.0,84,0.00,,,0.00,301,MyOwnSoftware,2013-02-19 11:19:00,
2013-02-19 11:20:00,39.3,34.9,30.21,North,0,1.0,2.0,84,0.00,,,0.00,299,MyOwnSoftware,2013-02-19 11:20:00,
2013-02-19 11:21:00,39.3,34.9,30.21,North,0,1.0,3.0,84,0.00,,,0.00,301,MyOwnSoftware,2013-02-19 11:21:00,
2013-02-19 11:22:00,39.5,35.0,30.21,North,10,2.0,-999.0,84,-99.99,,,0.00,301,weatherlink.com 1.10,2013-02-19 11:22:00,
2013-02-19 11:23:00,39.5,34.8,30.21,North,0,2.0,2.0,83,0.00,,,0.00,300,MyOwnSoftware,2013-02-19 11:23:00,
2013-02-19 11:24:00,39.5,34.5,30.21,North,0,2.0,3.0,82,0.00,,,0.00,299,MyOwnSoftware,2013-02-19 11:24:00,
2013-02-19 11:25:00,39.5,34.5,30.21,North,0,1.0,2.0,82,0.00,,,0.00,299,MyOwnSoftware,2013-02-19 11:25:00,
2013-02-19 11:29:00,39.5,34.8,30.21,North,0,2.0,3.0,83,0.00,,,0.00,127,MyOwnSoftware,2013-02-19 11:29:00,
2013-02-19 11:30:00,39.5,34.8,30.21,North,0,2.0,3.0,83,0.00,,,0.00,146,MyOwnSoftware,2013-02-19 11:30:00,
2013-02-19 11:31:00,39.5,34.8,30.21,North,0,1.0,2.0,83,0.00,,,0.00,167,MyOwnSoftware,2013-02-19 11:31:00,
2013-02-19 11:32:00,39.5,35.1,30.21,North,0,1.0,3.0,84,0.00,,,0.00,197,MyOwnSoftware,2013-02-19 11:32:00,
2013-02-19 11:33:00,39.3,34.9,30.21,North,0,1.0,3.0,84,0.00,,,0.00,249,MyOwnSoftware,2013-02-19 11:33:00,
2013-02-19 11:34:00,39.3,34.9,30.21,North,0,2.0,4.0,84,0.00,,,0.00,299,MyOwnSoftware,2013-02-19 11:34:00,
2013-02-19 11:35:00,39.5,34.8,30.21,North,0,1.0,3.0,83,0.00,,,0.00,125,MyOwnSoftware,2013-02-19 11:35:00,
2013-02-19 11:39:00,39.1,35.0,30.21,North,0,2.0,6.0,85,0.00,,,0.00,311,MyOwnSoftware,2013-02-19 11:39:00,
2013-02-19 11:40:00,39.1,35.0,30.21,North,0,3.0,6.0,85,0.00,,,0.00,310,MyOwnSoftware,2013-02-19 11:40:00,
2013-02-19 11:41:00,39.1,35.0,30.21,North,0,2.0,5.0,85,0.00,,,0.00,310,MyOwnSoftware,2013-02-19 11:41:00,
2013-02-19 11:42:00,39.1,35.0,30.21,NNW,338,3.0,5.0,85,0.00,,,0.00,310,MyOwnSoftware,2013-02-19 11:42:00,
2013-02-19 11:43:00,39.1,35.3,30.21,NNW,338,1.0,5.0,86,0.00,,,0.00,313,MyOwnSoftware,2013-02-19 11:43:00,
2013-02-19 11:44:00,39.1,35.3,30.21,NNW,338,4.0,5.0,86,0.00,,,0.00,313,MyOwnSoftware,2013-02-19 11:44:00,
2013-02-19 11:45:00,39.2,34.8,30.21,North,0,4.0,6.0,84,0.00,,,0.00,308,MyOwnSoftware,2013-02-19 11:45:00,
2013-02-19 11:49:00,39.1,35.3,30.21,North,0,3.0,6.0,86,0.00,,,0.00,317,MyOwnSoftware,2013-02-19 11:49:00,
2013-02-19 11:50:00,39.1,35.3,30.21,North,0,3.0,6.0,86,0.00,,,0.00,311,MyOwnSoftware,2013-02-19 11:50:00,
2013-02-19 11:51:00,39.1,35.3,30.21,North,0,2.0,3.0,86,0.00,,,0.00,315,MyOwnSoftware,2013-02-19 11:51:00,
2013-02-19 11:52:00,39.1,36.0,30.21,North,350,3.0,-999.0,87,-99.99,,,0.00,311,weatherlink.com 1.10,2013-02-19 11:52:00,
2013-02-19 11:53:00,39.1,35.6,30.21,North,0,2.0,3.0,87,0.00,,,0.00,293,MyOwnSoftware,2013-02-19 11:53:00,
2013-02-19 11:54:00,38.9,35.4,30.21,North,0,4.0,6.0,87,0.00,,,0.00,313,MyOwnSoftware,2013-02-19 11:54:00,
2013-02-19 11:55:00,38.9,35.4,30.21,NNW,338,2.0,3.0,87,0.00,,,0.00,310,MyOwnSoftware,2013-02-19 11:55:00,
2013-02-19 11:56:00,38.9,35.4,30.21,NNW,338,2.0,3.0,87,0.00,,,0.00,308,MyOwnSoftware,2013-02-19 11:56:00,
2013-02-19 11:57:00,38.9,35.4,30.21,North,0,2.0,4.0,87,0.00,,,0.00,311,MyOwnSoftware,2013-02-19 11:57:00,
2013-02-19 11:58:00,38.9,35.4,30.21,North,0,3.0,4.0,87,0.00,,,0.00,303,MyOwnSoftware,2013-02-19 11:58:00,
2013-02-19 11:59:00,38.9,35.7,30.21,North,0,3.0,5.0,88,0.00,,,0.00,310,MyOwnSoftware,2013-02-19 11:59:00,
2013-02-19 12:00:00,38.9,35.7,30.20,North,0,4.0,6.0,88,0.00,,,0.00,318,MyOwnSoftware,2013-02-19 12:00:00,
2013-02-19 12:01:00,38.9,35.7,30.20,North,0,3.0,5.0,88,0.00,,,0.00,315,MyOwnSoftware,2013-02-19 12:01:00,
2013-02-19 12:02:00,38.9,35.7,30.20,North,0,1.0,3.0,88,0.00,,,0.00,318,MyOwnSoftware,2013-02-19 12:02:00,
2013-02-19 12:03:00,38.9,35.7,30.20,North,0,2.0,5.0,88,0.00,,,0.00,320,MyOwnSoftware,2013-02-19 12:03:00,
2013-02-19 12:04:00,39.1,35.9,30.20,NW,315,3.0,4.0,88,0.00,,,0.00,320,MyOwnSoftware,2013-02-19 12:04:00,
2013-02-19 12:05:00,39.1,35.9,30.20,NNW,338,3.0,5.0,88,0.00,,,0.00,322,MyOwnSoftware,2013-02-19 12:05:00,
2013-02-19 12:07:00,39.1,36.0,30.20,NNE,17,2.0,-999.0,88,-99.99,,,0.00,324,weatherlink.com 1.10,2013-02-19 12:07:00,
2013-02-19 12:09:00,38.9,35.7,30.20,North,0,2.0,5.0,88,0.00,,,0.00,324,MyOwnSoftware,2013-02-19 12:09:00,
2013-02-19 12:10:00,38.9,35.7,30.20,North,0,2.0,3.0,88,0.00,,,0.00,320,MyOwnSoftware,2013-02-19 12:10:00,
2013-02-19 12:11:00,39.1,36.1,30.20,North,0,2.0,3.0,89,0.00,,,0.00,322,MyOwnSoftware,2013-02-19 12:11:00,
2013-02-19 12:12:00,39.1,36.1,30.20,North,0,2.0,4.0,89,0.00,,,0.00,310,MyOwnSoftware,2013-02-19 12:12:00,
2013-02-19 12:13:00,39.1,36.1,30.20,North,0,2.0,3.0,89,0.00,,,0.00,316,MyOwnSoftware,2013-02-19 12:13:00,
2013-02-19 12:14:00,39.1,36.1,30.20,North,0,2.0,4.0,89,0.00,,,0.00,320,MyOwnSoftware,2013-02-19 12:14:00,
2013-02-19 12:15:00,39.1,35.9,30.20,NNW,338,3.0,5.0,88,0.00,,,0.00,320,MyOwnSoftware,2013-02-19 12:15:00,
2013-02-19 12:16:00,39.2,36.5,30.20,North,0,3.0,5.0,90,0.00,,,0.00,320,MyOwnSoftware,2013-02-19 12:16:00,
2013-02-19 12:17:00,39.2,36.2,30.20,North,0,3.0,6.0,89,0.00,,,0.00,318,MyOwnSoftware,2013-02-19 12:17:00,
2013-02-19 12:18:00,39.2,36.5,30.20,North,0,2.0,4.0,90,0.00,,,0.00,319,MyOwnSoftware,2013-02-19 12:18:00,
2013-02-19 12:19:00,39.2,36.5,30.20,North,0,2.0,3.0,90,0.00,,,0.00,318,MyOwnSoftware,2013-02-19 12:19:00,
2013-02-19 12:20:00,39.2,36.5,30.20,North,0,2.0,3.0,90,0.00,,,0.00,318,MyOwnSoftware,2013-02-19 12:20:00,
2013-02-19 12:21:00,39.2,36.5,30.20,North,0,2.0,3.0,90,0.00,,,0.00,320,MyOwnSoftware,2013-02-19 12:21:00,
2013-02-19 12:22:00,39.2,37.0,30.20,North,359,1.0,-999.0,90,-99.99,,,0.00,322,weatherlink.com 1.10,2013-02-19 12:22:00,
2013-02-19 12:23:00,39.2,36.5,30.20,North,0,3.0,5.0,90,0.00,,,0.00,320,MyOwnSoftware,2013-02-19 12:23:00,
2013-02-19 12:24:00,39.2,36.5,30.20,North,0,1.0,2.0,90,0.00,,,0.00,320,MyOwnSoftware,2013-02-19 12:24:00,
2013-02-19 12:25:00,39.3,36.6,30.20,North,0,1.0,3.0,90,0.00,,,0.00,318,MyOwnSoftware,2013-02-19 12:25:00,
2013-02-19 12:29:00,39.3,36.6,30.20,North,0,2.0,4.0,90,0.00,,,0.00,317,MyOwnSoftware,2013-02-19 12:29:00,
2013-02-19 12:30:00,39.3,36.6,30.20,North,0,2.0,3.0,90,0.00,,,0.00,317,MyOwnSoftware,2013-02-19 12:30:00,
2013-02-19 12:31:00,39.3,36.6,30.20,North,0,2.0,3.0,90,0.00,,,0.00,317,MyOwnSoftware,2013-02-19 12:31:00,
2013-02-19 12:32:00,39.3,36.9,30.20,North,0,3.0,5.0,91,0.00,,,0.00,315,MyOwnSoftware,2013-02-19 12:32:00,
2013-02-19 12:33:00,39.3,36.9,30.20,North,0,3.0,5.0,91,0.00,,,0.00,314,MyOwnSoftware,2013-02-19 12:33:00,
2013-02-19 12:34:00,39.3,36.9,30.20,North,0,3.0,6.0,91,0.00,,,0.00,313,MyOwnSoftware,2013-02-19 12:34:00,
2013-02-19 12:35:00,39.3,36.6,30.20,NNW,338,4.0,7.0,90,0.00,,,0.00,318,MyOwnSoftware,2013-02-19 12:35:00,
2013-02-19 12:39:00,39.5,37.1,30.20,North,0,2.0,3.0,91,0.00,,,0.00,304,MyOwnSoftware,2013-02-19 12:39:00,
2013-02-19 12:40:00,39.5,37.1,30.20,North,0,3.0,6.0,91,0.00,,,0.00,304,MyOwnSoftware,2013-02-19 12:40:00,
2013-02-19 12:41:00,39.6,37.2,30.20,NNE,22,4.0,6.0,91,0.00,,,0.00,303,MyOwnSoftware,2013-02-19 12:41:00,
2013-02-19 12:42:00,39.6,37.2,30.20,North,0,4.0,7.0,91,0.00,,,0.00,308,MyOwnSoftware,2013-02-19 12:42:00,
2013-02-19 12:43:00,39.6,37.2,30.20,North,0,2.0,4.0,91,0.00,,,0.00,302,MyOwnSoftware,2013-02-19 12:43:00,
2013-02-19 12:44:00,39.8,37.4,30.20,NNW,338,2.0,3.0,91,0.00,,,0.00,301,MyOwnSoftware,2013-02-19 12:44:00,
2013-02-19 12:45:00,39.5,37.1,30.20,North,0,3.0,6.0,91,0.00,,,0.00,311,MyOwnSoftware,2013-02-19 12:45:00,
2013-02-19 12:49:00,39.9,37.5,30.20,North,0,2.0,6.0,91,0.00,,,0.00,91,MyOwnSoftware,2013-02-19 12:49:00,
2013-02-19 12:50:00,40.1,37.7,30.20,North,0,4.0,7.0,91,0.00,,,0.00,123,MyOwnSoftware,2013-02-19 12:50:00,
2013-02-19 12:51:00,40.1,37.7,30.20,NNW,338,3.0,5.0,91,0.00,,,0.00,143,MyOwnSoftware,2013-02-19 12:51:00,
2013-02-19 12:52:00,40.1,38.0,30.20,North,0,2.0,-999.0,91,-99.99,,,0.00,169,weatherlink.com 1.10,2013-02-19 12:52:00,
2013-02-19 12:53:00,40.1,37.7,30.20,North,0,2.0,4.0,91,0.00,,,0.00,180,MyOwnSoftware,2013-02-19 12:53:00,
2013-02-19 12:54:00,40.2,37.8,30.20,North,0,2.0,5.0,91,0.00,,,0.00,209,MyOwnSoftware,2013-02-19 12:54:00,
2013-02-19 12:55:00,40.2,38.1,30.20,North,0,4.0,7.0,92,0.00,,,0.00,208,MyOwnSoftware,2013-02-19 12:55:00,
2013-02-19 12:56:00,40.2,37.8,30.20,North,0,3.0,6.0,91,0.00,,,0.00,202,MyOwnSoftware,2013-02-19 12:56:00,
2013-02-19 12:57:00,40.3,38.2,30.20,North,0,3.0,5.0,92,0.00,,,0.00,234,MyOwnSoftware,2013-02-19 12:57:00,
2013-02-19 12:58:00,40.5,38.4,30.20,North,0,3.0,5.0,92,0.00,,,0.00,234,MyOwnSoftware,2013-02-19 12:58:00,
2013-02-19 12:59:00,40.5,38.4,30.20,North,0,5.0,8.0,92,0.00,,,0.00,209,MyOwnSoftware,2013-02-19 12:59:00,
2013-02-19 13:00:00,40.5,38.4,30.19,North,0,2.0,3.0,92,0.00,,,0.00,206,MyOwnSoftware,2013-02-19 13:00:00,
2013-02-19 13:01:00,40.6,38.5,30.19,North,0,3.0,5.0,92,0.00,,,0.00,190,MyOwnSoftware,2013-02-19 13:01:00,
2013-02-19 13:02:00,40.6,38.5,30.19,North,0,3.0,5.0,92,0.00,,,0.00,169,MyOwnSoftware,2013-02-19 13:02:00,
2013-02-19 13:03:00,40.6,38.5,30.19,North,0,3.0,6.0,92,0.00,,,0.00,145,MyOwnSoftware,2013-02-19 13:03:00,
2013-02-19 13:04:00,40.6,38.2,30.19,North,0,3.0,4.0,91,0.00,,,0.00,137,MyOwnSoftware,2013-02-19 13:04:00,
2013-02-19 13:05:00,40.6,38.2,30.19,North,0,3.0,4.0,91,0.00,,,0.00,132,MyOwnSoftware,2013-02-19 13:05:00,
2013-02-19 13:07:00,40.5,38.0,30.19,NNE,16,2.0,-999.0,92,-99.99,,,0.00,121,weatherlink.com 1.10,2013-02-19 13:07:00,
2013-02-19 13:09:00,40.5,38.4,30.19,NNE,22,2.0,5.0,92,0.00,,,0.00,121,MyOwnSoftware,2013-02-19 13:09:00,
2013-02-19 13:10:00,40.5,38.4,30.19,NNE,22,3.0,5.0,92,0.00,,,0.00,118,MyOwnSoftware,2013-02-19 13:10:00,
2013-02-19 13:11:00,40.6,38.5,30.19,NNE,22,2.0,3.0,92,0.00,,,0.00,120,MyOwnSoftware,2013-02-19 13:11:00,
2013-02-19 13:12:00,40.6,38.7,30.19,North,0,2.0,4.0,93,0.00,,,0.00,125,MyOwnSoftware,2013-02-19 13:12:00,
2013-02-19 13:13:00,40.6,38.7,30.19,North,0,2.0,3.0,93,0.00,,,0.00,128,MyOwnSoftware,2013-02-19 13:13:00,
2013-02-19 13:14:00,40.6,38.7,30.19,North,0,2.0,3.0,93,0.00,,,0.00,127,MyOwnSoftware,2013-02-19 13:14:00,
2013-02-19 13:15:00,40.5,38.1,30.19,NNE,22,2.0,3.0,91,0.00,,,0.00,127,MyOwnSoftware,2013-02-19 13:15:00,
2013-02-19 13:16:00,40.8,38.9,30.19,North,0,2.0,3.0,93,0.00,,,0.00,143,MyOwnSoftware,2013-02-19 13:16:00,
2013-02-19 13:17:00,40.8,38.9,30.19,North,0,2.0,3.0,93,0.00,,,0.00,141,MyOwnSoftware,2013-02-19 13:17:00,
2013-02-19 13:18:00,40.8,38.9,30.19,North,0,2.0,5.0,93,0.00,,,0.00,137,MyOwnSoftware,2013-02-19 13:18:00,
2013-02-19 13:19:00,40.8,38.9,30.19,North,0,4.0,7.0,93,0.00,,,0.00,128,MyOwnSoftware,2013-02-19 13:19:00,
2013-02-19 13:20:00,40.8,38.9,30.19,North,0,3.0,6.0,93,0.00,,,0.00,125,MyOwnSoftware,2013-02-19 13:20:00,
2013-02-19 13:21:00,40.8,39.2,30.19,North,0,2.0,3.0,94,0.00,,,0.00,125,MyOwnSoftware,2013-02-19 13:21:00,
2013-02-19 13:22:00,40.8,39.0,30.19,North,359,1.0,-999.0,94,-99.99,,,0.00,127,weatherlink.com 1.10,2013-02-19 13:22:00,
2013-02-19 13:23:00,40.8,39.2,30.19,North,0,2.0,3.0,94,0.00,,,0.00,127,MyOwnSoftware,2013-02-19 13:23:00,
2013-02-19 13:24:00,40.8,39.2,30.19,North,0,2.0,6.0,94,0.00,,,0.00,127,MyOwnSoftware,2013-02-19 13:24:00,
2013-02-19 13:25:00,40.8,39.2,30.19,North,0,3.0,5.0,94,0.00,,,0.00,127,MyOwnSoftware,2013-02-19 13:25:00,
2013-02-19 13:29:00,40.8,39.5,30.19,North,0,2.0,3.0,95,0.00,,,0.00,141,MyOwnSoftware,2013-02-19 13:29:00,
2013-02-19 13:30:00,40.8,39.5,30.19,North,0,2.0,3.0,95,0.00,,,0.00,132,MyOwnSoftware,2013-02-19 13:30:00,
2013-02-19 13:31:00,40.9,39.8,30.19,North,0,2.0,3.0,96,0.00,,,0.00,123,MyOwnSoftware,2013-02-19 13:31:00,
2013-02-19 13:32:00,40.9,39.8,30.19,North,0,3.0,6.0,96,0.00,,,0.00,123,MyOwnSoftware,2013-02-19 13:32:00,
2013-02-19 13:33:00,40.9,39.8,30.19,NW,315,3.0,6.0,96,0.00,,,0.00,123,MyOwnSoftware,2013-02-19 13:33:00,
2013-02-19 13:34:00,40.9,39.8,30.19,North,0,5.0,7.0,96,0.00,,,0.00,118,MyOwnSoftware,2013-02-19 13:34:00,
2013-02-19 13:35:00,40.8,39.2,30.19,North,0,3.0,4.0,94,0.00,,,0.00,127,MyOwnSoftware,2013-02-19 13:35:00,
2013-02-19 13:39:00,40.9,39.8,30.19,NNW,338,2.0,3.0,96,0.00,,,0.00,111,MyOwnSoftware,2013-02-19 13:39:00,
2013-02-19 13:40:00,40.9,40.1,30.19,NNW,338,1.0,2.0,97,0.00,,,0.00,111,MyOwnSoftware,2013-02-19 13:40:00,
2013-02-19 13:41:00,40.9,40.1,30.19,NNW,338,2.0,3.0,97,0.00,,,0.00,104,MyOwnSoftware,2013-02-19 13:41:00,
2013-02-19 13:42:00,41.1,40.3,30.19,NNW,338,3.0,4.0,97,0.00,,,0.00,99,MyOwnSoftware,2013-02-19 13:42:00,
2013-02-19 13:43:00,40.9,39.8,30.19,NE,45,3.0,4.0,96,0.00,,,0.00,99,MyOwnSoftware,2013-02-19 13:43:00,
2013-02-19 13:44:00,40.9,40.1,30.19,NE,45,2.0,3.0,97,0.00,,,0.00,102,MyOwnSoftware,2013-02-19 13:44:00,
2013-02-19 13:45:00,40.9,39.8,30.19,North,0,2.0,3.0,96,0.00,,,0.00,109,MyOwnSoftware,2013-02-19 13:45:00,
2013-02-19 13:49:00,40.9,40.1,30.19,North,0,3.0,6.0,97,0.00,,,0.00,118,MyOwnSoftware,2013-02-19 13:49:00,
2013-02-19 13:50:00,40.9,40.1,30.19,North,0,2.0,5.0,97,0.00,,,0.00,116,MyOwnSoftware,2013-02-19 13:50:00,
2013-02-19 13:51:00,40.9,40.1,30.19,North,0,2.0,2.0,97,0.00,,,0.00,116,MyOwnSoftware,2013-02-19 13:51:00,
2013-02-19 13:52:00,40.9,40.0,30.19,North,0,2.0,-999.0,97,-99.99,,,0.00,123,weatherlink.com 1.10,2013-02-19 13:52:00,
2013-02-19 13:53:00,40.9,40.1,30.19,North,0,2.0,3.0,97,0.00,,,0.00,126,MyOwnSoftware,2013-02-19 13:53:00,
2013-02-19 13:54:00,40.9,40.1,30.19,North,0,2.0,3.0,97,0.00,,,0.00,139,MyOwnSoftware,2013-02-19 13:54:00,
2013-02-19 13:55:00,40.9,40.1,30.19,North,0,1.0,3.0,97,0.00,,,0.00,157,MyOwnSoftware,2013-02-19 13:55:00,
2013-02-19 13:56:00,41.1,40.3,30.19,North,0,1.0,3.0,97,0.00,,,0.00,188,MyOwnSoftware,2013-02-19 13:56:00,
2013-02-19 13:57:00,41.1,40.3,30.19,North,0,3.0,5.0,97,0.00,,,0.00,206,MyOwnSoftware,2013-02-19 13:57:00,
2013-02-19 13:58:00,41.1,40.3,30.19,North,0,4.0,6.0,97,0.00,,,0.00,166,MyOwnSoftware,2013-02-19 13:58:00,
2013-02-19 13:59:00,41.1,40.3,30.19,North,0,3.0,6.0,97,0.00,,,0.00,137,MyOwnSoftware,2013-02-19 13:59:00,
2013-02-19 14:00:00,41.1,40.3,30.19,North,0,2.0,4.0,97,0.00,,,0.00,125,MyOwnSoftware,2013-02-19 14:00:00,
2013-02-19 14:01:00,41.1,40.3,30.19,North,0,3.0,6.0,97,0.00,,,0.00,116,MyOwnSoftware,2013-02-19 14:01:00,
2013-02-19 14:02:00,41.1,40.6,30.19,North,0,2.0,5.0,98,0.00,,,0.00,116,MyOwnSoftware,2013-02-19 14:02:00,
2013-02-19 14:03:00,41.1,40.6,30.19,NNE,22,3.0,5.0,98,0.00,,,0.00,110,MyOwnSoftware,2013-02-19 14:03:00,
2013-02-19 14:04:00,41.1,40.6,30.19,North,0,2.0,3.0,98,0.00,,,0.00,107,MyOwnSoftware,2013-02-19 14:04:00,
2013-02-19 14:05:00,41.1,40.6,30.19,North,0,2.0,3.0,98,0.00,,,0.00,111,MyOwnSoftware,2013-02-19 14:05:00,
2013-02-19 14:08:00,41.1,41.0,30.19,North,0,2.0,-999.0,98,-99.99,,,0.00,150,weatherlink.com 1.10,2013-02-19 14:08:00,
2013-02-19 14:09:00,41.1,40.6,30.19,North,0,5.0,5.0,98,0.00,,,0.00,143,MyOwnSoftware,2013-02-19 14:09:00,
2013-02-19 14:10:00,41.1,40.6,30.19,North,0,3.0,4.0,98,0.00,,,0.00,143,MyOwnSoftware,2013-02-19 14:10:00,
2013-02-19 14:11:00,41.1,40.6,30.19,North,0,2.0,3.0,98,0.00,,,0.00,134,MyOwnSoftware,2013-02-19 14:11:00,
2013-02-19 14:12:00,41.1,40.6,30.19,North,0,2.0,5.0,98,0.00,,,0.00,128,MyOwnSoftware,2013-02-19 14:12:00,
2013-02-19 14:13:00,41.1,40.6,30.19,NNW,338,3.0,6.0,98,0.00,,,0.00,143,MyOwnSoftware,2013-02-19 14:13:00,
2013-02-19 14:14:00,41.1,40.6,30.19,NNW,338,3.0,5.0,98,0.00,,,0.00,137,MyOwnSoftware,2013-02-19 14:14:00,
2013-02-19 14:15:00,41.1,40.6,30.19,North,0,3.0,6.0,98,0.00,,,0.00,118,MyOwnSoftware,2013-02-19 14:15:00,
2013-02-19 14:16:00,41.1,40.6,30.18,North,0,2.0,3.0,98,0.00,,,0.00,128,MyOwnSoftware,2013-02-19 14:16:00,
2013-02-19 14:17:00,41.1,40.6,30.18,North,0,2.0,4.0,98,0.00,,,0.00,137,MyOwnSoftware,2013-02-19 14:17:00,
2013-02-19 14:18:00,41.1,40.6,30.18,North,0,2.0,5.0,98,0.00,,,0.00,138,MyOwnSoftware,2013-02-19 14:18:00,
2013-02-19 14:19:00,41.1,40.6,30.18,North,0,2.0,5.0,98,0.00,,,0.00,127,MyOwnSoftware,2013-02-19 14:19:00,
2013-02-19 14:20:00,41.1,40.6,30.18,North,0,2.0,3.0,98,0.00,,,0.00,135,MyOwnSoftware,2013-02-19 14:20:00,
2013-02-19 14:21:00,41.1,40.6,30.18,NNW,338,3.0,5.0,98,0.00,,,0.00,127,MyOwnSoftware,2013-02-19 14:21:00,
2013-02-19 14:22:00,41.1,40.6,30.18,NNW,338,3.0,5.0,98,0.00,,,0.00,120,MyOwnSoftware,2013-02-19 14:22:00,
2013-02-19 14:23:00,41.1,41.0,30.18,NNW,346,3.0,-999.0,98,-99.99,,,0.00,127,weatherlink.com 1.10,2013-02-19 14:23:00,
2013-02-19 14:24:00,41.1,40.6,30.18,NNW,338,2.0,3.0,98,0.00,,,0.00,134,MyOwnSoftware,2013-02-19 14:24:00,
2013-02-19 14:25:00,41.1,40.6,30.18,NNW,338,2.0,3.0,98,0.00,,,0.00,148,MyOwnSoftware,2013-02-19 14:25:00,
2013-02-19 14:29:00,41.1,40.6,30.18,North,0,2.0,3.0,98,0.00,,,0.00,144,MyOwnSoftware,2013-02-19 14:29:00,
2013-02-19 14:30:00,41.1,40.6,30.18,North,0,2.0,3.0,98,0.00,,,0.00,137,MyOwnSoftware,2013-02-19 14:30:00,
2013-02-19 14:31:00,41.1,40.6,30.18,North,0,1.0,2.0,98,0.00,,,0.00,134,MyOwnSoftware,2013-02-19 14:31:00,
2013-02-19 14:32:00,41.1,40.6,30.18,North,0,2.0,4.0,98,0.00,,,0.00,127,MyOwnSoftware,2013-02-19 14:32:00,
2013-02-19 14:33:00,41.1,40.6,30.18,North,0,1.0,2.0,98,0.00,,,0.00,117,MyOwnSoftware,2013-02-19 14:33:00,
2013-02-19 14:34:00,41.1,40.6,30.18,North,0,1.0,2.0,98,0.00,,,0.00,114,MyOwnSoftware,2013-02-19 14:34:00,
2013-02-19 14:35:00,41.1,40.6,30.18,NNW,338,2.0,3.0,98,0.00,,,0.00,150,MyOwnSoftware,2013-02-19 14:35:00,
2013-02-19 14:39:00,41.1,40.6,30.18,North,0,2.0,5.0,98,0.00,,,0.00,135,MyOwnSoftware,2013-02-19 14:39:00,
2013-02-19 14:40:00,41.1,40.6,30.18,NE,45,2.0,3.0,98,0.00,,,0.00,125,MyOwnSoftware,2013-02-19 14:40:00,
2013-02-19 14:41:00,41.1,40.6,30.18,NNE,22,2.0,3.0,98,0.00,,,0.00,114,MyOwnSoftware,2013-02-19 14:41:00,
2013-02-19 14:42:00,41.1,40.6,30.18,NNW,338,3.0,7.0,98,0.00,,,0.00,104,MyOwnSoftware,2013-02-19 14:42:00,
2013-02-19 14:43:00,41.1,40.6,30.18,North,0,2.0,4.0,98,0.00,,,0.00,112,MyOwnSoftware,2013-02-19 14:43:00,
2013-02-19 14:44:00,41.1,40.6,30.18,North,0,3.0,5.0,98,0.00,,,0.00,104,MyOwnSoftware,2013-02-19 14:44:00,
2013-02-19 14:45:00,41.1,40.6,30.18,North,0,1.0,2.0,98,0.00,,,0.00,132,MyOwnSoftware,2013-02-19 14:45:00,
2013-02-19 14:49:00,41.1,40.8,30.18,North,0,2.0,3.0,99,0.00,,,0.00,90,MyOwnSoftware,2013-02-19 14:49:00,
2013-02-19 14:50:00,41.1,40.8,30.18,North,0,2.0,3.0,99,0.00,,,0.00,99,MyOwnSoftware,2013-02-19 14:50:00,
2013-02-19 14:51:00,41.1,40.8,30.18,North,0,2.0,3.0,99,0.00,,,0.00,114,MyOwnSoftware,2013-02-19 14:51:00,
2013-02-19 14:52:00,41.1,40.8,30.18,North,0,2.0,3.0,99,0.00,,,0.00,114,MyOwnSoftware,2013-02-19 14:52:00,
2013-02-19 14:53:00,41.1,41.0,30.18,North,0,2.0,-999.0,99,-99.99,,,0.00,90,weatherlink.com 1.10,2013-02-19 14:53:00,
2013-02-19 14:54:00,41.1,40.8,30.18,North,0,2.0,3.0,99,0.00,,,0.00,86,MyOwnSoftware,2013-02-19 14:54:00,
2013-02-19 14:55:00,41.1,40.8,30.18,North,0,2.0,3.0,99,0.00,,,0.00,86,MyOwnSoftware,2013-02-19 14:55:00,
2013-02-19 14:56:00,41.1,40.8,30.18,North,0,1.0,2.0,99,0.00,,,0.00,91,MyOwnSoftware,2013-02-19 14:56:00,
2013-02-19 14:57:00,41.1,40.8,30.18,North,0,1.0,2.0,99,0.00,,,0.00,83,MyOwnSoftware,2013-02-19 14:57:00,
2013-02-19 14:58:00,41.1,40.8,30.18,North,0,1.0,2.0,99,0.00,,,0.00,84,MyOwnSoftware,2013-02-19 14:58:00,
2013-02-19 14:59:00,41.2,40.9,30.18,North,0,2.0,3.0,99,0.00,,,0.00,83,MyOwnSoftware,2013-02-19 14:59:00,
2013-02-19 15:00:00,41.2,40.9,30.18,North,0,2.0,3.0,99,0.00,,,0.00,77,MyOwnSoftware,2013-02-19 15:00:00,
2013-02-19 15:01:00,41.1,40.8,30.18,North,0,2.0,5.0,99,0.00,,,0.00,79,MyOwnSoftware,2013-02-19 15:01:00,
2013-02-19 15:02:00,41.1,40.8,30.18,North,0,3.0,4.0,99,0.00,,,0.00,83,MyOwnSoftware,2013-02-19 15:02:00,
2013-02-19 15:03:00,41.1,40.8,30.18,NNW,338,2.0,3.0,99,0.00,,,0.00,91,MyOwnSoftware,2013-02-19 15:03:00,
2013-02-19 15:04:00,41.1,40.8,30.18,NNW,338,2.0,3.0,99,0.00,,,0.00,91,MyOwnSoftware,2013-02-19 15:04:00,
2013-02-19 15:05:00,41.1,40.8,30.18,NNE,22,2.0,3.0,99,0.00,,,0.00,90,MyOwnSoftware,2013-02-19 15:05:00,
2013-02-19 15:08:00,41.1,41.0,30.18,North,0,5.0,-999.0,99,-99.99,,,0.00,90,weatherlink.com 1.10,2013-02-19 15:08:00,
2013-02-19 15:09:00,41.1,40.8,30.18,North,0,3.0,5.0,99,0.00,,,0.00,93,MyOwnSoftware,2013-02-19 15:09:00,
2013-02-19 15:10:00,40.9,40.6,30.18,North,0,2.0,4.0,99,0.00,,,0.00,86,MyOwnSoftware,2013-02-19 15:10:00,
2013-02-19 15:11:00,40.9,40.6,30.18,NNE,22,2.0,4.0,99,0.00,,,0.00,81,MyOwnSoftware,2013-02-19 15:11:00,
2013-02-19 15:12:00,40.9,40.6,30.18,North,0,3.0,5.0,99,0.00,,,0.00,86,MyOwnSoftware,2013-02-19 15:12:00,
2013-02-19 15:13:00,40.9,40.6,30.18,North,0,3.0,6.0,99,0.00,,,0.00,94,MyOwnSoftware,2013-02-19 15:13:00,
2013-02-19 15:14:00,40.9,40.6,30.18,North,0,4.0,6.0,99,0.00,,,0.00,90,MyOwnSoftware,2013-02-19 15:14:00,
2013-02-19 15:15:00,41.1,40.8,30.18,NNE,22,2.0,5.0,99,0.00,,,0.00,86,MyOwnSoftware,2013-02-19 15:15:00,
2013-02-19 15:16:00,40.9,40.6,30.18,North,0,3.0,6.0,99,0.00,,,0.00,86,MyOwnSoftware,2013-02-19 15:16:00,
2013-02-19 15:17:00,40.8,40.5,30.18,NNE,22,3.0,6.0,99,0.00,,,0.00,83,MyOwnSoftware,2013-02-19 15:17:00,
2013-02-19 15:18:00,40.8,40.8,30.18,NNE,22,3.0,5.0,100,0.00,,,0.00,80,MyOwnSoftware,2013-02-19 15:18:00,
2013-02-19 15:19:00,40.8,40.8,30.18,North,0,2.0,6.0,100,0.00,,,0.00,74,MyOwnSoftware,2013-02-19 15:19:00,
2013-02-19 15:20:00,40.9,40.9,30.18,North,0,3.0,5.0,100,0.00,,,0.00,69,MyOwnSoftware,2013-02-19 15:20:00,
2013-02-19 15:21:00,40.9,40.9,30.18,North,0,3.0,6.0,100,0.00,,,0.00,67,MyOwnSoftware,2013-02-19 15:21:00,
2013-02-19 15:22:00,40.9,40.9,30.18,North,0,3.0,5.0,100,0.00,,,0.00,65,MyOwnSoftware,2013-02-19 15:22:00,
2013-02-19 15:23:00,40.9,41.0,30.18,North,359,4.0,-999.0,100,-99.99,,,0.00,63,weatherlink.com 1.10,2013-02-19 15:23:00,
2013-02-19 15:24:00,40.8,40.8,30.18,North,0,3.0,5.0,100,0.00,,,0.00,72,MyOwnSoftware,2013-02-19 15:24:00,
2013-02-19 15:25:00,40.8,40.8,30.18,North,0,2.0,3.0,100,0.00,,,0.00,70,MyOwnSoftware,2013-02-19 15:25:00,
2013-02-19 15:29:00,40.8,40.8,30.18,North,0,4.0,6.0,100,0.00,,,0.00,58,MyOwnSoftware,2013-02-19 15:29:00,
2013-02-19 15:30:00,40.8,40.8,30.18,North,0,3.0,5.0,100,0.00,,,0.00,56,MyOwnSoftware,2013-02-19 15:30:00,
2013-02-19 15:31:00,40.8,40.8,30.18,North,0,4.0,7.0,100,0.00,,,0.00,62,MyOwnSoftware,2013-02-19 15:31:00,
2013-02-19 15:32:00,40.8,40.8,30.18,North,0,3.0,6.0,100,0.00,,,0.00,63,MyOwnSoftware,2013-02-19 15:32:00,
2013-02-19 15:33:00,40.8,40.8,30.18,NNE,22,3.0,5.0,100,0.00,,,0.00,64,MyOwnSoftware,2013-02-19 15:33:00,
2013-02-19 15:34:00,40.8,40.8,30.18,North,0,4.0,6.0,100,0.00,,,0.00,67,MyOwnSoftware,2013-02-19 15:34:00,
2013-02-19 15:35:00,40.8,40.8,30.18,North,0,3.0,6.0,100,0.00,,,0.00,63,MyOwnSoftware,2013-02-19 15:35:00,
2013-02-19 15:39:00,40.8,40.8,30.18,North,0,2.0,5.0,100,0.00,,,0.00,55,MyOwnSoftware,2013-02-19 15:39:00,
2013-02-19 15:40:00,40.8,40.8,30.18,NNE,22,3.0,6.0,100,0.00,,,0.00,55,MyOwnSoftware,2013-02-19 15:40:00,
2013-02-19 15:41:00,40.8,40.8,30.18,NNE,22,3.0,5.0,100,0.00,,,0.00,55,MyOwnSoftware,2013-02-19 15:41:00,
2013-02-19 15:42:00,40.8,40.8,30.18,NNE,22,4.0,6.0,100,0.00,,,0.00,55,MyOwnSoftware,2013-02-19 15:42:00,
2013-02-19 15:43:00,40.8,40.8,30.18,NNE,22,3.0,6.0,100,0.00,,,0.00,56,MyOwnSoftware,2013-02-19 15:43:00,
2013-02-19 15:44:00,40.8,40.8,30.18,NNE,22,3.0,6.0,100,0.00,,,0.00,55,MyOwnSoftware,2013-02-19 15:44:00,
2013-02-19 15:45:00,40.8,40.8,30.18,North,0,4.0,5.0,100,0.00,,,0.00,67,MyOwnSoftware,2013-02-19 15:45:00,
2013-02-19 15:49:00,40.8,40.8,30.18,NNE,22,3.0,5.0,100,0.00,,,0.00,48,MyOwnSoftware,2013-02-19 15:49:00,
2013-02-19 15:50:00,40.8,40.8,30.18,North,0,3.0,7.0,100,0.00,,,0.00,46,MyOwnSoftware,2013-02-19 15:50:00,
2013-02-19 15:51:00,40.8,40.8,30.18,NNE,22,6.0,8.0,100,0.00,,,0.00,46,MyOwnSoftware,2013-02-19 15:51:00,
2013-02-19 15:52:00,40.6,40.6,30.18,North,0,4.0,7.0,100,0.00,,,0.00,44,MyOwnSoftware,2013-02-19 15:52:00,
2013-02-19 15:53:00,40.6,41.0,30.18,North,3,2.0,-999.0,100,-99.99,,,0.00,44,weatherlink.com 1.10,2013-02-19 15:53:00,
2013-02-19 15:54:00,40.6,40.6,30.18,North,0,3.0,8.0,100,0.00,,,0.00,44,MyOwnSoftware,2013-02-19 15:54:00,
2013-02-19 15:55:00,40.6,40.6,30.18,North,0,4.0,8.0,100,0.00,,,0.00,42,MyOwnSoftware,2013-02-19 15:55:00,
2013-02-19 15:56:00,40.6,40.6,30.18,North,0,2.0,3.0,100,0.00,,,0.00,39,MyOwnSoftware,2013-02-19 15:56:00,
2013-02-19 15:57:00,40.8,40.8,30.18,North,0,2.0,5.0,100,0.00,,,0.00,39,MyOwnSoftware,2013-02-19 15:57:00,
2013-02-19 15:58:00,40.8,40.8,30.18,North,0,4.0,6.0,100,0.00,,,0.00,39,MyOwnSoftware,2013-02-19 15:58:00,
2013-02-19 15:59:00,40.8,40.8,30.18,NNW,338,4.0,6.0,100,0.00,,,0.00,39,MyOwnSoftware,2013-02-19 15:59:00,
2013-02-19 16:00:00,40.8,40.8,30.18,NNW,338,2.0,3.0,100,0.00,,,0.00,33,MyOwnSoftware,2013-02-19 16:00:00,
2013-02-19 16:01:00,40.8,40.8,30.18,NNW,338,1.0,3.0,100,0.00,,,0.00,33,MyOwnSoftware,2013-02-19 16:01:00,
2013-02-19 16:02:00,40.8,40.8,30.18,North,0,4.0,8.0,100,0.00,,,0.00,33,MyOwnSoftware,2013-02-19 16:02:00,
2013-02-19 16:03:00,40.8,40.8,30.18,North,0,4.0,6.0,100,0.00,,,0.00,33,MyOwnSoftware,2013-02-19 16:03:00,
2013-02-19 16:04:00,40.8,40.8,30.18,NNW,338,3.0,5.0,100,0.00,,,0.00,32,MyOwnSoftware,2013-02-19 16:04:00,
2013-02-19 16:05:00,40.8,40.8,30.18,NNW,338,3.0,6.0,100,0.00,,,0.00,32,MyOwnSoftware,2013-02-19 16:05:00,
2013-02-19 16:08:00,40.8,41.0,30.18,North,359,2.0,-999.0,100,-99.99,,,0.00,33,weatherlink.com 1.10,2013-02-19 16:08:00,
2013-02-19 16:09:00,40.8,40.8,30.18,North,0,2.0,3.0,100,0.00,,,0.00,33,MyOwnSoftware,2013-02-19 16:09:00,
2013-02-19 16:10:00,40.8,40.8,30.18,North,0,3.0,6.0,100,0.00,,,0.00,33,MyOwnSoftware,2013-02-19 16:10:00,
2013-02-19 16:11:00,40.8,40.8,30.18,North,0,4.0,8.0,100,0.00,,,0.00,33,MyOwnSoftware,2013-02-19 16:11:00,
2013-02-19 16:12:00,40.8,40.8,30.18,North,0,3.0,6.0,100,0.00,,,0.00,33,MyOwnSoftware,2013-02-19 16:12:00,
2013-02-19 16:13:00,40.8,40.8,30.18,North,0,3.0,6.0,100,0.00,,,0.00,35,MyOwnSoftware,2013-02-19 16:13:00,
2013-02-19 16:14:00,40.8,40.8,30.18,North,0,3.0,6.0,100,0.00,,,0.00,35,MyOwnSoftware,2013-02-19 16:14:00,
2013-02-19 16:15:00,40.8,40.8,30.18,North,0,3.0,4.0,100,0.00,,,0.00,32,MyOwnSoftware,2013-02-19 16:15:00,
2013-02-19 16:16:00,40.8,40.8,30.18,North,0,2.0,3.0,100,0.00,,,0.00,35,MyOwnSoftware,2013-02-19 16:16:00,
2013-02-19 16:17:00,40.8,40.8,30.18,North,0,2.0,4.0,100,0.00,,,0.00,32,MyOwnSoftware,2013-02-19 16:17:00,
2013-02-19 16:18:00,40.9,40.9,30.18,North,0,2.0,2.0,100,0.00,,,0.00,32,MyOwnSoftware,2013-02-19 16:18:00,
2013-02-19 16:19:00,40.9,40.9,30.18,North,0,1.0,3.0,100,0.00,,,0.00,32,MyOwnSoftware,2013-02-19 16:19:00,
2013-02-19 16:20:00,40.9,40.9,30.18,North,0,1.0,3.0,100,0.00,,,0.00,32,MyOwnSoftware,2013-02-19 16:20:00,
2013-02-19 16:21:00,40.9,40.9,30.18,North,0,3.0,5.0,100,0.00,,,0.00,26,MyOwnSoftware,2013-02-19 16:21:00,
2013-02-19 16:22:00,40.9,40.9,30.18,North,0,2.0,3.0,100,0.00,,,0.00,26,MyOwnSoftware,2013-02-19 16:22:00,
2013-02-19 16:23:00,40.9,41.0,30.18,North,353,3.0,-999.0,100,-99.99,,,0.00,26,weatherlink.com 1.10,2013-02-19 16:23:00,
2013-02-19 16:24:00,40.9,40.9,30.18,North,0,2.0,3.0,100,0.00,,,0.00,26,MyOwnSoftware,2013-02-19 16:24:00,
2013-02-19 16:25:00,40.9,40.9,30.18,North,0,1.0,2.0,100,0.00,,,0.00,25,MyOwnSoftware,2013-02-19 16:25:00,
2013-02-19 16:29:00,40.9,40.9,30.18,NNE,22,2.0,3.0,100,0.00,,,0.00,23,MyOwnSoftware,2013-02-19 16:29:00,
2013-02-19 16:30:00,40.9,40.9,30.19,NNE,22,3.0,5.0,100,0.00,,,0.00,23,MyOwnSoftware,2013-02-19 16:30:00,
2013-02-19 16:31:00,40.9,40.9,30.19,NNE,22,3.0,3.0,100,0.00,,,0.00,23,MyOwnSoftware,2013-02-19 16:31:00,
2013-02-19 16:32:00,40.9,40.9,30.19,NNE,22,2.0,4.0,100,0.00,,,0.00,23,MyOwnSoftware,2013-02-19 16:32:00,
2013-02-19 16:33:00,40.9,40.9,30.19,NE,45,3.0,5.0,100,0.00,,,0.00,22,MyOwnSoftware,2013-02-19 16:33:00,
2013-02-19 16:34:00,40.9,40.9,30.19,NE,45,4.0,5.0,100,0.00,,,0.00,21,MyOwnSoftware,2013-02-19 16:34:00,
2013-02-19 16:35:00,40.9,40.9,30.18,North,0,2.0,5.0,100,0.00,,,0.00,25,MyOwnSoftware,2013-02-19 16:35:00,
2013-02-19 16:39:00,40.9,40.9,30.19,NE,45,3.0,4.0,100,0.00,,,0.00,18,MyOwnSoftware,2013-02-19 16:39:00,
2013-02-19 16:40:00,40.9,40.9,30.19,North,0,4.0,6.0,100,0.00,,,0.00,18,MyOwnSoftware,2013-02-19 16:40:00,
2013-02-19 16:41:00,40.9,40.9,30.19,North,0,3.0,6.0,100,0.00,,,0.00,18,MyOwnSoftware,2013-02-19 16:41:00,
2013-02-19 16:42:00,40.9,40.9,30.19,NNE,22,3.0,5.0,100,0.00,,,0.00,14,MyOwnSoftware,2013-02-19 16:42:00,
2013-02-19 16:43:00,40.9,40.9,30.19,North,0,3.0,5.0,100,0.00,,,0.00,14,MyOwnSoftware,2013-02-19 16:43:00,
2013-02-19 16:44:00,40.9,40.9,30.19,NE,45,3.0,6.0,100,0.00,,,0.00,14,MyOwnSoftware,2013-02-19 16:44:00,
2013-02-19 16:45:00,40.9,40.9,30.19,NE,45,2.0,5.0,100,0.00,,,0.00,21,MyOwnSoftware,2013-02-19 16:45:00,
2013-02-19 16:49:00,40.8,40.8,30.19,NNE,22,4.0,7.0,100,0.00,,,0.00,12,MyOwnSoftware,2013-02-19 16:49:00,
2013-02-19 16:50:00,40.8,40.8,30.19,North,0,4.0,6.0,100,0.00,,,0.00,12,MyOwnSoftware,2013-02-19 16:50:00,
2013-02-19 16:51:00,40.8,40.8,30.19,North,0,3.0,6.0,100,0.00,,,0.00,12,MyOwnSoftware,2013-02-19 16:51:00,
2013-02-19 16:52:00,40.8,40.8,30.19,North,0,4.0,6.0,100,0.00,,,0.00,12,MyOwnSoftware,2013-02-19 16:52:00,
2013-02-19 16:53:00,40.8,41.0,30.19,NNE,24,8.0,-999.0,100,-99.99,,,0.00,12,weatherlink.com 1.10,2013-02-19 16:53:00,
2013-02-19 16:54:00,40.8,40.8,30.19,NE,45,6.0,8.0,100,0.00,,,0.00,7,MyOwnSoftware,2013-02-19 16:54:00,
2013-02-19 16:55:00,40.8,40.8,30.19,NNE,22,4.0,6.0,100,0.00,,,0.00,7,MyOwnSoftware,2013-02-19 16:55:00,
2013-02-19 16:56:00,40.6,40.6,30.19,NE,45,4.0,6.0,100,0.00,,,0.00,7,MyOwnSoftware,2013-02-19 16:56:00,
2013-02-19 16:57:00,40.6,40.6,30.19,NNE,22,3.0,5.0,100,0.00,,,0.00,7,MyOwnSoftware,2013-02-19 16:57:00,
2013-02-19 16:58:00,40.6,40.6,30.19,NNE,22,4.0,7.0,100,0.00,,,0.00,7,MyOwnSoftware,2013-02-19 16:58:00,
2013-02-19 16:59:00,40.6,40.6,30.19,North,0,3.0,6.0,100,0.00,,,0.00,7,MyOwnSoftware,2013-02-19 16:59:00,
2013-02-19 17:00:00,40.6,40.6,30.19,North,0,5.0,7.0,100,0.00,,,0.00,7,MyOwnSoftware,2013-02-19 17:00:00,
2013-02-19 17:01:00,40.6,40.6,30.19,North,0,3.0,3.0,100,0.00,,,0.00,7,MyOwnSoftware,2013-02-19 17:01:00,
2013-02-19 17:02:00,40.6,40.6,30.19,NNE,22,4.0,6.0,100,0.00,,,0.00,7,MyOwnSoftware,2013-02-19 17:02:00,
2013-02-19 17:03:00,40.6,40.6,30.19,NNE,22,2.0,4.0,100,0.00,,,0.00,5,MyOwnSoftware,2013-02-19 17:03:00,
2013-02-19 17:04:00,40.6,40.6,30.19,NNE,22,2.0,3.0,100,0.00,,,0.00,5,MyOwnSoftware,2013-02-19 17:04:00,
2013-02-19 17:05:00,40.6,40.6,30.19,NNE,22,2.0,3.0,100,0.00,,,0.00,5,MyOwnSoftware,2013-02-19 17:05:00,
2013-02-19 17:08:00,40.5,41.0,30.19,NNE,28,3.0,-999.0,100,-99.99,,,0.00,7,weatherlink.com 1.10,2013-02-19 17:08:00,
2013-02-19 17:09:00,40.5,40.5,30.19,NNE,22,2.0,4.0,100,0.00,,,0.00,7,MyOwnSoftware,2013-02-19 17:09:00,
2013-02-19 17:10:00,40.5,40.5,30.19,NNE,22,2.0,3.0,100,0.00,,,0.00,7,MyOwnSoftware,2013-02-19 17:10:00,
2013-02-19 17:11:00,40.5,40.5,30.19,NNE,22,1.0,2.0,100,0.00,,,0.00,5,MyOwnSoftware,2013-02-19 17:11:00,
2013-02-19 17:12:00,40.5,40.5,30.19,NNE,22,2.0,3.0,100,0.00,,,0.00,5,MyOwnSoftware,2013-02-19 17:12:00,
2013-02-19 17:13:00,40.5,40.5,30.19,NNE,22,2.0,3.0,100,0.00,,,0.00,5,MyOwnSoftware,2013-02-19 17:13:00,
2013-02-19 17:14:00,40.5,40.5,30.19,NNE,22,1.0,3.0,100,0.00,,,0.00,5,MyOwnSoftware,2013-02-19 17:14:00,
2013-02-19 17:15:00,40.5,40.5,30.19,NE,45,4.0,6.0,100,0.00,,,0.00,5,MyOwnSoftware,2013-02-19 17:15:00,
2013-02-19 17:16:00,40.6,40.6,30.19,NNE,22,2.0,3.0,100,0.00,,,0.00,5,MyOwnSoftware,2013-02-19 17:16:00,
2013-02-19 17:17:00,40.6,40.6,30.19,NNE,22,1.0,3.0,100,0.00,,,0.00,5,MyOwnSoftware,2013-02-19 17:17:00,
2013-02-19 17:18:00,40.6,40.6,30.19,NNE,22,2.0,3.0,100,0.00,,,0.00,5,MyOwnSoftware,2013-02-19 17:18:00,
2013-02-19 17:19:00,40.6,40.6,30.19,NNE,22,2.0,3.0,100,0.00,,,0.00,0,MyOwnSoftware,2013-02-19 17:19:00,
2013-02-19 17:20:00,40.6,40.6,30.19,NNE,22,2.0,5.0,100,0.00,,,0.00,0,MyOwnSoftware,2013-02-19 17:20:00,
2013-02-19 17:21:00,40.6,40.6,30.19,NNE,22,3.0,5.0,100,0.00,,,0.00,0,MyOwnSoftware,2013-02-19 17:21:00,
2013-02-19 17:22:00,40.8,40.8,30.19,North,0,3.0,6.0,100,0.00,,,0.00,0,MyOwnSoftware,2013-02-19 17:22:00,
2013-02-19 17:23:00,40.8,41.0,30.19,NE,37,5.0,-999.0,100,-99.99,,,0.00,0,weatherlink.com 1.10,2013-02-19 17:23:00,
2013-02-19 17:24:00,40.6,40.6,30.19,NE,45,4.0,6.0,100,0.00,,,0.00,0,MyOwnSoftware,2013-02-19 17:24:00,
2013-02-19 17:25:00,40.6,40.6,30.19,NNE,22,4.0,6.0,100,0.00,,,0.00,0,MyOwnSoftware,2013-02-19 17:25:00,
2013-02-19 17:29:00,40.6,40.6,30.19,North,0,3.0,6.0,100,0.00,,,0.00,0,MyOwnSoftware,2013-02-19 17:29:00,
2013-02-19 17:30:00,40.6,40.6,30.19,North,0,3.0,6.0,100,0.00,,,0.00,0,MyOwnSoftware,2013-02-19 17:30:00,
2013-02-19 17:31:00,40.6,40.6,30.19,North,0,3.0,4.0,100,0.00,,,0.00,0,MyOwnSoftware,2013-02-19 17:31:00,
2013-02-19 17:32:00,40.6,40.6,30.19,North,0,4.0,6.0,100,0.00,,,0.00,0,MyOwnSoftware,2013-02-19 17:32:00,
2013-02-19 17:33:00,40.6,40.6,30.19,NNE,22,5.0,8.0,100,0.00,,,0.00,0,MyOwnSoftware,2013-02-19 17:33:00,
2013-02-19 17:34:00,40.6,40.6,30.19,NE,45,4.0,5.0,100,0.00,,,0.00,0,MyOwnSoftware,2013-02-19 17:34:00,
2013-02-19 17:35:00,40.6,40.6,30.19,North,0,3.0,4.0,100,0.00,,,0.00,0,MyOwnSoftware,2013-02-19 17:35:00,
2013-02-19 17:39:00,40.5,40.5,30.19,NNE,22,4.0,6.0,100,0.00,,,0.00,0,MyOwnSoftware,2013-02-19 17:39:00,
2013-02-19 17:40:00,40.5,40.5,30.19,NNE,22,3.0,6.0,100,0.00,,,0.00,0,MyOwnSoftware,2013-02-19 17:40:00,
2013-02-19 17:41:00,40.5,40.5,30.19,North,0,4.0,6.0,100,0.00,,,0.00,0,MyOwnSoftware,2013-02-19 17:41:00,
2013-02-19 17:42:00,40.5,40.5,30.19,NE,45,4.0,5.0,100,0.00,,,0.00,0,MyOwnSoftware,2013-02-19 17:42:00,
2013-02-19 17:43:00,40.5,40.5,30.19,NNE,22,2.0,4.0,100,0.00,,,0.00,0,MyOwnSoftware,2013-02-19 17:43:00,
2013-02-19 17:44:00,40.5,40.5,30.19,North,0,3.0,6.0,100,0.00,,,0.00,0,MyOwnSoftware,2013-02-19 17:44:00,
2013-02-19 17:45:00,40.5,40.5,30.19,NNE,22,2.0,4.0,100,0.00,,,0.00,0,MyOwnSoftware,2013-02-19 17:45:00,
2013-02-19 17:49:00,40.3,40.3,30.20,NNE,22,3.0,6.0,100,0.00,,,0.00,0,MyOwnSoftware,2013-02-19 17:49:00,
2013-02-19 17:50:00,40.3,40.3,30.20,NNE,22,3.0,5.0,100,0.00,,,0.00,0,MyOwnSoftware,2013-02-19 17:50:00,
2013-02-19 17:51:00,40.3,40.3,30.20,NNE,22,3.0,5.0,100,0.00,,,0.00,0,MyOwnSoftware,2013-02-19 17:51:00,
2013-02-19 17:52:00,40.3,40.3,30.20,NNE,22,3.0,4.0,100,0.00,,,0.00,0,MyOwnSoftware,2013-02-19 17:52:00,
2013-02-19 17:53:00,40.3,40.0,30.20,NNE,25,3.0,-999.0,100,-99.99,,,0.00,0,weatherlink.com 1.10,2013-02-19 17:53:00,
2013-02-19 17:54:00,40.3,40.3,30.20,NNE,22,3.0,3.0,100,0.00,,,0.00,0,MyOwnSoftware,2013-02-19 17:54:00,
2013-02-19 17:55:00,40.3,40.3,30.20,NE,45,3.0,6.0,100,0.00,,,0.00,0,MyOwnSoftware,2013-02-19 17:55:00,
2013-02-19 17:56:00,40.3,40.3,30.20,NNE,22,4.0,6.0,100,0.00,,,0.00,0,MyOwnSoftware,2013-02-19 17:56:00,
2013-02-19 17:57:00,40.3,40.3,30.20,NNE,22,3.0,4.0,100,0.00,,,0.00,0,MyOwnSoftware,2013-02-19 17:57:00,
2013-02-19 17:58:00,40.3,40.3,30.20,North,0,4.0,6.0,100,0.00,,,0.00,0,MyOwnSoftware,2013-02-19 17:58:00,
2013-02-19 17:59:00,40.3,40.3,30.20,North,0,5.0,6.0,100,0.00,,,0.00,0,MyOwnSoftware,2013-02-19 17:59:00,
2013-02-19 18:00:00,40.3,40.3,30.20,NE,45,4.0,6.0,100,0.00,,,0.00,0,MyOwnSoftware,2013-02-19 18:00:00,
2013-02-19 18:01:00,40.3,40.3,30.20,NNE,22,3.0,6.0,100,0.00,,,0.00,0,MyOwnSoftware,2013-02-19 18:01:00,
2013-02-19 18:02:00,40.3,40.3,30.20,North,0,3.0,5.0,100,0.00,,,0.00,0,MyOwnSoftware,2013-02-19 18:02:00,
2013-02-19 18:03:00,40.3,40.3,30.20,NNE,22,3.0,5.0,100,0.00,,,0.00,0,MyOwnSoftware,2013-02-19 18:03:00,
2013-02-19 18:04:00,40.3,40.3,30.20,NNE,22,5.0,7.0,100,0.00,,,0.00,0,MyOwnSoftware,2013-02-19 18:04:00,
2013-02-19 18:05:00,40.3,40.3,30.20,NE,45,3.0,6.0,100,0.00,,,0.00,0,MyOwnSoftware,2013-02-19 18:05:00,
2013-02-19 18:08:00,40.3,40.0,30.20,NNW,343,4.0,-999.0,100,-99.99,,,0.00,0,weatherlink.com 1.10,2013-02-19 18:08:00,
2013-02-19 18:09:00,40.3,40.3,30.20,NW,315,2.0,5.0,100,0.00,,,0.00,0,MyOwnSoftware,2013-02-19 18:09:00,
2013-02-19 18:10:00,40.3,40.3,30.20,North,0,2.0,4.0,100,0.00,,,0.00,0,MyOwnSoftware,2013-02-19 18:10:00,
2013-02-19 18:11:00,40.3,40.3,30.20,North,0,2.0,5.0,100,0.00,,,0.00,0,MyOwnSoftware,2013-02-19 18:11:00,
2013-02-19 18:12:00,40.3,40.3,30.20,North,0,2.0,4.0,100,0.00,,,0.00,0,MyOwnSoftware,2013-02-19 18:12:00,
2013-02-19 18:13:00,40.3,40.3,30.20,North,0,3.0,6.0,100,0.00,,,0.00,0,MyOwnSoftware,2013-02-19 18:13:00,
2013-02-19 18:14:00,40.3,40.3,30.20,NNW,338,2.0,5.0,100,0.00,,,0.00,0,MyOwnSoftware,2013-02-19 18:14:00,
2013-02-19 18:15:00,40.3,40.3,30.20,North,0,4.0,6.0,100,0.00,,,0.00,0,MyOwnSoftware,2013-02-19 18:15:00,
2013-02-19 18:16:00,40.3,40.3,30.20,NNE,22,2.0,5.0,100,0.00,,,0.00,0,MyOwnSoftware,2013-02-19 18:16:00,
2013-02-19 18:17:00,40.3,40.3,30.20,North,0,3.0,5.0,100,0.00,,,0.00,0,MyOwnSoftware,2013-02-19 18:17:00,
2013-02-19 18:18:00,40.3,40.3,30.20,NNE,22,2.0,3.0,100,0.00,,,0.00,0,MyOwnSoftware,2013-02-19 18:18:00,
2013-02-19 18:19:00,40.3,40.3,30.20,North,0,4.0,6.0,100,0.00,,,0.00,0,MyOwnSoftware,2013-02-19 18:19:00,
2013-02-19 18:20:00,40.3,40.3,30.20,NNE,22,4.0,6.0,100,0.00,,,0.00,0,MyOwnSoftware,2013-02-19 18:20:00,
2013-02-19 18:21:00,40.3,40.3,30.20,North,0,2.0,5.0,100,0.00,,,0.00,0,MyOwnSoftware,2013-02-19 18:21:00,
2013-02-19 18:22:00,40.3,40.3,30.20,North,0,2.0,4.0,100,0.00,,,0.00,0,MyOwnSoftware,2013-02-19 18:22:00,
2013-02-19 18:23:00,40.3,40.0,30.20,North,0,1.0,-999.0,100,-99.99,,,0.00,0,weatherlink.com 1.10,2013-02-19 18:23:00,
2013-02-19 18:24:00,40.3,40.3,30.20,North,0,2.0,3.0,100,0.00,,,0.00,0,MyOwnSoftware,2013-02-19 18:24:00,
2013-02-19 18:25:00,40.3,40.3,30.20,North,0,3.0,5.0,100,0.00,,,0.00,0,MyOwnSoftware,2013-02-19 18:25:00,
2013-02-19 18:29:00,40.3,40.3,30.20,North,0,2.0,3.0,100,0.00,,,0.00,0,MyOwnSoftware,2013-02-19 18:29:00,
2013-02-19 18:30:00,40.3,40.3,30.21,North,0,2.0,3.0,100,0.00,,,0.00,0,MyOwnSoftware,2013-02-19 18:30:00,
2013-02-19 18:31:00,40.3,40.3,30.21,North,0,1.0,2.0,100,0.00,,,0.00,0,MyOwnSoftware,2013-02-19 18:31:00,
2013-02-19 18:32:00,40.3,40.3,30.21,North,0,1.0,2.0,100,0.00,,,0.00,0,MyOwnSoftware,2013-02-19 18:32:00,
2013-02-19 18:33:00,40.3,40.3,30.21,North,0,2.0,3.0,100,0.00,,,0.00,0,MyOwnSoftware,2013-02-19 18:33:00,
2013-02-19 18:34:00,40.3,40.3,30.21,North,0,1.0,3.0,100,0.00,,,0.00,0,MyOwnSoftware,2013-02-19 18:34:00,
2013-02-19 18:35:00,40.3,40.3,30.20,North,0,2.0,3.0,100,0.00,,,0.00,0,MyOwnSoftware,2013-02-19 18:35:00,
2013-02-19 18:39:00,40.5,40.5,30.21,NE,45,2.0,3.0,100,0.00,,,0.00,0,MyOwnSoftware,2013-02-19 18:39:00,
2013-02-19 18:40:00,40.5,40.5,30.21,NE,45,2.0,5.0,100,0.00,,,0.00,0,MyOwnSoftware,2013-02-19 18:40:00,
2013-02-19 18:41:00,40.3,40.3,30.21,ENE,68,3.0,5.0,100,0.00,,,0.00,0,MyOwnSoftware,2013-02-19 18:41:00,
2013-02-19 18:42:00,40.3,40.3,30.21,NE,45,2.0,3.0,100,0.00,,,0.00,0,MyOwnSoftware,2013-02-19 18:42:00,
2013-02-19 18:43:00,40.3,40.3,30.21,NE,45,1.0,2.0,100,0.00,,,0.00,0,MyOwnSoftware,2013-02-19 18:43:00,
2013-02-19 18:44:00,40.3,40.3,30.21,NE,45,2.0,3.0,100,0.00,,,0.00,0,MyOwnSoftware,2013-02-19 18:44:00,
2013-02-19 18:45:00,40.5,40.5,30.21,North,0,2.0,3.0,100,0.00,,,0.00,0,MyOwnSoftware,2013-02-19 18:45:00,
2013-02-19 18:49:00,40.5,40.5,30.21,North,0,2.0,5.0,100,0.00,,,0.00,0,MyOwnSoftware,2013-02-19 18:49:00,
2013-02-19 18:50:00,40.5,40.5,30.21,North,0,1.0,2.0,100,0.00,,,0.00,0,MyOwnSoftware,2013-02-19 18:50:00,
2013-02-19 18:51:00,40.5,40.5,30.21,North,0,2.0,3.0,100,0.00,,,0.00,0,MyOwnSoftware,2013-02-19 18:51:00,
2013-02-19 18:52:00,40.5,40.5,30.21,North,0,3.0,6.0,100,0.00,,,0.00,0,MyOwnSoftware,2013-02-19 18:52:00,
2013-02-19 18:53:00,40.5,41.0,30.21,NNE,18,2.0,-999.0,100,-99.99,,,0.00,0,weatherlink.com 1.10,2013-02-19 18:53:00,
2013-02-19 18:54:00,40.5,40.5,30.21,NNE,22,2.0,5.0,100,0.00,,,0.00,0,MyOwnSoftware,2013-02-19 18:54:00,
2013-02-19 18:55:00,40.3,40.3,30.21,NNE,22,3.0,5.0,100,0.00,,,0.00,0,MyOwnSoftware,2013-02-19 18:55:00,
2013-02-19 18:56:00,40.3,40.3,30.21,NNE,22,2.0,3.0,100,0.00,,,0.00,0,MyOwnSoftware,2013-02-19 18:56:00,
2013-02-19 18:57:00,40.3,40.3,30.21,NNE,22,2.0,2.0,100,0.00,,,0.00,0,MyOwnSoftware,2013-02-19 18:57:00,
2013-02-19 18:58:00,40.3,40.3,30.21,NNE,22,2.0,3.0,100,0.00,,,0.00,0,MyOwnSoftware,2013-02-19 18:58:00,
2013-02-19 18:59:00,40.3,40.3,30.21,NNE,22,2.0,3.0,100,0.00,,,0.00,0,MyOwnSoftware,2013-02-19 18:59:00,
2013-02-19 19:00:00,40.3,40.3,30.21,NNE,22,2.0,3.0,100,0.00,,,0.00,0,MyOwnSoftware,2013-02-19 19:00:00,
2013-02-19 19:01:00,40.3,40.3,30.21,NNE,22,2.0,4.0,100,0.00,,,0.00,0,MyOwnSoftware,2013-02-19 19:01:00,
2013-02-19 19:02:00,40.3,40.3,30.21,NNE,22,2.0,4.0,100,0.00,,,0.00,0,MyOwnSoftware,2013-02-19 19:02:00,
2013-02-19 19:03:00,40.3,40.3,30.21,NNE,22,3.0,5.0,100,0.00,,,0.00,0,MyOwnSoftware,2013-02-19 19:03:00,
2013-02-19 19:04:00,40.3,40.3,30.21,NNE,22,2.0,3.0,100,0.00,,,0.00,0,MyOwnSoftware,2013-02-19 19:04:00,
2013-02-19 19:05:00,40.3,40.3,30.21,NNE,22,2.0,4.0,100,0.00,,,0.00,0,MyOwnSoftware,2013-02-19 19:05:00,
2013-02-19 19:08:00,40.3,40.0,30.21,NNE,30,1.0,-999.0,100,-99.99,,,0.00,0,weatherlink.com 1.10,2013-02-19 19:08:00,
2013-02-19 19:09:00,40.3,40.3,30.21,NNE,22,2.0,3.0,100,0.00,,,0.00,0,MyOwnSoftware,2013-02-19 19:09:00,
2013-02-19 19:10:00,40.3,40.3,30.21,NNE,22,2.0,2.0,100,0.00,,,0.00,0,MyOwnSoftware,2013-02-19 19:10:00,
2013-02-19 19:11:00,40.3,40.3,30.21,NNE,22,3.0,5.0,100,0.00,,,0.00,0,MyOwnSoftware,2013-02-19 19:11:00,
2013-02-19 19:12:00,40.3,40.3,30.21,North,0,2.0,3.0,100,0.00,,,0.00,0,MyOwnSoftware,2013-02-19 19:12:00,
2013-02-19 19:13:00,40.3,40.3,30.21,North,0,2.0,2.0,100,0.00,,,0.00,0,MyOwnSoftware,2013-02-19 19:13:00,
2013-02-19 19:14:00,40.3,40.3,30.21,North,0,1.0,5.0,100,0.00,,,0.00,0,MyOwnSoftware,2013-02-19 19:14:00,
2013-02-19 19:15:00,40.3,40.3,30.21,NNE,22,3.0,5.0,100,0.00,,,0.00,0,MyOwnSoftware,2013-02-19 19:15:00,
2013-02-19 19:16:00,40.3,40.3,30.21,NNE,22,3.0,5.0,100,0.00,,,0.00,0,MyOwnSoftware,2013-02-19 19:16:00,
2013-02-19 19:17:00,40.3,40.3,30.21,NNE,22,2.0,4.0,100,0.00,,,0.00,0,MyOwnSoftware,2013-02-19 19:17:00,
2013-02-19 19:18:00,40.3,40.3,30.21,NNE,22,3.0,5.0,100,0.00,,,0.00,0,MyOwnSoftware,2013-02-19 19:18:00,
2013-02-19 19:19:00,40.3,40.3,30.21,North,0,3.0,4.0,100,0.00,,,0.00,0,MyOwnSoftware,2013-02-19 19:19:00,
2013-02-19 19:20:00,40.3,40.3,30.21,NNE,22,2.0,3.0,100,0.00,,,0.00,0,MyOwnSoftware,2013-02-19 19:20:00,
2013-02-19 19:21:00,40.3,40.3,30.21,North,0,2.0,3.0,100,0.00,,,0.00,0,MyOwnSoftware,2013-02-19 19:21:00,
2013-02-19 19:22:00,40.3,40.3,30.21,North,0,2.0,3.0,100,0.00,,,0.00,0,MyOwnSoftware,2013-02-19 19:22:00,
2013-02-19 19:23:00,40.3,40.0,30.21,NNE,21,1.0,-999.0,100,-99.99,,,0.00,0,weatherlink.com 1.10,2013-02-19 19:23:00,
2013-02-19 19:24:00,40.3,40.3,30.21,NNE,22,1.0,2.0,100,0.00,,,0.00,0,MyOwnSoftware,2013-02-19 19:24:00,
2013-02-19 19:25:00,40.3,40.3,30.21,NNE,22,0.0,2.0,100,0.00,,,0.00,0,MyOwnSoftware,2013-02-19 19:25:00,
2013-02-19 19:29:00,40.3,40.3,30.21,NNE,22,1.0,5.0,100,0.00,,,0.00,0,MyOwnSoftware,2013-02-19 19:29:00,
2013-02-19 19:30:00,40.3,40.3,30.21,NNE,22,3.0,5.0,100,0.00,,,0.00,0,MyOwnSoftware,2013-02-19 19:30:00,
2013-02-19 19:31:00,40.3,40.3,30.21,NNE,22,2.0,3.0,100,0.00,,,0.00,0,MyOwnSoftware,2013-02-19 19:31:00,
2013-02-19 19:32:00,40.3,40.3,30.21,NE,45,2.0,3.0,100,0.00,,,0.00,0,MyOwnSoftware,2013-02-19 19:32:00,
2013-02-19 19:33:00,40.3,40.3,30.21,NNE,22,3.0,5.0,100,0.00,,,0.00,0,MyOwnSoftware,2013-02-19 19:33:00,
2013-02-19 19:34:00,40.3,40.3,30.21,NNW,338,2.0,3.0,100,0.00,,,0.00,0,MyOwnSoftware,2013-02-19 19:34:00,
2013-02-19 19:35:00,40.3,40.3,30.21,NNE,22,1.0,2.0,100,0.00,,,0.00,0,MyOwnSoftware,2013-02-19 19:35:00,
2013-02-19 19:39:00,40.3,40.3,30.21,NNE,22,2.0,3.0,100,0.00,,,0.00,0,MyOwnSoftware,2013-02-19 19:39:00,
2013-02-19 19:40:00,40.3,40.3,30.21,NNE,22,1.0,3.0,100,0.00,,,0.00,0,MyOwnSoftware,2013-02-19 19:40:00,
2013-02-19 19:41:00,40.3,40.3,30.21,NNE,22,2.0,3.0,100,0.00,,,0.00,0,MyOwnSoftware,2013-02-19 19:41:00,
2013-02-19 19:42:00,40.3,40.3,30.21,NNE,22,2.0,3.0,100,0.00,,,0.00,0,MyOwnSoftware,2013-02-19 19:42:00,
2013-02-19 19:43:00,40.3,40.3,30.21,NNE,22,2.0,3.0,100,0.00,,,0.00,0,MyOwnSoftware,2013-02-19 19:43:00,
2013-02-19 19:44:00,40.3,40.3,30.21,NNE,22,2.0,5.0,100,0.00,,,0.00,0,MyOwnSoftware,2013-02-19 19:44:00,
2013-02-19 19:45:00,40.3,40.3,30.21,NNW,338,0.0,2.0,100,0.00,,,0.00,0,MyOwnSoftware,2013-02-19 19:45:00,
2013-02-19 19:49:00,40.2,40.2,30.21,NNE,22,3.0,4.0,100,0.00,,,0.00,0,MyOwnSoftware,2013-02-19 19:49:00,
2013-02-19 19:50:00,40.2,40.2,30.21,NNW,338,2.0,4.0,100,0.00,,,0.00,0,MyOwnSoftware,2013-02-19 19:50:00,
2013-02-19 19:51:00,40.2,40.2,30.21,NNW,338,2.0,3.0,100,0.00,,,0.00,0,MyOwnSoftware,2013-02-19 19:51:00,
2013-02-19 19:52:00,40.3,40.3,30.21,North,0,3.0,5.0,100,0.00,,,0.00,0,MyOwnSoftware,2013-02-19 19:52:00,
2013-02-19 19:53:00,40.3,40.0,30.21,NNW,342,3.0,-999.0,100,-99.99,,,0.00,0,weatherlink.com 1.10,2013-02-19 19:53:00,
2013-02-19 19:54:00,40.2,40.2,30.21,North,0,4.0,6.0,100,0.00,,,0.00,0,MyOwnSoftware,2013-02-19 19:54:00,
2013-02-19 19:55:00,40.2,40.2,30.21,North,0,3.0,4.0,100,0.00,,,0.00,0,MyOwnSoftware,2013-02-19 19:55:00,
2013-02-19 19:56:00,40.2,40.2,30.21,North,0,3.0,5.0,100,0.00,,,0.00,0,MyOwnSoftware,2013-02-19 19:56:00,
2013-02-19 19:57:00,40.2,40.2,30.21,NNE,22,3.0,5.0,100,0.00,,,0.00,0,MyOwnSoftware,2013-02-19 19:57:00,
2013-02-19 19:58:00,40.2,40.2,30.21,North,0,2.0,3.0,100,0.00,,,0.00,0,MyOwnSoftware,2013-02-19 19:58:00,
2013-02-19 19:59:00,40.2,40.2,30.21,North,0,1.0,3.0,100,0.00,,,0.00,0,MyOwnSoftware,2013-02-19 19:59:00,
2013-02-19 20:00:00,40.2,40.2,30.21,North,0,2.0,3.0,100,0.00,,,0.00,0,MyOwnSoftware,2013-02-19 20:00:00,
2013-02-19 20:01:00,40.2,40.2,30.21,North,0,2.0,3.0,100,0.00,,,0.00,0,MyOwnSoftware,2013-02-19 20:01:00,
2013-02-19 20:02:00,40.2,40.2,30.21,North,0,2.0,3.0,100,0.00,,,0.00,0,MyOwnSoftware,2013-02-19 20:02:00,
2013-02-19 20:03:00,40.2,40.2,30.21,North,0,2.0,4.0,100,0.00,,,0.00,0,MyOwnSoftware,2013-02-19 20:03:00,
2013-02-19 20:04:00,40.2,40.2,30.21,North,0,2.0,5.0,100,0.00,,,0.00,0,MyOwnSoftware,2013-02-19 20:04:00,
2013-02-19 20:05:00,40.2,40.2,30.21,North,0,3.0,4.0,100,0.00,,,0.00,0,MyOwnSoftware,2013-02-19 20:05:00,
2013-02-19 20:08:00,40.2,40.0,30.21,North,0,2.0,-999.0,100,-99.99,,,0.00,0,weatherlink.com 1.10,2013-02-19 20:08:00,
2013-02-19 20:09:00,40.2,40.2,30.21,North,0,2.0,4.0,100,0.00,,,0.00,0,MyOwnSoftware,2013-02-19 20:09:00,
2013-02-19 20:10:00,40.2,40.2,30.21,North,0,3.0,5.0,100,0.00,,,0.00,0,MyOwnSoftware,2013-02-19 20:10:00,
2013-02-19 20:11:00,40.2,40.2,30.21,North,0,2.0,4.0,100,0.00,,,0.00,0,MyOwnSoftware,2013-02-19 20:11:00,
2013-02-19 20:12:00,40.2,40.2,30.21,North,0,2.0,3.0,100,0.00,,,0.00,0,MyOwnSoftware,2013-02-19 20:12:00,
2013-02-19 20:13:00,40.2,40.2,30.21,North,0,2.0,3.0,100,0.00,,,0.00,0,MyOwnSoftware,2013-02-19 20:13:00,
2013-02-19 20:14:00,40.2,40.2,30.21,North,0,2.0,4.0,100,0.00,,,0.00,0,MyOwnSoftware,2013-02-19 20:14:00,
2013-02-19 20:15:00,40.2,40.2,30.21,North,0,2.0,3.0,100,0.00,,,0.00,0,MyOwnSoftware,2013-02-19 20:15:00,
2013-02-19 20:16:00,40.2,40.2,30.21,North,0,4.0,7.0,100,0.00,,,0.00,0,MyOwnSoftware,2013-02-19 20:16:00,
2013-02-19 20:17:00,40.2,40.2,30.21,NNE,22,3.0,5.0,100,0.00,,,0.00,0,MyOwnSoftware,2013-02-19 20:17:00,
2013-02-19 20:18:00,40.2,40.2,30.21,NNE,22,1.0,2.0,100,0.00,,,0.00,0,MyOwnSoftware,2013-02-19 20:18:00,
2013-02-19 20:19:00,40.2,40.2,30.21,NNE,22,2.0,3.0,100,0.00,,,0.00,0,MyOwnSoftware,2013-02-19 20:19:00,
2013-02-19 20:20:00,40.2,40.2,30.21,NNE,22,2.0,3.0,100,0.00,,,0.00,0,MyOwnSoftware,2013-02-19 20:20:00,
2013-02-19 20:21:00,40.2,40.2,30.21,NNE,22,2.0,3.0,100,0.00,,,0.00,0,MyOwnSoftware,2013-02-19 20:21:00,
2013-02-19 20:22:00,40.2,40.2,30.21,NNE,22,2.0,2.0,100,0.00,,,0.00,0,MyOwnSoftware,2013-02-19 20:22:00,
2013-02-19 20:23:00,40.2,40.0,30.21,NNE,23,2.0,-999.0,100,-99.99,,,0.00,0,weatherlink.com 1.10,2013-02-19 20:23:00,
2013-02-19 20:24:00,40.2,40.2,30.21,NNE,22,2.0,3.0,100,0.00,,,0.00,0,MyOwnSoftware,2013-02-19 20:24:00,
2013-02-19 20:25:00,40.2,40.2,30.21,NNE,22,1.0,2.0,100,0.00,,,0.00,0,MyOwnSoftware,2013-02-19 20:25:00,
2013-02-19 20:29:00,40.2,40.2,30.21,NNE,22,2.0,3.0,100,0.00,,,0.00,0,MyOwnSoftware,2013-02-19 20:29:00,
2013-02-19 20:30:00,40.2,40.2,30.21,NNE,22,2.0,3.0,100,0.00,,,0.00,0,MyOwnSoftware,2013-02-19 20:30:00,
2013-02-19 20:31:00,40.2,40.2,30.21,NNE,22,2.0,3.0,100,0.00,,,0.00,0,MyOwnSoftware,2013-02-19 20:31:00,
2013-02-19 20:32:00,40.2,40.2,30.21,North,0,2.0,3.0,100,0.00,,,0.00,0,MyOwnSoftware,2013-02-19 20:32:00,
2013-02-19 20:33:00,40.2,40.2,30.21,North,0,2.0,2.0,100,0.00,,,0.00,0,MyOwnSoftware,2013-02-19 20:33:00,
2013-02-19 20:34:00,40.2,40.2,30.21,North,0,1.0,2.0,100,0.00,,,0.00,0,MyOwnSoftware,2013-02-19 20:34:00,
2013-02-19 20:35:00,40.2,40.2,30.21,NNE,22,2.0,3.0,100,0.00,,,0.00,0,MyOwnSoftware,2013-02-19 20:35:00,
2013-02-19 20:39:00,40.2,40.2,30.21,North,0,2.0,3.0,100,0.00,,,0.00,0,MyOwnSoftware,2013-02-19 20:39:00,
2013-02-19 20:40:00,40.2,40.2,30.21,NNE,22,2.0,4.0,100,0.00,,,0.00,0,MyOwnSoftware,2013-02-19 20:40:00,
2013-02-19 20:41:00,40.2,40.2,30.21,NE,45,3.0,4.0,100,0.00,,,0.00,0,MyOwnSoftware,2013-02-19 20:41:00,
2013-02-19 20:42:00,40.2,40.2,30.21,NE,45,3.0,5.0,100,0.00,,,0.00,0,MyOwnSoftware,2013-02-19 20:42:00,
2013-02-19 20:43:00,40.2,40.2,30.21,NNE,22,2.0,3.0,100,0.00,,,0.00,0,MyOwnSoftware,2013-02-19 20:43:00,
2013-02-19 20:44:00,40.2,40.2,30.21,North,0,2.0,5.0,100,0.00,,,0.00,0,MyOwnSoftware,2013-02-19 20:44:00,
2013-02-19 20:45:00,40.2,40.2,30.21,North,0,1.0,2.0,100,0.00,,,0.00,0,MyOwnSoftware,2013-02-19 20:45:00,
2013-02-19 20:49:00,40.2,40.2,30.21,NNE,22,2.0,3.0,100,0.00,,,0.00,0,MyOwnSoftware,2013-02-19 20:49:00,
2013-02-19 20:50:00,40.2,40.2,30.21,NNE,22,2.0,4.0,100,0.00,,,0.00,0,MyOwnSoftware,2013-02-19 20:50:00,
2013-02-19 20:51:00,40.2,40.2,30.21,NNE,22,3.0,5.0,100,0.00,,,0.00,0,MyOwnSoftware,2013-02-19 20:51:00,
2013-02-19 20:52:00,40.2,40.2,30.21,NNE,22,2.0,3.0,100,0.00,,,0.00,0,MyOwnSoftware,2013-02-19 20:52:00,
2013-02-19 20:53:00,40.2,40.0,30.21,North,0,0.0,-999.0,100,-99.99,,,0.00,0,weatherlink.com 1.10,2013-02-19 20:53:00,
2013-02-19 20:54:00,40.2,40.2,30.21,North,0,1.0,3.0,100,0.00,,,0.00,0,MyOwnSoftware,2013-02-19 20:54:00,
2013-02-19 20:55:00,40.2,40.2,30.21,North,0,4.0,5.0,100,0.00,,,0.00,0,MyOwnSoftware,2013-02-19 20:55:00,
2013-02-19 20:56:00,40.2,40.2,30.21,North,0,2.0,3.0,100,0.00,,,0.00,0,MyOwnSoftware,2013-02-19 20:56:00,
2013-02-19 20:57:00,40.2,40.2,30.21,North,0,2.0,5.0,100,0.00,,,0.00,0,MyOwnSoftware,2013-02-19 20:57:00,
2013-02-19 20:58:00,40.2,40.2,30.21,North,0,2.0,3.0,100,0.00,,,0.00,0,MyOwnSoftware,2013-02-19 20:58:00,
2013-02-19 20:59:00,40.2,40.2,30.21,North,0,2.0,4.0,100,0.00,,,0.00,0,MyOwnSoftware,2013-02-19 20:59:00,
2013-02-19 21:00:00,40.2,40.2,30.22,North,0,3.0,5.0,100,0.00,,,0.00,0,MyOwnSoftware,2013-02-19 21:00:00,
2013-02-19 21:01:00,40.2,40.2,30.22,NNE,22,2.0,4.0,100,0.00,,,0.00,0,MyOwnSoftware,2013-02-19 21:01:00,
2013-02-19 21:02:00,40.2,40.2,30.22,NE,45,1.0,2.0,100,0.00,,,0.00,0,MyOwnSoftware,2013-02-19 21:02:00,
2013-02-19 21:03:00,40.2,40.2,30.22,NNE,22,2.0,3.0,100,0.00,,,0.00,0,MyOwnSoftware,2013-02-19 21:03:00,
2013-02-19 21:04:00,40.2,40.2,30.22,NNE,22,2.0,3.0,100,0.00,,,0.00,0,MyOwnSoftware,2013-02-19 21:04:00,
2013-02-19 21:05:00,40.2,40.2,30.22,NNE,22,2.0,3.0,100,0.00,,,0.00,0,MyOwnSoftware,2013-02-19 21:05:00,
2013-02-19 21:08:00,40.2,40.0,30.22,NNE,21,3.0,-999.0,100,-99.99,,,0.00,0,weatherlink.com 1.10,2013-02-19 21:08:00,
2013-02-19 21:09:00,40.2,40.2,30.22,NNE,22,2.0,4.0,100,0.00,,,0.00,0,MyOwnSoftware,2013-02-19 21:09:00,
2013-02-19 21:10:00,40.2,40.2,30.22,NNE,22,2.0,2.0,100,0.00,,,0.00,0,MyOwnSoftware,2013-02-19 21:10:00,
2013-02-19 21:11:00,40.2,40.2,30.22,NNE,22,2.0,3.0,100,0.00,,,0.00,0,MyOwnSoftware,2013-02-19 21:11:00,
2013-02-19 21:12:00,40.2,40.2,30.22,NE,45,2.0,2.0,100,0.00,,,0.00,0,MyOwnSoftware,2013-02-19 21:12:00,
2013-02-19 21:13:00,40.2,40.2,30.22,NE,45,2.0,3.0,100,0.00,,,0.00,0,MyOwnSoftware,2013-02-19 21:13:00,
2013-02-19 21:14:00,40.2,40.2,30.22,NE,45,2.0,3.0,100,0.00,,,0.00,0,MyOwnSoftware,2013-02-19 21:14:00,
2013-02-19 21:15:00,40.2,40.2,30.22,NNE,22,2.0,3.0,100,0.00,,,0.00,0,MyOwnSoftware,2013-02-19 21:15:00,
2013-02-19 21:16:00,40.2,40.2,30.21,NE,45,3.0,4.0,100,0.00,,,0.00,0,MyOwnSoftware,2013-02-19 21:16:00,
2013-02-19 21:17:00,40.2,40.2,30.21,NNE,22,2.0,4.0,100,0.00,,,0.00,0,MyOwnSoftware,2013-02-19 21:17:00,
2013-02-19 21:18:00,40.2,40.2,30.21,North,0,2.0,3.0,100,0.00,,,0.00,0,MyOwnSoftware,2013-02-19 21:18:00,
2013-02-19 21:19:00,40.2,40.2,30.21,North,0,3.0,5.0,100,0.00,,,0.00,0,MyOwnSoftware,2013-02-19 21:19:00,
2013-02-19 21:20:00,40.2,40.2,30.21,North,0,2.0,3.0,100,0.00,,,0.00,0,MyOwnSoftware,2013-02-19 21:20:00,
2013-02-19 21:21:00,40.2,40.2,30.21,North,0,3.0,5.0,100,0.00,,,0.00,0,MyOwnSoftware,2013-02-19 21:21:00,
2013-02-19 21:22:00,40.2,40.2,30.21,North,0,1.0,3.0,100,0.00,,,0.00,0,MyOwnSoftware,2013-02-19 21:22:00,
2013-02-19 21:23:00,40.2,40.0,30.21,North,353,2.0,-999.0,100,-99.99,,,0.00,0,weatherlink.com 1.10,2013-02-19 21:23:00,
2013-02-19 21:24:00,40.2,40.2,30.21,North,0,2.0,3.0,100,0.00,,,0.00,0,MyOwnSoftware,2013-02-19 21:24:00,
2013-02-19 21:25:00,40.2,40.2,30.21,North,0,2.0,3.0,100,0.00,,,0.00,0,MyOwnSoftware,2013-02-19 21:25:00,
2013-02-19 21:29:00,40.2,40.2,30.21,North,0,2.0,3.0,100,0.00,,,0.00,0,MyOwnSoftware,2013-02-19 21:29:00,
2013-02-19 21:30:00,40.2,40.2,30.22,North,0,1.0,2.0,100,0.00,,,0.00,0,MyOwnSoftware,2013-02-19 21:30:00,
2013-02-19 21:31:00,40.2,40.2,30.22,North,0,1.0,3.0,100,0.00,,,0.00,0,MyOwnSoftware,2013-02-19 21:31:00,
2013-02-19 21:32:00,40.2,40.2,30.22,North,0,2.0,3.0,100,0.00,,,0.00,0,MyOwnSoftware,2013-02-19 21:32:00,
2013-02-19 21:33:00,40.2,40.2,30.22,NNE,22,2.0,4.0,100,0.00,,,0.00,0,MyOwnSoftware,2013-02-19 21:33:00,
2013-02-19 21:34:00,40.2,40.2,30.22,NNE,22,3.0,5.0,100,0.00,,,0.00,0,MyOwnSoftware,2013-02-19 21:34:00,
2013-02-19 21:35:00,40.2,40.2,30.21,North,0,2.0,3.0,100,0.00,,,0.00,0,MyOwnSoftware,2013-02-19 21:35:00,
2013-02-19 21:39:00,40.2,40.2,30.22,NNE,22,2.0,3.0,100,0.00,,,0.00,0,MyOwnSoftware,2013-02-19 21:39:00,
2013-02-19 21:40:00,40.2,40.2,30.22,NNE,22,1.0,2.0,100,0.00,,,0.00,0,MyOwnSoftware,2013-02-19 21:40:00,
2013-02-19 21:41:00,40.2,40.2,30.22,NNE,22,2.0,3.0,100,0.00,,,0.00,0,MyOwnSoftware,2013-02-19 21:41:00,
2013-02-19 21:42:00,40.2,40.2,30.22,NNE,22,1.0,2.0,100,0.00,,,0.00,0,MyOwnSoftware,2013-02-19 21:42:00,
2013-02-19 21:43:00,40.2,40.2,30.22,NNE,22,2.0,4.0,100,0.00,,,0.00,0,MyOwnSoftware,2013-02-19 21:43:00,
2013-02-19 21:44:00,40.2,40.2,30.22,NNE,22,3.0,3.0,100,0.00,,,0.00,0,MyOwnSoftware,2013-02-19 21:44:00,
2013-02-19 21:45:00,40.2,40.2,30.22,NNE,22,2.0,3.0,100,0.00,,,0.00,0,MyOwnSoftware,2013-02-19 21:45:00,
2013-02-19 21:49:00,40.2,40.2,30.22,ENE,68,1.0,3.0,100,0.00,,,0.00,0,MyOwnSoftware,2013-02-19 21:49:00,
2013-02-19 21:50:00,40.2,40.2,30.22,ENE,68,2.0,3.0,100,0.00,,,0.00,0,MyOwnSoftware,2013-02-19 21:50:00,
2013-02-19 21:51:00,40.2,40.2,30.22,ENE,68,1.0,3.0,100,0.00,,,0.00,0,MyOwnSoftware,2013-02-19 21:51:00,
2013-02-19 21:52:00,40.2,40.2,30.22,ENE,68,2.0,3.0,100,0.00,,,0.00,0,MyOwnSoftware,2013-02-19 21:52:00,
2013-02-19 21:53:00,40.2,40.0,30.22,NE,41,1.0,-999.0,100,-99.99,,,0.00,0,weatherlink.com 1.10,2013-02-19 21:53:00,
2013-02-19 21:54:00,40.2,40.2,30.22,NE,45,2.0,3.0,100,0.00,,,0.00,0,MyOwnSoftware,2013-02-19 21:54:00,
2013-02-19 21:55:00,40.2,40.2,30.22,NE,45,2.0,3.0,100,0.00,,,0.00,0,MyOwnSoftware,2013-02-19 21:55:00,
2013-02-19 21:56:00,40.2,40.2,30.22,NE,45,3.0,4.0,100,0.00,,,0.00,0,MyOwnSoftware,2013-02-19 21:56:00,
2013-02-19 21:57:00,40.2,40.2,30.22,NE,45,2.0,3.0,100,0.00,,,0.00,0,MyOwnSoftware,2013-02-19 21:57:00,
2013-02-19 21:58:00,40.2,40.2,30.22,NE,45,2.0,5.0,100,0.00,,,0.00,0,MyOwnSoftware,2013-02-19 21:58:00,
2013-02-19 21:59:00,40.2,40.2,30.22,NE,45,2.0,3.0,100,0.00,,,0.00,0,MyOwnSoftware,2013-02-19 21:59:00,
2013-02-19 22:00:00,40.2,40.2,30.22,NNE,22,2.0,3.0,100,0.00,,,0.00,0,MyOwnSoftware,2013-02-19 22:00:00,
2013-02-19 22:01:00,40.2,40.2,30.22,NNE,22,2.0,5.0,100,0.00,,,0.00,0,MyOwnSoftware,2013-02-19 22:01:00,
2013-02-19 22:02:00,40.2,40.2,30.22,NNE,22,3.0,5.0,100,0.00,,,0.00,0,MyOwnSoftware,2013-02-19 22:02:00,
2013-02-19 22:03:00,40.2,40.2,30.22,North,0,2.0,3.0,100,0.00,,,0.00,0,MyOwnSoftware,2013-02-19 22:03:00,
2013-02-19 22:04:00,40.2,40.2,30.22,North,0,2.0,3.0,100,0.00,,,0.00,0,MyOwnSoftware,2013-02-19 22:04:00,
2013-02-19 22:05:00,40.2,40.2,30.22,North,0,4.0,6.0,100,0.00,,,0.00,0,MyOwnSoftware,2013-02-19 22:05:00,
2013-02-19 22:08:00,40.2,40.0,30.22,North,0,0.0,-999.0,100,-99.99,,,0.00,0,weatherlink.com 1.10,2013-02-19 22:08:00,
2013-02-19 22:09:00,40.2,40.2,30.22,North,0,0.0,2.0,100,0.00,,,0.00,0,MyOwnSoftware,2013-02-19 22:09:00,
2013-02-19 22:10:00,40.2,40.2,30.22,North,0,1.0,2.0,100,0.00,,,0.00,0,MyOwnSoftware,2013-02-19 22:10:00,
2013-02-19 22:11:00,40.2,40.2,30.22,North,0,3.0,5.0,100,0.00,,,0.00,0,MyOwnSoftware,2013-02-19 22:11:00,
2013-02-19 22:12:00,40.2,40.2,30.22,North,0,2.0,3.0,100,0.00,,,0.00,0,MyOwnSoftware,2013-02-19 22:12:00,
2013-02-19 22:13:00,40.2,40.2,30.22,North,0,3.0,5.0,100,0.00,,,0.00,0,MyOwnSoftware,2013-02-19 22:13:00,
2013-02-19 22:14:00,40.2,40.2,30.22,North,0,2.0,3.0,100,0.00,,,0.00,0,MyOwnSoftware,2013-02-19 22:14:00,
2013-02-19 22:15:00,40.2,40.2,30.22,North,0,2.0,5.0,100,0.00,,,0.00,0,MyOwnSoftware,2013-02-19 22:15:00,
2013-02-19 22:16:00,40.2,40.2,30.22,North,0,2.0,3.0,100,0.00,,,0.00,0,MyOwnSoftware,2013-02-19 22:16:00,
2013-02-19 22:17:00,40.2,40.2,30.22,North,0,2.0,3.0,100,0.00,,,0.00,0,MyOwnSoftware,2013-02-19 22:17:00,
2013-02-19 22:18:00,40.2,40.2,30.22,North,0,2.0,3.0,100,0.00,,,0.00,0,MyOwnSoftware,2013-02-19 22:18:00,
2013-02-19 22:19:00,40.2,40.2,30.22,North,0,2.0,5.0,100,0.00,,,0.00,0,MyOwnSoftware,2013-02-19 22:19:00,
2013-02-19 22:20:00,40.2,40.2,30.22,North,0,2.0,3.0,100,0.00,,,0.00,0,MyOwnSoftware,2013-02-19 22:20:00,
2013-02-19 22:21:00,40.2,40.2,30.22,North,0,2.0,4.0,100,0.00,,,0.00,0,MyOwnSoftware,2013-02-19 22:21:00,
2013-02-19 22:22:00,40.2,40.2,30.22,North,0,2.0,3.0,100,0.00,,,0.00,0,MyOwnSoftware,2013-02-19 22:22:00,
2013-02-19 22:23:00,40.2,40.0,30.22,NNW,339,2.0,-999.0,100,-99.99,,,0.00,0,weatherlink.com 1.10,2013-02-19 22:23:00,
2013-02-19 22:24:00,40.2,40.2,30.22,NNW,338,2.0,3.0,100,0.00,,,0.00,0,MyOwnSoftware,2013-02-19 22:24:00,
2013-02-19 22:25:00,40.2,40.2,30.22,NNW,338,2.0,2.0,100,0.00,,,0.00,0,MyOwnSoftware,2013-02-19 22:25:00,
2013-02-19 22:29:00,40.2,40.2,30.22,North,0,1.0,3.0,100,0.00,,,0.00,0,MyOwnSoftware,2013-02-19 22:29:00,
2013-02-19 22:30:00,40.2,40.2,30.21,North,0,2.0,5.0,100,0.00,,,0.00,0,MyOwnSoftware,2013-02-19 22:30:00,
2013-02-19 22:31:00,40.2,40.2,30.21,North,0,2.0,3.0,100,0.00,,,0.00,0,MyOwnSoftware,2013-02-19 22:31:00,
2013-02-19 22:32:00,40.2,40.2,30.21,North,0,2.0,3.0,100,0.00,,,0.00,0,MyOwnSoftware,2013-02-19 22:32:00,
2013-02-19 22:33:00,40.2,40.2,30.21,NNE,22,2.0,4.0,100,0.00,,,0.00,0,MyOwnSoftware,2013-02-19 22:33:00,
2013-02-19 22:34:00,40.2,40.2,30.21,NNE,22,2.0,5.0,100,0.00,,,0.00,0,MyOwnSoftware,2013-02-19 22:34:00,
2013-02-19 22:35:00,40.2,40.2,30.22,NNW,338,2.0,3.0,100,0.00,,,0.00,0,MyOwnSoftware,2013-02-19 22:35:00,
2013-02-19 22:39:00,40.2,40.2,30.21,NNE,22,1.0,2.0,100,0.00,,,0.00,0,MyOwnSoftware,2013-02-19 22:39:00,
2013-02-19 22:40:00,40.2,40.2,30.21,NNE,22,1.0,2.0,100,0.00,,,0.00,0,MyOwnSoftware,2013-02-19 22:40:00,
2013-02-19 22:41:00,40.2,40.2,30.21,NNE,22,3.0,5.0,100,0.00,,,0.00,0,MyOwnSoftware,2013-02-19 22:41:00,
2013-02-19 22:42:00,40.2,40.2,30.21,NE,45,2.0,5.0,100,0.00,,,0.00,0,MyOwnSoftware,2013-02-19 22:42:00,
2013-02-19 22:43:00,40.2,40.2,30.21,NE,45,3.0,6.0,100,0.00,,,0.00,0,MyOwnSoftware,2013-02-19 22:43:00,
2013-02-19 22:44:00,40.2,40.2,30.21,North,0,3.0,6.0,100,0.00,,,0.00,0,MyOwnSoftware,2013-02-19 22:44:00,
2013-02-19 22:45:00,40.2,40.2,30.21,NNE,22,1.0,3.0,100,0.00,,,0.00,0,MyOwnSoftware,2013-02-19 22:45:00,
2013-02-19 22:49:00,40.1,40.1,30.21,NNE,22,2.0,3.0,100,0.00,,,0.00,0,MyOwnSoftware,2013-02-19 22:49:00,
2013-02-19 22:50:00,40.1,40.1,30.21,NNE,22,2.0,3.0,100,0.00,,,0.00,0,MyOwnSoftware,2013-02-19 22:50:00,
2013-02-19 22:51:00,40.1,40.1,30.21,NE,45,2.0,3.0,100,0.00,,,0.00,0,MyOwnSoftware,2013-02-19 22:51:00,
2013-02-19 22:52:00,40.1,40.1,30.21,NE,45,3.0,3.0,100,0.00,,,0.00,0,MyOwnSoftware,2013-02-19 22:52:00,
2013-02-19 22:53:00,40.1,40.0,30.21,North,0,3.0,-999.0,100,-99.99,,,0.00,0,weatherlink.com 1.10,2013-02-19 22:53:00,
2013-02-19 22:54:00,40.1,40.1,30.21,North,0,2.0,3.0,100,0.00,,,0.00,0,MyOwnSoftware,2013-02-19 22:54:00,
2013-02-19 22:55:00,40.1,40.1,30.21,North,0,3.0,3.0,100,0.00,,,0.00,0,MyOwnSoftware,2013-02-19 22:55:00,
2013-02-19 22:56:00,40.1,40.1,30.21,NNE,22,2.0,4.0,100,0.00,,,0.00,0,MyOwnSoftware,2013-02-19 22:56:00,
2013-02-19 22:57:00,40.1,40.1,30.21,NNE,22,3.0,5.0,100,0.00,,,0.00,0,MyOwnSoftware,2013-02-19 22:57:00,
2013-02-19 22:58:00,40.1,40.1,30.21,NNE,22,3.0,5.0,100,0.00,,,0.00,0,MyOwnSoftware,2013-02-19 22:58:00,
2013-02-19 22:59:00,40.1,40.1,30.21,NNE,22,3.0,5.0,100,0.00,,,0.00,0,MyOwnSoftware,2013-02-19 22:59:00,
2013-02-19 23:00:00,40.1,40.1,30.21,NNE,22,3.0,5.0,100,0.00,,,0.00,0,MyOwnSoftware,2013-02-19 23:00:00,
2013-02-19 23:01:00,40.1,40.1,30.21,NNE,22,2.0,3.0,100,0.00,,,0.00,0,MyOwnSoftware,2013-02-19 23:01:00,
2013-02-19 23:02:00,40.1,40.1,30.21,NNE,22,3.0,5.0,100,0.00,,,0.00,0,MyOwnSoftware,2013-02-19 23:02:00,
2013-02-19 23:03:00,40.1,40.1,30.21,North,0,2.0,3.0,100,0.00,,,0.00,0,MyOwnSoftware,2013-02-19 23:03:00,
2013-02-19 23:04:00,40.1,40.1,30.21,North,0,2.0,3.0,100,0.00,,,0.00,0,MyOwnSoftware,2013-02-19 23:04:00,
2013-02-19 23:05:00,40.1,40.1,30.21,North,0,3.0,4.0,100,0.00,,,0.00,0,MyOwnSoftware,2013-02-19 23:05:00,
2013-02-19 23:08:00,39.9,40.0,30.21,NNE,28,6.0,-999.0,100,-99.99,,,0.00,0,weatherlink.com 1.10,2013-02-19 23:08:00,
2013-02-19 23:09:00,39.9,39.9,30.21,NNE,22,4.0,6.0,100,0.00,,,0.00,0,MyOwnSoftware,2013-02-19 23:09:00,
2013-02-19 23:10:00,39.9,39.9,30.21,NNE,22,5.0,7.0,100,0.00,,,0.00,0,MyOwnSoftware,2013-02-19 23:10:00,
2013-02-19 23:11:00,39.9,39.9,30.21,North,0,3.0,6.0,100,0.00,,,0.00,0,MyOwnSoftware,2013-02-19 23:11:00,
2013-02-19 23:12:00,39.9,39.9,30.21,North,0,3.0,6.0,100,0.00,,,0.00,0,MyOwnSoftware,2013-02-19 23:12:00,
2013-02-19 23:13:00,39.9,39.9,30.21,North,0,2.0,3.0,100,0.00,,,0.00,0,MyOwnSoftware,2013-02-19 23:13:00,
2013-02-19 23:14:00,39.9,39.9,30.21,North,0,3.0,6.0,100,0.00,,,0.00,0,MyOwnSoftware,2013-02-19 23:14:00,
2013-02-19 23:15:00,39.9,39.9,30.21,North,0,2.0,4.0,100,0.00,,,0.00,0,MyOwnSoftware,2013-02-19 23:15:00,
2013-02-19 23:16:00,40.1,40.1,30.21,NNE,22,3.0,5.0,100,0.00,,,0.00,0,MyOwnSoftware,2013-02-19 23:16:00,
2013-02-19 23:17:00,40.1,40.1,30.21,NE,45,3.0,5.0,100,0.00,,,0.00,0,MyOwnSoftware,2013-02-19 23:17:00,
2013-02-19 23:18:00,40.1,40.1,30.21,NNE,22,5.0,7.0,100,0.00,,,0.00,0,MyOwnSoftware,2013-02-19 23:18:00,
2013-02-19 23:19:00,40.1,40.1,30.21,NNE,22,4.0,5.0,100,0.00,,,0.00,0,MyOwnSoftware,2013-02-19 23:19:00,
2013-02-19 23:20:00,40.1,40.1,30.21,NNE,22,3.0,5.0,100,0.00,,,0.00,0,MyOwnSoftware,2013-02-19 23:20:00,
2013-02-19 23:21:00,40.1,40.1,30.21,North,0,4.0,5.0,100,0.00,,,0.00,0,MyOwnSoftware,2013-02-19 23:21:00,
2013-02-19 23:22:00,40.1,40.1,30.21,North,0,3.0,5.0,100,0.00,,,0.00,0,MyOwnSoftware,2013-02-19 23:22:00,
2013-02-19 23:23:00,40.1,40.0,30.21,NE,54,4.0,-999.0,100,-99.99,,,0.00,0,weatherlink.com 1.10,2013-02-19 23:23:00,
2013-02-19 23:24:00,40.1,40.1,30.21,NE,45,3.0,5.0,100,0.00,,,0.00,0,MyOwnSoftware,2013-02-19 23:24:00,
2013-02-19 23:25:00,40.1,40.1,30.21,NNE,22,4.0,6.0,100,0.00,,,0.00,0,MyOwnSoftware,2013-02-19 23:25:00,
2013-02-19 23:29:00,39.9,39.9,30.21,North,0,4.0,6.0,100,0.00,,,0.00,0,MyOwnSoftware,2013-02-19 23:29:00,
2013-02-19 23:30:00,39.9,39.9,30.21,North,0,3.0,5.0,100,0.00,,,0.00,0,MyOwnSoftware,2013-02-19 23:30:00,
2013-02-19 23:31:00,39.9,39.9,30.21,NNE,22,4.0,6.0,100,0.00,,,0.00,0,MyOwnSoftware,2013-02-19 23:31:00,
2013-02-19 23:32:00,39.9,39.9,30.21,North,0,4.0,5.0,100,0.00,,,0.00,0,MyOwnSoftware,2013-02-19 23:32:00,
2013-02-19 23:33:00,39.9,39.9,30.21,NNE,22,3.0,5.0,100,0.00,,,0.00,0,MyOwnSoftware,2013-02-19 23:33:00,
2013-02-19 23:34:00,39.9,39.9,30.21,NNE,22,3.0,5.0,100,0.00,,,0.00,0,MyOwnSoftware,2013-02-19 23:34:00,
2013-02-19 23:35:00,40.1,40.1,30.21,NNE,22,4.0,7.0,100,0.00,,,0.00,0,MyOwnSoftware,2013-02-19 23:35:00,
2013-02-19 23:39:00,39.9,39.9,30.21,NNE,22,3.0,6.0,100,0.00,,,0.00,0,MyOwnSoftware,2013-02-19 23:39:00,
2013-02-19 23:40:00,39.9,39.9,30.21,NNE,22,3.0,5.0,100,0.00,,,0.00,0,MyOwnSoftware,2013-02-19 23:40:00,
2013-02-19 23:41:00,39.9,39.9,30.21,North,0,4.0,6.0,100,0.00,,,0.00,0,MyOwnSoftware,2013-02-19 23:41:00,
2013-02-19 23:42:00,39.9,39.9,30.21,NNE,22,4.0,6.0,100,0.00,,,0.00,0,MyOwnSoftware,2013-02-19 23:42:00,
2013-02-19 23:43:00,39.9,39.9,30.21,NNE,22,2.0,3.0,100,0.00,,,0.00,0,MyOwnSoftware,2013-02-19 23:43:00,
2013-02-19 23:44:00,39.9,39.9,30.21,NE,45,2.0,3.0,100,0.00,,,0.00,0,MyOwnSoftware,2013-02-19 23:44:00,
2013-02-19 23:45:00,39.9,39.9,30.21,NNE,22,4.0,6.0,100,0.00,,,0.00,0,MyOwnSoftware,2013-02-19 23:45:00,
2013-02-19 23:49:00,39.9,39.9,30.21,East,90,3.0,5.0,100,0.00,,,0.00,0,MyOwnSoftware,2013-02-19 23:49:00,
2013-02-19 23:50:00,39.9,39.9,30.21,NE,45,3.0,5.0,100,0.00,,,0.00,0,MyOwnSoftware,2013-02-19 23:50:00,
2013-02-19 23:51:00,39.9,39.9,30.21,NE,45,2.0,3.0,100,0.00,,,0.00,0,MyOwnSoftware,2013-02-19 23:51:00,
2013-02-19 23:52:00,39.9,39.9,30.21,NNE,22,4.0,6.0,100,0.00,,,0.00,0,MyOwnSoftware,2013-02-19 23:52:00,
2013-02-19 23:53:00,39.9,40.0,30.21,NE,45,1.0,-999.0,100,-99.99,,,0.00,0,weatherlink.com 1.10,2013-02-19 23:53:00,
2013-02-19 23:54:00,39.9,39.9,30.21,NE,45,2.0,2.0,100,0.00,,,0.00,0,MyOwnSoftware,2013-02-19 23:54:00,
2013-02-19 23:55:00,39.9,39.9,30.21,NE,45,2.0,4.0,100,0.00,,,0.00,0,MyOwnSoftware,2013-02-19 23:55:00,
2013-02-19 23:56:00,39.9,39.9,30.21,NE,45,3.0,6.0,100,0.00,,,0.00,0,MyOwnSoftware,2013-02-19 23:56:00,
2013-02-19 23:57:00,39.9,39.9,30.21,NNE,22,4.0,7.0,100,0.00,,,0.00,0,MyOwnSoftware,2013-02-19 23:57:00,
2013-02-19 23:58:00,39.9,39.9,30.21,NE,45,3.0,5.0,100,0.00,,,0.00,0,MyOwnSoftware,2013-02-19 23:58:00,
2013-02-19 23:59:00,39.9,39.9,30.21,NE,45,2.0,5.0,100,0.00,,,0.00,0,MyOwnSoftware,2013-02-19 23:59:00,